     2.10           OBSERVATION DATA    G (GPS)             RINEX VERSION / TYPE
teqc 2002Mar14 20050428 18:49:13UTC                         PGM / RUN BY / DATE
MSWin2000|IAx86-PII|bcc32 5.0|MSWin95/98/NT/2000|486/DX+    COMMENT
BIT 2 OF LLI FLAGS DATA COLLECTED UNDER A/S CONDITION       COMMENT
ILLO                                                        MARKER NAME
RF_ -Unknown-                                               OBSERVER / AGENCY
_11 ASHTECH Z-XII 1L00                                      REC # / TYPE / VERS
_18 -Unknown-                                               ANT # / TYPE
  1221594.5600 -1655176.9200  6017263.2400                  APPROX POSITION XYZ
        0.0000        0.0000        0.0000                  ANTENNA: DELTA H/E/N
     1     1                                                WAVELENGTH FACT L1/2
     7    L1    L2    C1    P2    P1    D1    D2            # / TYPES OF OBSERV
SNR is mapped to RINEX snr flag value [1-9]                 COMMENT
L1: 1 -> 1; 90 -> 5; 210 -> 9                               COMMENT
L2: 1 -> 1; 150 -> 5; 250 -> 9                              COMMENT
  2005     4    27    10    49    0.0000000     GPS         TIME OF FIRST OBS
                                                            END OF HEADER
 05  4 27 10 49  0.0000000  0  6G14G28G 7G22G 9G11
    -11526.98153                  22507912.7524
      6470.8714
      5042.2374                   20644456.232
      3020.779        2353.854
    -12577.53151                  21010357.5574
      7045.0454       5489.6454
     -2879.37053                  23915343.5924
      1620.5194       1262.7424
     -9899.87851                  21691810.9494
      5556.3544       4329.6264
    -23226.25654                  20019079.9864
      3788.3134       2951.9324
 05  4 27 10 49 15.0000000  0  5G14G28G 7G 9G11
    -87177.67943                  22489440.3934
      6473.8854
      5044.5864     -26562.37746  20635830.0064   20635834.4544
      3024.4664       2356.7274
    -95090.31445                  20990231.3464
      7051.3224       5494.5374
    -75055.74244                  21675946.3014
      5557.2144       4330.2974
    -67524.05647                  20008262.0464   20008266.3154
      3791.6584       2954.5394
 05  4 27 10 49 30.0000000  0  5G14G28G 7G 9G11
   -162873.24045                  22470954.8254
      6478.4264
      5048.1244     -61943.14746  20627190.3714   20627192.2874
      3029.7354       2360.8324
   -177680.72045                  20970096.5974
      7059.1164       5500.6104
   -140222.17245                  21660079.7464
      5559.5874       4332.1464
   -171826.82949   -111869.98947  19997432.5354   19997436.9564   19997432.6624
      3796.5754       2958.3704
 05  4 27 10 49 45.0000000  0  5G14G 7G22G 9G11
   -238606.65846                  23651629.9524
      6483.9384       5052.4194
   -260348.56444                  22149111.2724
      7067.7954       5507.3734
    -60156.77045                  25100529.0724   25100531.6954
      1648.5064       1284.5504
   -205407.81345                  22843379.3094
      5562.9084       4334.7344
   -228803.74249   -156267.56047  21185759.9414   21185764.4814   21185759.9364
      3802.4454       2962.9444
 05  4 27 10 50  0.0000000  0  5G14G 7G22G 9G11
   -314421.33946                  23633115.6284
      6488.7684       5056.1834
   -343139.07844                  22128924.6334
      7075.9194       5513.7034
    -79482.69446                  25095811.0244   25095813.1084
      1658.4364       1292.2884
   -270648.59645                  22827497.8834
      5565.6194       4336.8464
   -285879.90049   -200742.50047  21174898.1984   21174903.0814   21174898.6424
      3807.7384       2967.0694
 05  4 27 10 50 15.0000000  0  6G14G28G 7G22G 9G11
   -390291.46246                  23614586.7154   23614583.5584
      6493.4664       5059.8444
   -254155.38649   -168482.93946  21800343.1354   21800345.5644   21800341.3774
      3047.0514       2374.3254
   -426026.31044                  22108714.5004
      7083.8984       5519.9214
   -137745.54749    -98924.02446  25091062.4664   25091063.9724   25091061.5094
      1668.2364       1299.9244
   -335924.17344                  22811609.6384
      5568.2054       4338.8614
   -343034.89449   -245278.87947  21164022.0164   21164027.2044   21164022.0904
      3812.8594       2971.0594
 05  4 27 10 50 30.0000000  0  6G14G28G 7G22G 9G11
   -623153.08749   -466213.57446  23596044.6554   23596046.2524   23596045.4484
      6497.5264       5063.0074
   -299899.08049   -204127.39746  21791638.3064   21791640.4614   21791635.8754
      3051.9674       2378.1564
     -1475.76643                  22088483.9774
      7091.1624       5525.5814
   -162838.73449   -118477.11446  25086285.8814   25086289.7914   25086285.0384
      1677.4394       1307.0954
     -1158.93843                  22795712.9344
      5570.1804       4340.4004
   -400263.08459   -289872.31857  21153131.6024   21153136.6404   21153131.6684
      3817.3914       2974.5904
 05  4 27 10 50 45.0000000  0  6G14G28G 7G22G 9G11
   -720643.50649   -542180.18246  23577492.8824   23577496.8414   23577491.9344
      6501.0014       5065.7154
   -345712.22259   -239826.01056  21782920.8374   21782921.9844   21782917.6374
      3056.2904       2381.5254
    -84399.93947                  22068238.3004   22068239.7834
      7097.8404       5530.7844
   -188065.96859   -138134.82456  25081484.1984   25081489.4734   25081483.9714
      1686.0574       1313.8114
    -66273.27446                  22779810.3574   22779816.2254
      5571.4874       4341.4184
   -457555.20549   -334515.56647  21142229.5974   21142234.3744   21142229.8054
      3821.3234       2977.6544
 05  4 27 10 51  0.0000000  0  6G14G28G 7G22G 9G11
   -818177.84249   -618181.05846  23558932.7834   23558934.6704   23558931.0524
      6503.5334       5067.6884
   -391582.40949   -275569.13046  21774190.0654   21774193.0754   21774188.1054
      3059.6974       2384.1794
   -917048.12149   -167396.76647  22047965.8104   22047969.7994   22047962.7184
      7103.6624       5535.3214
   -213415.02949   -157887.43446  25076659.1224   25076665.2654   25076659.0604
      1693.8044       1319.8474
   -719839.76349   -131397.41846  22763903.0134   22763911.0804   22763903.1044
      5571.9344       4341.7674
   -514898.78549   -379198.88647  21131317.8654   21131322.3534   21131317.6724
      3824.3894       2980.0434
 05  4 27 10 51 15.0000000  0  5G14G28G 7G 9G11
   -915749.49159   -694210.86256  23540365.5874   23540366.1524   23540363.5774
      6505.9604       5069.5794
   -437503.67149   -311352.06246  21765450.4884   21765454.5564   21765450.5304
      3063.0484       2386.7914
  -1023647.28659   -250461.01957  22027677.0554   22027684.2624   22027676.7184
      7109.3714       5539.7704
   -803421.87159   -196526.31656  22747996.0594   22748006.3924   22747998.1354
      5572.2494       4342.0124
   -572287.99449   -423917.74547  21120397.6264   21120401.3784   21120397.2114
      3827.3744       2982.3694
 05  4 27 10 51 30.0000000  0  5G14G28G 7G 9G11
  -1013349.73549   -770262.97146  23521793.1674   23521794.2234   23521791.7394
      6507.2904       5070.6164
   -483467.00649   -347167.62646  21756704.4544   21756709.0984   21756704.6514
      3065.2814       2388.5314
  -1130323.61449   -333585.43247  22007378.0864   22007386.0794   22007378.1134
      7113.9444       5543.3334
   -887001.26049   -261653.09746  22732093.6554   22732102.9064   22732095.3084
      5571.5544       4341.4714
   -629714.10449   -468665.35847  21109469.5314   21109473.0324   21109469.4234
      3829.2824       2983.8564
 05  4 27 10 51 45.0000000  0  5G14G28G 7G 9G11
  -1110967.68549   -846328.95046  23503216.7794   23503216.9594   23503215.1974
      6508.1914       5071.3184
   -529462.43949   -383008.26146  21747951.7054   21747957.4324   21747950.8024
      3067.1894       2390.0174
  -1237066.67849   -416761.85447  21987065.7284   21987072.6594   21987066.0674
      7118.1034       5546.5744
   -970567.18249   -326769.39846  22716195.1064   22716201.8104   22716194.1944
      5570.3644       4340.5434
   -687166.59649   -513433.46147  21098536.1144   21098540.3594   21098536.0134
      3830.8134       2985.0494
 05  4 27 10 52  0.0000000  0  5G14G28G 7G 9G11
  -1208596.44549   -922403.34746  23484638.4564   23484639.2114   23484637.1064
      6508.4904       5071.5514
   -575483.42949   -418868.81246  21739193.5874   21739199.1284   21739193.9164
      3068.5014       2391.0404
  -1343869.40749   -499984.73247  21966742.2534   21966748.3074   21966740.9444
      7121.7184       5549.3914
  -1054112.90949   -391869.97946  22700297.3794   22700304.6444   22700295.6964
      5568.6424       4339.2024
   -744639.02549   -558217.11947  21087599.0114   21087603.4774   21087599.0094
      3831.7464       2985.7764
 05  4 27 10 52 15.0000000  0  5G14G28G 7G 9G11
  -1306224.68749   -998477.21246  23466060.0174   23466061.4024   23466057.9234
      6508.5304       5071.5824
   -621519.61549   -454741.39446  21730433.8504   21730437.5354   21730433.0554
      3069.5804       2391.8814
  -1450720.78249   -583245.51447  21946408.7894   21946416.0224   21946408.9024
      7124.9604       5551.9174
  -1137627.44749   -456946.27046  22684404.2594   22684411.5324   22684402.8564
      5566.5564       4337.5764
   -802120.74049   -603008.05447  21076660.9034   21076664.8034   21076660.9914
      3832.3534       2986.2494
 05  4 27 10 52 30.0000000  0  5G14G28G 7G 9G11
  -1403848.35849  -1074547.54246  23447482.1364   23447483.6814   23447480.8774
      6507.9434       5071.1244
   -667566.68849   -490622.40746  21721670.7084   21721676.7144   21721672.4434
      3070.0534       2392.2494
  -1557616.54249   -666540.93047  21926067.9334   21926072.6834   21926067.9014
      7127.6544       5554.0164
  -1221106.62849   -521995.01546  22668516.5474   22668523.5764   22668516.4804
      5563.9234       4335.5244
   -859607.82749   -647803.22347  21065722.3784   21065725.6574   21065722.3344
      3832.5014       2986.3644
 05  4 27 10 52 45.0000000  0  5G14G28G 7G 9G11
  -1501461.43549  -1150609.68946  23428906.3974   23428908.4044   23428906.0194
      6506.8934       5070.3064
   -713619.84949   -526508.60346  21712908.1414   21712909.9744   21712906.6274
      3069.9234       2392.1484
  -1664550.69749   -749866.20447  21905718.1434   21905724.1854   21905717.4284
      7129.8704       5555.7434
  -1304544.48349   -587011.52846  22652637.5144   22652644.6434   22652637.8634
      5560.9064       4333.1744
   -917094.46749   -692598.02747  21054783.3914   21054786.5634   21054782.8884
      3832.1694       2986.1064
 05  4 27 10 53  0.0000000  0  5G14G28G 7G 9G11
  -1599058.51049  -1226659.28946  23410334.8874   23410336.5664   23410334.7404
      6505.8334       5069.4804
   -759671.26449   -562392.13046  21704145.1664   21704147.9844   21704143.9844
      3070.0594       2392.2544
  -1771518.05949   -833217.37547  21885362.6134   21885369.3024   21885360.8384
      7132.1014       5557.4814
  -1387936.12549   -651992.05546  22636769.1014   22636776.3134   22636770.7284
      5557.8014       4330.7544
   -974575.88149   -737388.73147  21043844.5734   21043848.2934   21043844.5824
      3831.8114       2985.8274
 05  4 27 10 53 15.0000000  0  6G14G28G 7G 9G20G11
  -1696631.60049  -1302690.26746  23391767.4624   23391769.1224   23391766.7854
      6504.0884       5068.1214
   -805716.38549   -598271.33246  21695381.9464   21695386.8274   21695382.2724
      3069.4484       2391.7784
  -1878510.28249   -916587.98547  21865003.2494   21865008.6634   21865004.5584
      7133.6134       5558.6594
  -1471273.37549   -716930.16746  22620912.6824   22620919.0864   22620912.6304
      5553.9854       4327.7814
   -479478.17754                  23669859.8484
      8642.0794       6734.0874
  -1032044.16749   -782169.18147  21032908.1954   21032912.2304   21032908.3664
      3830.7904       2985.0314
 05  4 27 10 53 30.0000000  0  6G14G28G 7G 9G20G11
  -1794177.23549  -1378699.88446  23373205.3374   23373206.4894   23373204.5644
      6501.9534       5066.4574
   -851752.07349   -634143.58146  21686622.0024   21686628.0044   21686621.7644
      3068.4844       2391.0264
  -1985524.13149   -999975.36047  21844638.7114   21844644.5194   21844636.5304
      7134.7844       5559.5724
  -1554552.95249   -781823.33946  22605065.6434   22605072.3684   22605065.1924
      5549.8834       4324.5844
   -580512.85944                  23645183.2534
      8645.3814       6736.6614
  -1089496.26649   -826937.03947  21021975.2684   21021979.7654   21021975.5774
      3829.4194       2983.9634
 05  4 27 10 53 44.9990000  0  6G14G28G 7G 9G20G11
  -1891684.82549  -1454679.82046  23354649.2604   23354651.5584   23354648.5774
      6499.6164       5064.6364
   -897770.56449   -670002.24146  21677865.3864   21677871.1104   21677864.8394
      3067.4274       2390.2034
  -2092548.46149  -1083370.90947  21824271.9784   21824278.1264   21824272.4324
      7135.6784       5560.2694
  -1637765.57749   -846664.36946  22589231.3224   22589238.1534   22589230.2724
      5545.5794       4321.2304
    -62540.29943                  23620505.0724
      8648.4604       6739.0604
  -1146924.92249   -871686.67247  21011047.3494   21011051.4724   21011047.1484
      3827.9284       2982.8014
 05  4 27 10 53 59.9990000  0  6G14G28G 7G 9G20G11
  -1989165.94149  -1530639.08146  23336098.9724   23336102.2054   23336098.1924
      6497.3444       5062.8654
   -943776.39249   -705850.57346  21669110.3284   21669116.6284   21669110.4744
      3066.3234       2389.3434
  -2199596.18249  -1166784.74247  21803901.6034   21803907.2044   21803901.3874
      7136.7084       5561.0714
  -1720920.97449   -911460.78146  22573406.4304   22573414.3504   22573404.3814
      5541.3224       4317.9134
   -163648.35244                  23595811.5914
      8651.6274       6741.5284
  -1204336.88449   -916423.43647  21000122.5094   21000126.9174   21000122.5144
      3826.4544       2981.6524
 05  4 27 10 54 14.9990000  0  6G14G28G 7G 9G20G11
  -2086608.60149  -1606568.44146  23317556.8164   23317559.9164   23317555.3804
      6494.9824       5061.0254
   -989762.54349   -741683.79046  21660359.9694   21660363.9604   21660359.2214
      3065.1714       2388.4454
  -2306654.45249  -1250206.76247  21783529.2644   21783535.1724   21783531.2424
      7137.6014       5561.7674
  -1804008.08649   -976204.00146  22557593.3654   22557603.0914   22557593.5064
      5536.9474       4314.5044
   -264789.21945                  23571110.2744
      8654.5964       6743.8414
  -1261722.66849   -961139.74947  20989202.4254   20989207.0024   20989202.4164
      3824.8904       2980.4344
 05  4 27 10 54 29.9990000  0  6G14G28G 7G 9G20G11
  -2184009.45449  -1682465.26046  23299022.4124   23299023.8274   23299021.2754
      6491.7994       5058.5454
  -1035725.88949   -777499.29146  21651613.1444   21651617.1504   21651611.5934
      3063.2984       2386.9854
  -2413719.90349  -1333634.35147  21763155.4714   21763160.4734   21763156.9004
      7137.7024       5561.8464
  -1887023.75949  -1040891.55046  22541796.0304   22541805.0554   22541796.9104
      5531.8174       4310.5074
   -365960.28445                  23546402.9294   23546408.0064
      8656.8934       6745.6314
  -1319078.96049  -1005832.87947  20978287.8384   20978292.6944   20978287.9654
      3822.6044       2978.6524
 05  4 27 10 54 44.9990000  0  6G14G28G 7G 9G20G11
  -2281365.15749  -1758326.87546  23280496.7434   23280499.0494   23280494.9564
      6488.7444       5056.1644
  -1081663.73849   -813294.99646  21642870.9614   21642876.6964   21642870.6554
      3061.5694       2385.6384
  -2520789.54049  -1417065.20247  21742781.4494   21742786.0374   21742782.2084
      7137.9544       5562.0424
  -1969964.87749  -1105520.99546  22526014.2144   22526022.1684   22526014.2374
      5526.7854       4306.5864
  -1449910.88049   -467159.39445  23521689.0474   23521692.6304   23521689.6504
      8659.2154       6747.4404
  -1376403.47849  -1050501.29647  20967379.4994   20967383.9854   20967379.3694
      3820.4724       2976.9914
 05  4 27 10 54 59.9990000  0  6G14G28G 7G 9G20G11
  -2378673.84049  -1834151.82146  23261979.5314   23261980.7704   23261977.6324
      6485.8074       5053.8764
  -1127574.66949   -849069.88046  21634134.5394   21634141.2204   21634135.0564
      3059.9664       2384.3894
  -2627861.48949  -1500497.87947  21722404.6914   21722410.8814   21722402.7014
      7138.2774       5562.2944
  -2052829.63449  -1170090.92346  22510246.7084   22510253.0414   22510246.7844
      5521.8784       4302.7624
  -1579816.77949   -568384.82545  23496968.7214   23496972.3314   23496968.3964
      8661.6294       6749.3214
  -1433694.72149  -1095143.81047  20956476.9924   20956481.8084   20956476.9984
      3818.4054       2975.3814
 05  4 27 10 55 14.9990000  0  6G14G28G 7G 9G20G11
  -2475936.10549  -1909940.57946  23243470.6424   23243473.2604   23243468.2504
      6482.2754       5051.1234
  -1173459.26449   -884824.25345  21625403.5034   21625407.4534   21625404.0234
      3057.7914       2382.6944
  -2734936.15949  -1583932.64547  21702028.6424   21702036.2904   21702026.8044
      7138.0684       5562.1314
  -2135618.81349  -1234601.94446  22494493.0944   22494497.7874   22494493.3154
      5516.4804       4298.5564
  -1709756.86259   -669636.85355  23472241.5634   23472245.2124   23472242.5464
      8663.4944       6750.7754
  -1490953.67349  -1139761.19947  20945581.3714   20945585.6344   20945581.3424
      3815.8794       2973.4124
 05  4 27 10 55 29.9990000  0  6G14G28G 7G 9G20G11
  -2573145.14449  -1985687.92046  23224970.9424   23224975.6904   23224969.6344
      6478.8574       5048.4604
  -1219310.70849   -920552.57345  21616678.2214   21616683.3664   21616676.7674
      3055.6894       2381.0564
  -2842006.74949  -1667364.33047  21681654.6354   21681662.2744   21681654.6384
      7137.8934       5561.9954
  -2218325.61749  -1299048.77946  22478754.6344   22478758.0834   22478753.9354
      5511.0784       4294.3464
  -1839724.13149   -770910.03045  23447510.4084   23447514.3804   23447510.9724
      8665.4144       6752.2714
  -1548173.59149  -1184348.16547  20934692.9134   20934697.2004   20934692.7474
      3813.3734       2971.4594
 05  4 27 10 55 44.9990000  0  6G14G28G 7G 9G20G11
  -2670301.54349  -2061394.32146  23206482.3334   23206487.3494   23206480.4014
      6475.2884       5045.6794
  -1265130.51849   -956256.32445  21607957.9504   21607963.7124   21607958.7174
      3053.5374       2379.3794
  -2949073.75549  -1750793.19547  21661281.9544   21661288.6644   21661282.6944
      7137.5644       5561.7384
  -2300950.78049  -1363431.98846  22463031.0094   22463035.3384   22463030.4064
      5505.5694       4290.0544
  -1969718.83749   -872204.65845  23422772.0384   23422777.0804   23422772.7414
      8667.1944       6753.6584
  -1605355.33649  -1228905.34147  20923811.1584   20923816.0014   20923811.0794
      3810.7784       2969.4374
 05  4 27 10 55 59.9990000  0  6G14G28G 7G 9G20G11
  -2767404.21649  -2137058.87646  23188003.3374   23188009.4094   23188000.4754
      6471.8704       5043.0164
  -1310918.27349   -991935.19845  21599244.0994   21599251.9234   21599247.1144
      3051.5284       2377.8144
  -3056136.21449  -1834218.46147  21640907.8134   21640915.6624   21640909.3944
      7137.3764       5561.5924
  -2383493.49149  -1427750.96146  22447321.8564   22447329.5894   22447321.1114
      5500.2174       4285.8834
  -2099739.72949   -973519.58745  23398031.2624   23398034.7944   23398031.8794
      8669.0324       6755.0904
  -1662498.47549  -1273432.48647  20912936.6804   20912942.2264   20912936.7754
      3808.3514       2967.5464
 05  4 27 10 56 14.9990000  0  6G14G28G 7G 9G20G11
  -2864451.85249  -2212680.54646  23169534.5384   23169541.5764   23169532.7674
      6468.0814       5040.0634
  -1356672.94049  -1027588.19045  21590538.8164   21590542.9234   21590537.9344
      3049.2934       2376.0724
  -3163192.92349  -1917639.25047  21620536.3494   21620543.6344   21620535.9284
      7136.9734       5561.2784
  -2465952.79649  -1492004.97446  22431628.6824   22431638.7274   22431629.0294
      5494.6184       4281.5214
  -2229785.65649  -1074854.05345  23373284.4584   23373288.5024   23373285.1194
      8670.6584       6756.3574
  -1719602.15749  -1317928.87347  20902070.5664   20902075.8984   20902070.5744
      3805.7084       2965.4874
 05  4 27 10 56 29.9990000  0  6G14G28G 7G 9G20G11
  -2961443.19249  -2288258.39646  23151075.4874   23151084.8564   23151074.6704
      6464.2724       5037.0954
  -1402393.28749  -1063214.51645  21581838.7974   21581844.4194   21581839.6384
      3046.9454       2374.2434
  -3270242.49149  -2001054.48247  21600164.5584   21600172.2614   21600165.0754
      7136.3724       5560.8094
  -2548327.31149  -1556192.93046  22415953.8994   22415963.6274   22415955.3564
      5488.8474       4277.0244
  -2359855.03049  -1176206.78945  23348533.6244   23348537.1784   23348532.4294
      8672.0984       6757.4794
  -1776665.23649  -1362393.61247  20891212.4334   20891216.7134   20891212.1104
      3802.8924       2963.2924
 05  4 27 10 56 44.9990000  0  6G14G28G 7G 9G20G11
  -3058373.51649  -2363788.56746  23132629.2734   23132640.4314   23132630.1704
      6459.9344       5033.7154
  -1448075.45949  -1098811.02045  21573145.4904   21573151.9884   21573145.6384
      3044.1764       2372.0854
  -3377280.58249  -2084460.78247  21579796.5034   21579802.0334   21579796.1894
      7135.4064       5560.0574
  -2630612.83549  -1620311.51946  22400298.7164   22400304.1504   22400299.1114
      5482.7404       4272.2654
  -2489943.13249  -1277574.13345  23323778.8774   23323783.4714   23323776.3344
      8673.1824       6758.3244
  -1833683.60149  -1406823.52747  20880362.2294   20880366.1144   20880362.2674
      3799.6904       2960.7974
 05  4 27 10 56 59.9990000  0  6G14G28G 7G 9G20G11
  -3155243.20449  -2439271.15246  23114195.5394   23114205.5334   23114195.8574
      6456.0084       5030.6564
  -1493720.89349  -1134378.89545  21564460.2114   21564466.9574   21564458.7564
      3041.7594       2370.2024
  -3484308.02249  -2167858.76447  21559428.5374   21559436.9384   21559429.0284
      7134.7234       5559.5244
  -2712810.30949  -1684361.47147  22384660.1894   22384661.5684   22384659.3324
      5476.8484       4267.6744
  -2620050.76149  -1378956.67046  23299020.9654   23299024.9754   23299020.7724
      8674.4634       6759.3224
  -1890658.40249  -1451219.46647  20869520.5394   20869524.1374   20869520.4264
      3796.8344       2958.5724
 05  4 27 10 57 14.9990000  0  6G14G28G 7G 9G20G11
  -3252051.44349  -2514705.83746  23095773.0124   23095783.3634   23095772.9984
      6451.8104       5027.3844
  -1539328.56049  -1169917.54845  21555780.3434   21555785.0404   21555782.3894
      3039.1914       2368.2014
  -3591323.20749  -2251247.25947  21539065.8904   21539072.2364   21539065.6244
      7133.8354       5558.8324
  -2794918.40249  -1748341.77246  22369035.4384   22369036.4314   22369033.7194
      5470.8444       4262.9954
  -2750176.37849  -1480353.22146  23274258.7494   23274264.1854   23274258.0744
      8675.5454       6760.1654
  -1947588.64949  -1495580.71447  20858687.0614   20858690.4734   20858686.6864
      3793.7844       2956.1954
 05  4 27 10 57 29.9990000  0  6G14G28G 7G 9G20G11
  -3348798.01549  -2590092.66146  23077361.9244   23077373.0044   23077362.7764
      6447.7764       5024.2414
  -1584897.66949  -1205425.82245  21547108.7944   21547115.8994   21547107.9134
      3036.7934       2366.3324
  -3698325.87349  -2334625.93547  21518702.2744   21518708.1134   21518702.0854
      7133.1334       5558.2854
  -2876936.70349  -1812252.12046  22353425.1624   22353428.9194   22353422.8364
      5465.0034       4258.4444
  -2880319.09649  -1581763.16645  23249494.2314   23249496.2664   23249492.2164
      8676.8924       6761.2154
  -2004474.07849  -1539907.02547  20847861.6804   20847865.8064   20847861.2894
      3790.9734       2954.0054
 05  4 27 10 57 44.9990000  0  6G14G28G 7G 9G20G11
  -3445481.70849  -2665430.53646  23058963.3084   23058975.1004   23058964.0584
      6443.6114       5020.9964
  -1630428.18349  -1240904.02045  21538446.1514   21538450.2634   21538445.4184
      3034.2524       2364.3524
  -3805314.85349  -2417994.03247  21498344.8044   21498349.8184   21498344.6924
      7132.2474       5557.5954
  -2958864.37749  -1876091.88346  22337829.4134   22337838.9314   22337829.9644
      5458.9864       4253.7554
  -3010477.88749  -1683185.61045  23224725.6044   23224729.9464   23224723.5944
      8677.9454       6762.0354
  -2061314.44649  -1584198.24147  20837044.7274   20837049.5984   20837044.7014
      3788.0184       2951.7024
 05  4 27 10 57 59.9990000  0  6G14G28G 7G 9G20G11
  -3542102.74149  -2740719.60446  23040576.4604   23040588.4074   23040578.5554
      6439.0454       5017.4384
  -1675920.76649  -1276352.74145  21529788.7444   21529794.7974   21529789.3954
      3031.3454       2362.0874
  -3912290.42649  -2501351.58747  21477987.5784   21477993.3454   21477986.8944
      7130.9974       5556.6214
  -3040701.86949  -1939861.37946  22322255.7594   22322266.2834   22322258.9934
      5452.6244       4248.7984
  -3140652.89149  -1784620.70145  23199953.7434   23199955.1444   23199952.8814
      8678.6234       6762.5634
  -2118110.00449  -1628454.50347  20826237.0754   20826242.1824   20826237.5594
      3784.6524       2949.0794
 05  4 27 10 58 14.9990000  0  7G 1G14G28G 7G 9G20G11
  -3636283.72159  -1002730.09855  24386984.5194   24386993.1034   24386984.0534
      8320.5144       6483.5174
  -3638658.67649  -2815957.98446  23022202.4474   23022214.4224   23022203.8844
      6434.9904       5014.2784
  -1721373.46549  -1311770.41445  21521141.6704   21521142.5774   21521141.6844
      3028.9244       2360.2014
  -4019250.11949  -2584696.75547  21457633.8634   21457639.9634   21457632.6094
      7130.1594       5555.9684
  -3122446.94949  -2003558.81046  22306705.1234   22306710.7774   22306706.1094
      5446.6754       4244.1624
  -3270841.30149  -1886066.16945  23175179.3554   23175186.0724   23175175.0084
      8679.7614       6763.4504
  -2174858.68649  -1672674.23047  20815439.3594   20815443.1244   20815439.1384
      3781.7324       2946.8044
 05  4 27 10 58 29.9990000  0  7G 1G14G28G 7G 9G20G11
  -3761096.17449  -1099986.57245  24363231.4154   24363241.2474   24363232.5864
      8321.1214       6483.9904
  -3735147.69649  -2891144.10046  23003841.0054   23003852.2264   23003842.5534
      6430.2194       5010.5604
  -1766784.98249  -1347155.89645  21512498.7094   21512503.2114   21512498.9154
      3025.9304       2357.8684
  -4126192.43149  -2668028.41147  21437283.5694   21437288.7134   21437283.1614
      7128.7304       5554.8554
  -3204098.25349  -2067183.16547  22291170.5134   22291172.8404   22291169.7284
      5440.1944       4239.1124
  -3401041.47249  -1987520.87245  23150402.9494   23150411.0054   23150400.9344
      8680.2354       6763.8194
  -2231559.37149  -1716856.54947  20804650.1814   20804653.3484   20804649.6594
      3778.3064       2944.1354
 05  4 27 10 58 44.9980000  0  7G 1G14G28G 7G 9G20G11
  -3885910.42149  -1197244.44845  24339479.0924   24339489.0314   24339481.5684
      8321.9154       6484.6094
  -3831560.83049  -2966271.19346  22985493.5504   22985505.4264   22985496.3294
      6425.8154       5007.1294
  -1812149.94049  -1382505.29445  21503866.6244   21503869.9994   21503866.4274
      3023.2074       2355.7464
  -4233107.30049  -2751338.67547  21416938.3614   21416945.5954   21416938.0174
      7127.5184       5553.9104
  -3285647.46649  -2130727.98046  22275652.6624   22275654.4774   22275651.0884
      5433.8724       4234.1864
  -3531241.65549  -2088975.54945  23125625.1514   23125632.7914   23125621.4864
      8681.0214       6764.4324
  -2288205.70449  -1760996.52047  20793870.0964   20793873.6014   20793869.5124
      3775.0974       2941.6344
 05  4 27 10 58 59.9980000  0  7G 1G14G28G 7G 9G20G11
  -4010745.29249  -1294518.36345  24315725.2614   24315732.9084   24315726.8184
      8322.6234       6485.1614
  -3927913.19049  -3041350.93746  22967158.1974   22967170.2664   22967160.8994
      6421.1434       5003.4884
  -1857476.85549  -1417824.88345  21495237.4504   21495243.0244   21495237.6944
      3020.3394       2353.5114
  -4340011.31949  -2834640.51247  21396595.3554   21396602.3684   21396596.1204
      7126.2024       5552.8854
  -3367108.01149  -2194203.69846  22260149.6654   22260153.6014   22260148.6584
      5427.4634       4229.1924
  -3661461.35549  -2190445.42445  23100846.7954   23100852.0454   23100846.6524
      8681.5254       6764.8254
  -2344807.97549  -1805102.16147  20783097.9344   20783102.4284   20783097.6974
      3771.7664       2939.0384
 05  4 27 10 59 14.9980000  0  7G 1G14G28G 7G 9G20G11
  -4135591.25249  -1391800.91245  24291968.7274   24291975.6204   24291968.2384
      8323.5024       6485.8464
  -4024197.35949  -3116377.65446  22948837.2414   22948848.9854   22948839.2654
      6416.6924       5000.0204
  -1902762.17249  -1453112.08945  21486622.2434   21486625.2854   21486621.2804
      3017.6804       2351.4394
  -4446896.29149  -2917927.49347  21376255.4764   21376261.6424   21376254.3274
      7125.0064       5551.9534
  -3448473.56149  -2257605.45846  22244663.3504   22244671.2524   22244662.4764
      5421.2624       4224.3604
  -3791690.70749  -2291922.80645  23076064.0304   23076072.0014   23076062.1574
      8682.3154       6765.4404
  -2401361.68449  -1849169.96447  20772335.3444   20772340.6164   20772335.5114
      3768.6734       2936.6284
 05  4 27 10 59 29.9980000  0  7G 1G14G28G 7G 9G20G11
  -4260444.42449  -1489089.08345  24268211.3614   24268215.7624   24268209.3424
      8323.8064       6486.0834
  -4120409.34249  -3191347.98746  22930529.7344   22930538.7554   22930531.1484
      6411.9584       4996.3314
  -1948002.76949  -1488364.49345  21478012.0564   21478015.8274   21478010.7264
      3014.5564       2349.0054
  -4553758.58449  -3001196.77347  21355919.6414   21355926.8904   21355920.7504
      7123.3784       5550.6844
  -3529740.52049  -2320930.36046  22229196.7414   22229207.1394   22229197.5414
      5414.5044       4219.0944
  -3921925.97249  -2393404.78945  23051279.1394   23051287.2334   23051277.3064
      8682.5534       6765.6264
  -2457863.63949  -1893197.46247  20761583.6904   20761588.9464   20761583.8304
      3765.1264       2933.8644
 05  4 27 10 59 44.9980000  0  7G 1G14G28G 7G 9G20G11
  -4385306.09449  -1586383.86445  24244452.0144   24244456.0504   24244449.4144
      8324.4674       6486.5984
  -4216550.64949  -3266263.23046  22912234.3084   22912244.3654   22912235.3414
      6407.1024       4992.5474
  -1993200.44949  -1523583.46545  21469412.3764   21469415.9354   21469412.8694
      3011.8204       2346.8734
  -4660599.65849  -3084449.55147  21335588.1564   21335596.1344   21335587.9114
      7122.0314       5549.6354
  -3610910.58449  -2384179.76246  22213751.0994   22213760.4784   22213752.4264
      5408.1984       4214.1804
  -4052168.24649  -2494892.28645  23026494.0814   23026501.4104   23026489.7134
      8683.1384       6766.0824
  -2514315.62249  -1937186.03947  20750841.7264   20750846.7424   20750842.0184
      3761.8534       2931.3144
 05  4 27 10 59 59.9980000  0  7G 1G14G28G 7G 9G20G11
  -4510174.51149  -1683683.88845  24220688.3414   24220694.3294   24220687.2314
      8324.8324       6486.8824
  -4312620.01949  -3341122.47946  22893953.9874   22893962.8634   22893955.0844
      6402.3714       4988.8614
  -2038354.08149  -1558768.18445  21460817.6604   21460820.9754   21460817.2684
      3008.9064       2344.6024
  -4767418.08149  -3167684.72647  21315262.5804   21315268.9144   21315263.9194
      7120.4594       5548.4104
  -3691982.33649  -2447352.55946  22198326.2724   22198331.5844   22198326.7344
      5401.5794       4209.0234
  -4182415.79249  -2596383.83845  23001709.1944   23001715.2154   23001708.7084
      8683.4924       6766.3574
  -2570716.27849  -1981134.60147  20740109.7084   20740114.2034   20740109.6904
      3758.3984       2928.6224
 05  4 27 11  0 14.9980000  0  7G 1G14G28G 7G 9G20G11
  -4635046.43949  -1780986.64045  24196923.6144   24196931.8094   24196924.4854
      8324.8564       6486.9014
  -4408614.39749  -3415923.34446  22875688.8594   22875695.5774   22875687.8764
      6397.1474       4984.7904
  -2083461.06449  -1593916.45645  21452234.4494   21452241.9004   21452233.6694
      3005.5624       2341.9964
  -4874210.69849  -3250899.74447  21294938.8354   21294946.0224   21294938.5024
      7118.5724       5546.9394
  -3772952.81249  -2510446.41646  22182921.0694   22182921.9874   22182920.4804
      5394.6304       4203.6084
  -4312665.52749  -2697877.09845  22976923.6144   22976929.2304   22976923.3134
      8683.4184       6766.3004
  -2627063.11949  -2025041.25347  20729387.4274   20729391.9914   20729387.1484
      3754.6364       2925.6904
 05  4 27 11  0 29.9980000  0  7G 1G14G28G 7G 9G20G11
  -4759922.03649  -1878292.23045  24173161.1414   24173169.1074   24173160.9134
      8325.1314       6487.1154
  -4504533.92649  -3490665.81946  22857436.2664   22857443.2794   22857434.8624
      6392.0974       4980.8554
  -2128522.20649  -1629029.06845  21443660.2954   21443665.9784   21443659.1684
      3002.5064       2339.6154
  -4980977.69749  -3334094.83647  21274622.9504   21274629.1534   21274622.8194
      7116.8474       5545.5954
  -3853822.74949  -2573461.92447  22167533.5014   22167532.9874   22167532.2364
      5387.9524       4198.4044
  -4442917.58849  -2799372.17345  22952136.5424   22952142.2914   22952137.3774
      8683.4924       6766.3574
  -2683356.83549  -2068906.53147  20718674.5244   20718679.5384   20718674.3084
      3751.0624       2922.9054
 05  4 27 11  0 44.9980000  0  7G 1G14G28G 7G 9G20G11
  -4884802.09149  -1975601.30745  24149399.5514   24149404.8704   24149398.4384
      8325.4354       6487.3524
  -4600379.62949  -3565350.83146  22839196.1554   22839205.1514   22839196.0664
      6387.1764       4977.0204
  -2173538.56749  -1664106.86245  21435094.3924   21435100.7714   21435094.3444
      2999.5964       2337.3484
  -5087720.09249  -3417270.71147  21254309.2154   21254317.6164   21254309.5214
      7115.1944       5544.3074
  -3934593.00849  -2636399.75147  22152163.4204   22152163.0874   22152162.2824
      5381.3014       4193.2214
  -4573172.51149  -2900869.49245  22927348.9844   22927353.4344   22927348.6974
      8683.6474       6766.4784
  -2739598.31349  -2112731.03647  20707970.9774   20707977.4084   20707971.2124
      3747.6444       2920.2424
 05  4 27 11  0 59.9980000  0  7G 1G14G28G 7G 9G20G11
  -5009682.18849  -2072910.45445  24125634.3764   24125640.8794   24125633.7894
      8325.3164       6487.2594
  -4696147.21149  -3639974.97446  22820971.5234   22820981.0874   22820972.5634
      6381.8904       4972.9014
  -2218506.42149  -1699146.77145  21426539.2864   21426543.2944   21426536.9904
      2996.2644       2334.7514
  -5194433.64149  -3500424.15247  21234003.1534   21234010.2344   21234002.4704
      7113.2194       5542.7684
  -4015259.67749  -2699256.85646  22136811.2714   22136812.8904   22136809.7984
      5374.3464       4187.8024
  -4703426.08949  -3002365.77145  22902564.5894   22902568.8364   22902561.8564
      8683.5184       6766.3784
  -2795784.03949  -2156512.09347  20697279.0684   20697285.4874   20697279.4754
      3743.8734       2917.3044
 05  4 27 11  1 14.9980000  0  7G 1G14G28G 7G 9G20G11
  -5134563.67249  -2170220.70045  24101869.2314   24101876.3634   24101868.4764
      8325.3344       6487.2734
  -4791838.07049  -3714539.27546  22802762.5144   22802771.5654   22802762.8904
      6376.6714       4968.8354
  -2263427.74049  -1734150.44145  21417989.5264   21417995.9444   21417989.9884
      2993.0734       2332.2654
  -5301119.94449  -3583556.30247  21213699.8794   21213708.4574   21213700.0494
      7111.3034       5541.2754
  -4095824.42849  -2762034.60346  22121475.8064   22121481.7954   22121475.7714
      5367.4274       4182.4114
  -4833679.58749  -3103862.00245  22877777.3904   22877785.2034   22877776.8944
      8683.3474       6766.2444
  -2851915.85549  -2200251.17647  20686598.5794   20686603.9854   20686598.5624
      3740.1814       2914.4274
 05  4 27 11  1 29.9980000  0  7G 1G14G28G 7G 9G20G11
  -5259443.81949  -2267529.90545  24078104.8234   24078113.0834   24078102.8954
      8325.4014       6487.3254
  -4887450.08849  -3789042.17446  22784567.7874   22784578.0054   22784568.8704
      6371.6524       4964.9244
  -2308300.52549  -1769116.21545  21409450.0974   21409453.9704   21409449.0214
      2989.9604       2329.8394
  -5407776.41449  -3666665.23547  21193404.7154   21193412.4874   21193403.9514
      7109.5274       5539.8914
  -4176284.80449  -2824731.02446  22106162.7994   22106171.5504   22106164.5614
      5360.6944       4177.1644
  -4963930.37849  -3205356.10645  22852991.4444   22852996.2474   22852991.3584
      8683.4554       6766.3284
  -2907991.65049  -2243946.62847  20675928.6194   20675932.5614   20675928.3824
      3736.6724       2911.6924
 05  4 27 11  1 44.9980000  0  7G 1G14G28G 7G 9G20G11
  -5384321.61149  -2364837.25645  24054338.0034   24054349.9094   24054340.0804
      8325.1104       6487.0994
  -4982982.02149  -3863482.69946  22766388.8314   22766398.9014   22766389.5134
      6366.1194       4960.6124
  -2353124.29949  -1804043.86245  21400919.0904   21400926.0384   21400919.5574
      2986.5594       2327.1894
  -5514402.19849  -3749750.24047  21173114.3794   21173122.1734   21173113.7794
      7107.2744       5538.1364
  -4256640.25949  -2887345.66447  22090875.6684   22090880.6464   22090876.7734
      5353.4684       4171.5334
  -5094177.35549  -3306847.25345  22828206.0684   22828213.6944   22828206.2334
      8683.0094       6765.9814
  -2964010.78149  -2287597.90547  20665268.8054   20665272.3774   20665268.3274
      3732.6654       2908.5704
 05  4 27 11  1 59.9980000  0  7G 1G14G28G 7G 9G20G11
  -5509196.22549  -2462142.10445  24030574.1864   24030587.4884   24030577.1484
      8324.7664       6486.8314
  -5078433.74649  -3937860.73246  22748226.7254   22748235.4504   22748226.7274
      6360.7414       4956.4224
  -2397898.83849  -1838933.11745  21392397.6954   21392405.9534   21392397.8524
      2983.2524       2324.6124
  -5620996.77349  -3832810.95547  21152831.0334   21152837.9514   21152829.6554
      7105.1594       5536.4884
  -4336890.29549  -2949878.13847  22075608.7164   22075610.0654   22075607.8884
      5346.4374       4166.0554
  -5224419.96949  -3408334.98345  22803421.7864   22803428.9114   22803423.4214
      8682.5374       6765.6134
  -3019973.14449  -2331204.94947  20654619.1964   20654622.9134   20654618.7154
      3728.8744       2905.6164
 05  4 27 11  2 14.9980000  0  7G 1G14G28G 7G 9G20G11
  -5634066.62149  -2559443.67945  24006814.4074   24006825.9354   24006816.4154
      8324.3964       6486.5424
  -5173804.27949  -4012175.69846  22730079.0354   22730087.3824   22730078.3194
      6355.1534       4952.0674
  -2442623.89749  -1873783.89645  21383889.7524   21383894.1604   21383888.9264
      2979.8394       2321.9524
  -5727559.26249  -3915846.67047  21132552.8704   21132558.9074   21132552.3794
      7102.8964       5534.7244
  -4417034.24749  -3012327.94447  22060358.8104   22060359.7224   22060356.9064
      5339.2404       4160.4474
  -5354657.11549  -3509818.43245  22778638.0624   22778645.1224   22778638.7674
      8682.0654       6765.2454
  -3075878.21349  -2374767.34247  20643980.1494   20643984.8864   20643979.9444
      3724.9114       2902.5284
 05  4 27 11  2 29.9980000  0  7G 1G14G28G 7G 9G20G11
  -5758930.55149  -2656740.24245  23983055.4614   23983065.7224   23983056.4604
      8324.0874       6486.3014
  -5269090.64449  -4086424.64346  22711947.3844   22711953.1884   22711945.7604
      6349.6874       4947.8084
  -2487297.06449  -1908594.21045  21375389.8134   21375394.0704   21375390.4064
      2976.5214       2319.3674
  -5834087.35849  -3998855.60447  21112282.7634   21112287.0304   21112281.3664
      7100.7034       5533.0154
  -4497070.05749  -3074693.49947  22045126.4594   22045129.0484   22045124.6204
      5332.1214       4154.8994
  -5484886.30749  -3611295.68645  22753855.5124   22753864.1354   22753857.5444
      8681.6014       6764.8844
  -3131724.18549  -2418283.70547  20633352.6684   20633358.1224   20633352.4114
      3721.0994       2899.5584
 05  4 27 11  2 44.9980000  0  7G 1G14G28G 7G 9G20G11
  -5883786.15949  -2754030.32245  23959297.3934   23959306.4934   23959297.4544
      8323.6764       6485.9814
  -5364291.98249  -4160607.38746  22693831.4044   22693837.1964   22693830.0784
      6344.1144       4943.4654
  -2531917.61249  -1943363.45345  21366900.5554   21366901.1234   21366899.2354
      2973.1824       2316.7654
  -5940579.59249  -4081836.56347  21092017.4464   21092022.7784   21092016.5604
      7098.4764       5531.2804
  -4576996.28949  -3136973.69946  22029913.3244   22029919.8494   22029911.9224
      5325.0434       4149.3844
  -5615105.86049  -3712765.38545  22729077.5704   22729084.6254   22729078.2684
      8681.2454       6764.6064
  -3187509.74949  -2461752.97747  20622737.1554   20622742.7174   20622737.4444
      3717.2774       2896.5794
 05  4 27 11  2 59.9980000  0  7G 1G14G28G 7G 9G20G11
  -6008634.37049  -2851314.63745  23935542.1864   23935548.2564   23935539.5514
      8322.8834       6485.3634
  -5459409.48249  -4234724.93646  22675732.6674   22675736.2184   22675730.7304
      6338.3044       4938.9384
  -2576487.16149  -1978092.93345  21358420.3744   21358420.8154   21358419.0084
      2969.5724       2313.9524
  -6047037.03749  -4164790.44947  21071759.8964   21071764.7694   21071759.1194
      7095.8564       5529.2384
  -4656814.31349  -3199169.60046  22014721.4004   22014730.2704   22014722.4934
      5317.5484       4143.5444
  -5745316.67049  -3814228.29845  22704300.3484   22704306.5404   22704300.8644
      8680.3244       6763.8894
  -3243236.54749  -2505176.45147  20612133.5884   20612138.1984   20612133.5534
      3713.0924       2893.3184
 05  4 27 11  3 14.9980000  0  7G 1G14G28G 7G 9G20G11
  -6133474.52949  -2948592.68245  23911787.0054   23911791.8404   23911784.2674
      8322.4524       6485.0284
  -5554442.39349  -4308776.51846  22657650.1394   22657651.8884   22657647.1324
      6332.7104       4934.5794
  -2621005.50949  -2012782.48945  21349948.9964   21349948.6944   21349948.8044
      2966.1994       2311.3244
  -6153459.25149  -4247716.80147  21051507.6744   21051513.1114   21051506.8154
      7093.6024       5527.4824
  -4736523.80649  -3261280.91346  21999555.1644   21999561.0844   21999556.7904
      5310.3934       4137.9694
  -5875517.99149  -3915683.83245  22679522.4764   22679530.9834   22679522.8834
      8679.7584       6763.4484
  -3298904.41749  -2548554.03247  20601540.8714   20601544.8014   20601540.1924
      3709.2424       2890.3184
 05  4 27 11  3 29.9980000  0  7G 1G14G28G 7G 9G20G11
  -6258302.05649  -3045860.89045  23888031.3104   23888038.1864   23888030.8714
      8321.3804       6484.1924
  -5649386.63849  -4382758.96246  22639583.5834   22639584.1504   22639580.3584
      6326.6664       4929.8704
  -2665468.82949  -2047429.18945  21341485.8944   21341491.2074   21341486.3894
      2962.3764       2308.3454
  -6259841.80749  -4330612.32447  21031263.8204   21031269.4694   21031263.2264
      7090.8184       5525.3134
  -4816120.63349  -3323304.39346  21984411.5544   21984414.5404   21984411.2024
      5302.6914       4131.9674
  -6005705.36749  -4017128.53645  22654751.1534   22654756.4804   22654750.2904
      8678.6434       6762.5794
  -3354509.37449  -2591882.58247  20590959.1824   20590962.8894   20590958.7514
      3704.8924       2886.9294
 05  4 27 11  3 44.9970000  0  7G 1G14G28G 7G 9G20G11
  -6383108.84249  -3143112.90545  23864280.6964   23864289.0164   23864281.4624
      8320.6574       6483.6294
  -5744236.24149  -4456667.70046  22621534.0564   22621534.4714   22621531.6914
      6320.8264       4925.3194
  -2709874.75749  -2082031.18045  21333034.0044   21333038.2794   21333033.9024
      2958.8834       2305.6234
  -6366178.03249  -4413471.69347  21011028.3674   21011034.0564   21011027.5674
      7088.2574       5523.3174
  -4895600.04049  -3385236.39346  21969288.3544   21969291.0714   21969287.3244
      5295.3104       4126.2164
  -6135870.38549  -4118555.83245  22629980.8484   22629987.8314   22629981.0474
      8677.8194       6761.9374
  -3410048.36849  -2635159.72947  20580389.7624   20580393.8844   20580389.6304
      3700.8434       2883.7744
 05  4 27 11  3 59.9970000  0  7G 1G14G28G 7G 9G20G11
  -6507910.44349  -3240360.87645  23840532.0554   23840540.3284   23840533.4424
      8319.5774       6482.7874
  -5839002.99449  -4530511.89446  22603500.8654   22603501.3914   22603498.4214
      6314.7394       4920.5764
  -2754228.85449  -2116592.84845  21324589.8474   21324599.0774   21324593.3094
      2955.0744       2302.6554
  -6472481.05349  -4496305.21247  20990799.5674   20990805.5754   20990799.5904
      7085.5014       5521.1704
  -4974971.74249  -3447084.43746  21954184.0274   21954188.2144   21954182.6654
      5287.6504       4120.2474
  -6266029.13549  -4219978.26945  22605212.6314   22605219.3114   22605212.1224
      8676.7214       6761.0814
  -3465528.34749  -2678390.93747  20569831.7684   20569836.5844   20569831.7934
      3696.5434       2880.4234
 05  4 27 11  4 14.9970000  0  7G 1G14G28G 7G 9G20G11
  -6632697.33449  -3337597.41145  23816786.6534   23816793.6884   23816785.8404
      8318.5564       6481.9924
  -5933679.33549  -4604285.62846  22585485.1674   22585484.1194   22585482.8254
      6308.6524       4915.8334
  -2798527.54949  -2151111.33045  21316162.2224   21316168.3024   21316159.0854
      2951.3534       2299.7564
  -6578742.97249  -4579106.71147  20970578.2524   20970584.2364   20970577.8354
      7082.6064       5518.9144
  -5054229.62749  -3508843.81846  21939100.2564   21939106.3294   21939099.3264
      5279.9734       4114.2654
  -6396171.74949  -4321388.07245  22580447.2184   22580453.8554   22580447.1754
      8675.5324       6760.1554
  -3520944.90749  -2721572.76947  20559286.4734   20559291.5584   20559286.6824
      3692.2184       2877.0534
 05  4 27 11  4 29.9970000  0  7G 1G14G28G 7G 9G20G11
  -6757467.28449  -3434820.71745  23793043.5974   23793050.3514   23793040.0954
      8317.3334       6481.0394
  -6028263.58049  -4677987.68346  22567486.3274   22567485.0714   22567484.4214
      6302.4084       4910.9674
  -2842769.19949  -2185585.37245  21307742.4334   21307747.4104   21307741.8594
      2947.4224       2296.6924
  -6684961.55649  -4661874.42047  20950365.7674   20950371.0574   20950365.7524
      7079.6584       5516.6174
  -5133371.94649  -3570513.16146  21924037.5684   21924046.4964   21924038.2694
      5272.2264       4108.2284
  -6526296.13749  -4422783.66345  22555685.3514   22555692.5914   22555684.9494
      8674.2314       6759.1414
  -3576296.18949  -2764703.69247  20548754.2104   20548759.0004   20548754.2424
      3687.8114       2873.6194
 05  4 27 11  4 44.9970000  0  7G 1G14G28G 7G 9G20G11
  -6882219.97749  -3532030.57445  23769303.4154   23769311.9014   23769300.7834
      8316.2524       6480.1964
  -6122755.36849  -4751617.63346  22549505.9324   22549503.9344   22549503.3744
      6296.3164       4906.2204
  -2886954.02649  -2220015.12745  21299334.0894   21299338.5984   21299332.4004
      2943.8064       2293.8754
  -6791136.84149  -4744608.38147  20930161.5134   20930166.6644   20930160.9344
      7076.8684       5514.4434
  -5212398.91549  -3632092.64646  21908999.0844   21909007.9794   21909000.3384
      5264.6224       4102.3034
  -6656402.12049  -4524164.90445  22530926.6344   22530935.5484   22530927.2564
      8673.0914       6758.2534
  -3631582.72649  -2807784.15447  20538233.6494   20538238.8604   20538233.8884
      3683.5564       2870.3034
 05  4 27 11  4 59.9970000  0  7G 1G14G28G 7G 9G20G11
  -7006956.25749  -3629227.64745  23745563.9134   23745575.1014   23745563.0834
      8315.2584       6479.4224
  -6217155.61349  -4825176.15846  22531543.0084   22531539.7644   22531539.9364
      6290.4244       4901.6294
  -2931083.58648  -2254401.83544  21290937.8154   21290947.3044   21290937.6794
      2940.1764       2291.0464
  -6897269.75249  -4827309.34447  20909964.8434   20909970.0384   20909964.9274
      7074.1974       5512.3614
  -5291311.45349  -3693582.94246  21893983.3534   21893990.9984   21893983.6654
      5257.1364       4096.4704
  -6786490.40749  -4625532.36645  22506171.8314   22506180.4864   22506171.4314
      8672.0754       6757.4614
  -3686805.74349  -2850815.07347  20527724.8054   20527730.3644   20527724.6144
      3679.5034       2867.1454
 05  4 27 11  5 14.9970000  0  7G 1G14G28G 7G 9G20G11
  -7131674.10749  -3726410.37845  23721827.1804   23721841.0954   23721829.8234
      8313.6084       6478.1364
  -6311462.75749  -4898662.25346  22513597.3774   22513593.5334   22513595.1124
      6283.7544       4896.4324
  -2975156.28349  -2288744.23644  21282552.6074   21282557.8594   21282552.8104
      2935.9534       2287.7564
  -7003358.37949  -4909975.79247  20889776.5884   20889782.6144   20889775.9364
      7070.8114       5509.7234
  -5370107.94749  -3754982.80946  21878990.2304   21878995.8534   21878990.0464
      5248.9744       4090.1104
  -6916558.86249  -4726884.36145  22481420.0424   22481429.2804   22481420.3224
      8670.2514       6756.0404
  -3741963.68249  -2893795.23747  20517228.1514   20517233.9764   20517228.0664
      3674.7794       2863.4644
 05  4 27 11  5 29.9970000  0  7G 1G14G28G 7G 9G20G11
  -7256371.40949  -3823577.09745  23698096.8354   23698111.5274   23698100.4354
      8312.3884       6477.1854
  -6405674.67549  -4972074.12546  22495669.1374   22495665.2004   22495667.2634
      6277.4694       4891.5344
  -3019170.66049  -2323041.22144  21274179.4914   21274182.8314   21274174.1474
      2932.1644       2284.8034
  -7109400.72849  -4992606.19647  20869597.7174   20869603.4314   20869597.7804
      7067.7434       5507.3324
  -5448786.68849  -3816290.93646  21864019.7764   21864023.6914   21864019.0914
      5241.1694       4084.0284
  -7046605.34149  -4828219.24046  22456672.6134   22456682.6794   22456673.1594
      8668.8664       6754.9614
  -3797055.00549  -2936723.53447  20506744.4564   20506750.1794   20506744.7204
      3670.3664       2860.0254
 05  4 27 11  5 44.9970000  0  7G 1G14G28G 7G 9G20G11
  -7381045.69449  -3920725.86245  23674372.8854   23674386.4174   23674375.6824
      8310.9044       6476.0294
  -6499789.18049  -5045410.07846  22477759.3314   22477755.9414   22477757.7224
      6271.1094       4886.5784
  -3063124.97149  -2357291.36144  21265813.2674   21265817.9504   21265813.6204
      2928.3574       2281.8374
  -7215394.73149  -5075198.90047  20849426.7774   20849433.7704   20849426.8664
      7064.6074       5504.8894
  -5527345.65049  -3877505.69046  21849070.2984   21849074.1264   21849069.5114
      5233.3034       4077.8984
  -7176627.51249  -4929535.19345  22431930.5784   22431939.0254   22431930.7004
      8667.3644       6753.7904
  -3852077.83649  -2979598.47547  20496274.3444   20496279.2334   20496274.6724
      3665.9364       2856.5744
 05  4 27 11  5 59.9970000  0  7G 1G14G28G 7G 9G20G11
  -7505697.57249  -4017857.17245  23650653.8694   23650666.1144   23650654.9084
      8309.4924       6474.9294
  -6593807.11149  -5118670.76546  22459868.5214   22459864.7954   22459866.4914
      6264.7164       4881.5974
  -3107020.19549  -2391495.45145  21257460.9674   21257466.4714   21257460.7244
      2924.4594       2278.7994
  -7321340.89149  -5157754.34747  20829266.8424   20829273.2534   20829267.0464
      7061.5204       5502.4834
  -5605785.72249  -3938627.82646  21834142.3554   21834147.0254   21834141.3544
      5225.4284       4071.7624
  -7306625.83849  -5030832.56945  22407193.2244   22407201.0954   22407193.1734
      8665.8294       6752.5944
  -3907033.27149  -3022420.92747  20485817.7614   20485821.3544   20485817.7774
      3661.5154       2853.1284
 05  4 27 11  6 14.9970000  0  7G 1G14G28G 7G 9G20G11
  -7630327.21849  -4114971.16745  23626940.8574   23626950.1494   23626940.4074
      8307.8834       6473.6754
  -6687729.00049  -5191856.60546  22441995.6644   22441992.6124   22441993.8604
      6258.2394       4876.5504
  -3150857.41149  -2425654.31344  21249119.8524   21249122.4584   21249119.8954
      2920.5254       2275.7344
  -7427239.99049  -5240273.08747  20809113.9454   20809120.8014   20809113.6264
      7058.3294       5499.9974
  -5684107.49749  -3999657.79046  21819236.2774   21819243.1804   21819236.1504
      5217.4894       4065.5764
  -7436600.71549  -5132111.68445  22382459.3614   22382466.8514   22382458.4954
      8664.2134       6751.3354
  -3961922.34349  -3065191.68847  20475373.2544   20475376.5324   20475372.8114
      3657.0364       2849.6384
 05  4 27 11  6 29.9970000  0  7G 1G14G28G 7G 9G20G11
  -7754931.48449  -4212065.35845  23603231.4054   23603238.3504   23603229.3004
      8305.9894       6472.1994
  -6781552.04549  -5264965.43846  22424140.5864   22424139.1764   22424139.4584
      6251.5174       4871.3124
  -3194633.96149  -2459765.89644  21240787.0634   21240794.7624   21240785.6404
      2916.3084       2272.4484
  -7533088.87049  -5322752.74147  20788972.4424   20788978.8774   20788971.7214
      7054.7764       5497.2284
  -5762308.41549  -4060593.59146  21804353.4814   21804363.0624   21804354.7804
      5209.2624       4059.1654
  -7566549.17249  -5233370.21945  22357731.4374   22357740.3154   22357730.8284
      8662.2644       6749.8164
  -4016742.35249  -3107908.60347  20464940.6564   20464945.2954   20464940.1414
      3652.2734       2845.9274
 05  4 27 11  6 44.9970000  0  7G 1G14G28G 7G 9G20G11
  -7879509.03249  -4309138.70045  23579524.1464   23579530.7154   23579522.8914
      8304.3354       6470.9104
  -6875275.08549  -5337996.46346  22406304.7914   22406304.6954   22406304.0514
      6244.9354       4866.1834
  -3238349.27449  -2493829.78345  21232471.8344   21232473.6384   21232473.4334
      2912.4064       2269.4074
  -7638886.53449  -5405192.50047  20768838.5904   20768846.3604   20768838.9164
      7051.4484       5494.6354
  -5840387.47349  -4121434.44046  21789497.6594   21789505.6184   21789498.4774
      5201.2554       4052.9264
  -7696469.81449  -5334607.06745  22333008.3244   22333014.1854   22333006.7234
      8660.5224       6748.4594
  -4071492.50849  -3150571.09147  20454521.1144   20454526.8314   20454520.7834
      3647.7254       2842.3834
 05  4 27 11  6 59.9970000  0  7G 1G14G28G 7G 9G20G11
  -8004059.69649  -4406191.10545  23555822.9704   23555831.2424   23555822.0244
      8302.6144       6469.5694
  -6968898.04249  -5410949.53446  22388489.0314   22388489.0374   22388487.8864
      6238.3244       4861.0324
  -3282003.49649  -2527846.05845  21224164.5884   21224169.2994   21224165.2294
      2908.4774       2266.3464
  -7744632.75849  -5487592.21247  20748717.7764   20748722.8194   20748717.3424
      7048.1484       5492.0634
  -5918344.85549  -4182180.46547  21774665.8214   21774672.0774   21774665.5354
      5193.2584       4046.6954
  -7826362.27349  -5435821.91945  22308290.7834   22308296.0584   22308287.6724
      8658.7084       6747.0454
  -4126173.16149  -3193179.40547  20444115.1934   20444121.4114   20444115.4344
      3643.2294       2838.8804
 05  4 27 11  7 14.9970000  0  7G 1G14G28G 7G 9G20G11
  -8128584.86149  -4503223.63345  23532127.1614   23532135.5484   23532125.0014
      8300.7274       6468.0994
  -7062422.14749  -5483825.39346  22370692.2484   22370692.4204   22370690.4444
      6231.5614       4855.7624
  -3325598.85549  -2561816.47445  21215867.6484   21215874.6214   21215867.0944
      2904.2914       2263.0844
  -7850329.12449  -5569952.97347  20728603.7174   20728609.6404   20728603.6234
      7044.6294       5489.3214
  -5996182.27449  -4242833.00047  21759855.4154   21759859.4414   21759853.8044
      5185.0874       4040.3284
  -7956227.88649  -5537015.85945  22283578.4954   22283584.5034   22283576.9034
      8656.7144       6745.4914
  -4180786.30849  -3235735.19347  20433723.6514   20433728.2174   20433723.7844
      3638.5224       2835.2124
 05  4 27 11  7 29.9970000  0  7G 1G14G28G 7G 9G20G11
  -8253082.54049  -4600234.75045  23508435.8394   23508444.8384   23508433.9924
      8298.8094       6466.6044
  -7155846.19849  -5556623.39346  22352913.3654   22352913.7734   22352910.8824
      6224.7824       4850.4794
  -3369133.86649  -2595739.89645  21207583.7464   21207585.0314   21207585.1424
      2900.2804       2259.9584
  -7955973.98849  -5652273.61947  20708500.2164   20708505.6324   20708499.3374
      7041.0884       5486.5624
  -6073898.29449  -4303390.93847  21745065.6884   21745069.8304   21745063.5984
      5176.8774       4033.9304
  -8086064.76949  -5638187.42845  22258871.7904   22258877.8894   22258869.2984
      8654.7004       6743.9224
  -4235330.31649  -3278237.01447  20423345.7164   20423349.0114   20423345.5714
      3633.8554       2831.5754
 05  4 27 11  7 44.9970000  0  7G 1G14G28G 7G 9G20G11
  -8377550.40849  -4697222.64245  23484751.7354   23484759.1814   23484749.1724
      8296.9974       6465.1924
  -7249167.85749  -5629341.59246  22335153.4514   22335155.3464   22335152.0664
      6218.1504       4845.3124
  -3412606.87749  -2629614.98545  21199309.7244   21199309.1044   21199310.6864
      2896.3494       2256.8954
  -8061565.10149  -5734552.39647  20688407.5384   20688412.3314   20688407.1904
      7037.7434       5483.9564
  -6151490.78249  -4363852.60646  21730297.4764   21730303.3214   21730296.2754
      5168.8864       4027.7034
  -8215870.66849  -5739334.83245  22234169.6494   22234176.8994   22234167.6004
      8652.8054       6742.4454
  -4289803.37649  -3320683.52847  20412980.3184   20412982.9234   20412979.8444
      3629.3224       2828.0434
 05  4 27 11  7 59.9970000  0  7G 1G14G28G 7G 9G20G11
  -8501988.38949  -4794187.30645  23461072.8014   23461078.8614   23461071.4324
      8294.6904       6463.3954
  -7342387.46649  -5701980.33746  22317413.4974   22317416.6524   22317413.4244
      6211.0654       4839.7914
  -3456018.43449  -2663442.16545  21191048.9674   21191053.7644   21191049.3164
      2891.9554       2253.4714
  -8167102.73049  -5816789.49047  20668323.1814   20668329.7514   20668322.7164
      7033.8754       5480.9424
  -6228960.15849  -4424218.35646  21715552.5174   21715560.6204   21715553.5064
      5160.4034       4021.0934
  -8345645.57049  -5840458.09545  22209473.5374   22209476.2234   22209468.9814
      8650.4164       6740.5844
  -4344206.17649  -3363075.28347  20402627.0204   20402630.2004   20402626.4244
      3624.3454       2824.1654
 05  4 27 11  8 14.9970000  0  7G 1G14G28G 7G 9G20G11
  -8626394.32049  -4891127.00345  23437399.0424   23437404.9584   23437397.1874
      8292.6034       6461.7694
  -7435502.95449  -5774537.96046  22299694.6004   22299697.4104   22299693.4914
      6204.1834       4834.4284
  -3499366.96949  -2697220.23645  21182801.8084   21182805.8854   21182800.8484
      2887.7664       2250.2074
  -8272584.86549  -5898983.47247  20648251.8774   20648256.5624   20648251.4554
      7030.2124       5478.0874
  -6306304.67349  -4484486.83146  21700836.1124   21700842.3194   21700837.6794
      5152.1324       4014.6484
  -8475387.13749  -5941555.34545  22184784.5384   22184792.8044   22184780.1814
      8648.2724       6738.9134
  -4398537.04749  -3405410.94647  20392286.6684   20392291.1564   20392286.4434
      3619.6354       2820.4954
 05  4 27 11  8 29.9970000  0  7G 1G14G28G 7G 9G20G11
  -8750768.01549  -4988041.56345  23413732.2364   23413737.4714   23413730.0414
      8290.4434       6460.0854
  -7528514.03349  -5847014.07746  22281995.4624   22281999.0014   22281993.9414
      6197.2384       4829.0174
  -3542652.70249  -2730949.38144  21174561.3514   21174567.1604   21174561.8934
      2883.5984       2246.9594
  -8378011.27449  -5981133.89447  20628188.5494   20628194.7844   20628188.4614
      7026.5324       5475.2204
  -6383524.46749  -4544658.11547  21686144.7684   21686148.6054   21686145.0344
      5143.8204       4008.1714
  -8605095.27849  -6042626.66045  22160101.0174   22160106.4414   22160097.8004
      8646.0424       6737.1764
  -4452796.41149  -3447690.93047  20381960.2974   20381966.3584   20381960.7694
      3614.9074       2816.8114
 05  4 27 11  8 44.9960000  0  7G 1G14G28G 7G 9G20G11
  -8875100.59049  -5084924.03545  23390074.1854   23390077.5124   23390070.3844
      8288.2314       6458.3624
  -7621414.75249  -5919404.37846  22264316.5564   22264321.2464   22264315.6744
      6190.2764       4823.5924
  -3585873.04648  -2764627.57544  21166337.4064   21166341.7204   21166335.6054
      2879.6794       2243.9064
  -8483374.76849  -6063235.38047  20608139.2144   20608145.3924   20608139.0214
      7022.7654       5472.2844
  -6460614.35649  -4604728.16547  21671476.1024   21671479.0554   21671475.5144
      5135.4654       4001.6614
  -8734760.91249  -6143664.84445  22135426.7204   22135430.5924   22135426.6214
      8643.7924       6735.4224
  -4506980.76349  -3489912.49547  20371649.7584   20371655.4204   20371650.2904
      3610.0724       2813.0434
 05  4 27 11  8 59.9960000  0  7G 1G14G28G 7G 9G20G11
  -8999409.28949  -5181787.91545  23366418.4904   23366422.6294   23366416.5294
      8286.2914       6456.8504
  -7714217.84549  -5991718.47646  22246656.2124   22246661.6254   22246655.9384
      6183.5014       4818.3124
  -3629034.94358  -2798260.25454  21158123.7004   21158124.0304   21158124.7584
      2875.6144       2240.7384
  -8588690.39649  -6145299.66447  20588098.5274   20588104.2474   20588098.5944
      7019.2544       5469.5494
  -6537585.64149  -4664705.79047  21656828.6764   21656832.3134   21656827.6664
      5127.4134       3995.3874
  -8864401.92649  -6244683.86645  22110757.1934   22110758.5934   22110755.7874
      8641.7504       6733.8314
  -4561098.43149  -3532082.11247  20361353.0054   20361357.5274   20361352.6364
      3605.6114       2809.5674
 05  4 27 11  9 14.9960000  0  7G 1G14G28G 7G 9G20G11
  -9123680.98449  -5278623.01245  23342766.6604   23342774.4384   23342767.2364
      8283.4574       6454.6424
  -7806912.90149  -6063948.49946  22229017.3984   22229022.0734   22229016.1344
      6176.0124       4812.4774
  -3672131.16858  -2831841.77254  21149920.8784   21149918.2684
      2870.7214       2236.9254
  -8693946.24749  -6227317.38647  20568069.5554   20568075.0344   20568069.0654
      7014.9634       5466.2054
  -6614428.60149  -4724583.44946  21642204.3434   21642209.7494   21642203.8264
      5118.5194       3988.4564
  -8994004.67649  -6345673.03345  22086094.3414   22086095.4004   22086094.3394
      8638.8074       6731.5384
  -4615141.42749  -3574193.53947  20351069.5144   20351073.6304   20351069.0884
      3600.3064       2805.4334
 05  4 27 11  9 29.9960000  0  7G 1G14G28G 7G 9G20G11
  -9247915.64149  -5375429.22945  23319124.9484   23319132.2644   23319126.6594
      8281.1594       6452.8514
  -7899500.44149  -6136094.93546  22211399.7174   22211403.6134   22211398.2084
      6168.9344       4806.9624
  -3715162.74248  -2865372.91644  21141735.8274   21141735.1314
      2866.5954       2233.7104
  -8799142.37449  -6309288.39847  20548050.1094   20548056.9784   20548050.2984
      7011.1024       5463.1964
  -6691143.75649  -4784361.51746  21627603.2164   21627612.9784   21627602.6814
      5110.1284       3981.9184
  -9123569.23549  -6446632.46445  22061439.0514   22061440.4884   22061437.4664
      8636.4424       6729.6954
  -4669110.48749  -3616247.41247  20340799.3634   20340803.5704   20340798.7504
      3595.5024       2801.6904
 05  4 27 11  9 44.9960000  0  7G 1G14G28G 7G 9G20G11
  -9372116.28449  -5472208.88245  23295491.8014   23295496.9634   23295491.7834
      8278.7754       6450.9934
  -7991983.17949  -6208159.66246  22193800.9894   22193805.2204   22193799.9394
      6161.9314       4801.5054
  -3758132.79958  -2898856.15654  21133556.0864   21133555.5404
      2862.5364       2230.5484
  -8904282.04349  -6391215.54147  20528043.7794   20528049.9664   20528043.2944
      7007.2724       5460.2124
  -6767734.40949  -4844042.58946  21613027.1784   21613037.5074   21613027.4634
      5101.7594       3975.3974
  -9253098.67449  -6547564.49245  22036789.7764   22036795.1764   22036790.1934
      8633.9524       6727.7554
  -4723008.96149  -3658246.23847  20330542.0164   20330546.9744   20330541.5544
      3590.7444       2797.9824
 05  4 27 11  9 59.9960000  0  7G 1G14G28G 7G 9G20G11
  -9496279.36749  -5568959.32645  23271865.2234   23271869.5704   23271864.3044
      8276.3634       6449.1144
  -8084358.25549  -6280140.84446  22176222.9864   22176228.3684   22176221.8314
      6154.7894       4795.9394
                  -2932289.23244  21125394.9894
      2858.2574       2227.2134
  -9009361.89749  -6473096.10447  20508047.4414   20508053.7834   20508047.1754
      7003.3304       5457.1404
  -6844197.26949  -4903624.06646  21598475.8174   21598487.3354   21598477.1254
      5093.3144       3968.8164
  -9382589.15149  -6648466.15745  22012148.6854   22012155.2644   22012148.3744
      8631.4334       6725.7924
  -4776833.74349  -3700187.63047  20320298.9814   20320304.1774   20320299.0694
      3585.8894       2794.1994
 05  4 27 11 10 14.9960000  0  7G 1G14G28G 7G 9G20G11
  -9620405.67949  -5665681.09645  23248244.1834   23248248.4964   23248242.9834
      8273.7324       6447.0644
  -8176626.03649  -6352038.39746  22158666.1934   22158667.3534   22158664.2344
      6147.3214       4790.1204
                  -2965673.08754  21117240.3754
      2854.0314       2223.9204
  -9114382.76749  -6554930.67447  20488062.5444   20488069.0934   20488062.0094
      6999.2294       5453.9454
  -6920533.63549  -4963106.95846  21583951.1514   21583960.1744   21583952.8934
      5084.7944       3962.1774
  -9512041.57149  -6749338.12845  21987515.1114   21987520.2114   21987515.7894
      8628.7734       6723.7194
  -4830586.39949  -3742072.84547  20310070.0344   20310075.4214   20310070.2594
      3580.9844       2790.3774
 05  4 27 11 10 29.9960000  0  7G 1G14G28G 7G 9G20G11
  -9744493.95949  -5762373.21445  23224631.0454   23224636.8574   23224630.5704
      8271.2524       6445.1314
  -8268784.57249  -6423850.15146  22141129.9934   22141131.8324   22141127.3604
      6140.2734       4784.6284
  -3886660.17758  -2999007.50554  21109101.4914   21109102.9974   21109095.8774
      2849.7224       2220.5634
  -9219343.25349  -6636717.97647  20468090.0964   20468096.0214   20468089.8064
      6995.2654       5450.8564
  -6996742.75849  -5022490.68646  21569452.2864   21569457.0514   21569453.0244
      5076.3254       3955.5784
  -9641454.82749  -6850179.63545  21962889.5934   21962893.6804   21962889.5874
      8626.2084       6721.7214
  -4884266.22049  -3783901.31247  20299855.8964   20299861.0464   20299855.9624
      3576.1934       2786.6444
 05  4 27 11 10 44.9960000  0  7G 1G14G28G 7G 9G20G11
  -9868544.20249  -5859035.71845  23201025.4784   23201031.5054   23201026.4874
      8268.6824       6443.1294
  -8360833.68649  -6495575.89646  22123613.6114   22123616.2044   22123610.0444
      6132.8744       4778.8634
  -3929376.43258  -3032292.94954  21100970.2564   21100973.8044
      2845.6904       2217.4214
  -9324244.14449  -6718458.85847  20448127.5194   20448133.8144   20448126.9414
      6991.3114       5447.7754
  -7072825.10249  -5081775.62246  21554975.4814   21554978.2694   21554974.7364
      5067.8524       3948.9764
  -9770828.90049  -6950990.59445  21938271.0144   21938274.1914   21938269.3994
      8623.5474       6719.6474
  -4937873.68749  -3825673.40347  20289655.6784   20289659.8564   20289655.4854
      3571.3534       2782.8724
 05  4 27 11 10 59.9960000  0  7G 1G14G28G 7G 9G20G11
  -9992555.33449  -5955667.75045  23177428.9324   23177431.5134   23177429.9914
      8266.0894       6441.1084
  -8452774.43449  -6567217.30046  22106116.8914   22106118.9084   22106114.1784
      6125.8284       4773.3724
  -3972029.30458  -3065528.96854  21092851.6024   21092859.5164   21092858.2974
      2841.3634       2214.0494
  -9429084.77649  -6800152.94547  20428177.2484   20428184.0674   20428176.7744
      6987.2924       5444.6434
  -7148779.95849  -5140961.18246  21540521.4174   21540525.1544   21540520.3754
      5059.3974       3942.3874
  -9900162.77749  -7051770.23945  21913659.9754   21913663.1684   21913659.5914
      8620.9134       6717.5954
  -4991408.41949  -3867388.80547  20279468.7314   20279472.5474   20279468.2564
      3566.5374       2779.1204
 05  4 27 11 11 14.9960000  0  7G 1G14G28G 7G 9G20G11
 -10116526.84549  -6052268.89545  23153839.4604   23153839.9774   23153837.8984
      8263.3784       6438.9964
  -8544607.42149  -6638775.33846  22088641.1764   22088643.4764   22088638.8944
      6118.5124       4767.6724
  -4014618.84858  -3098715.66554  21084748.0184   21084751.6294
      2837.1794       2210.7894
  -9533864.21249  -6881799.22147  20408237.9074   20408245.1584   20408237.4354
      6983.2204       5441.4704
  -7224607.21549  -5200047.35546  21526089.9074   21526095.8534   21526088.6484
      5050.8454       3935.7234
 -10029455.84849  -7152518.06745  21889056.0794   21889059.2444   21889056.2444
      8618.0694       6715.3784
  -5044870.40249  -3909047.49347  20269294.9674   20269299.0874   20269294.6554
      3561.6574       2775.3174
 05  4 27 11 11 29.9960000  0  7G 1G14G28G 7G 9G20G11
 -10240457.51549  -6148838.20145  23130257.9054   23130257.3444   23130255.2794
      8260.6204       6436.8474
  -8636330.47949  -6710247.72846  22071186.3714   22071190.0604   22071183.4904
      6111.1834       4761.9614
  -4057144.71658  -3131852.76954  21076649.6444   21076652.3474
      2832.7674       2207.3514
  -9638581.51249  -6963396.99047  20388311.4944   20388317.8004   20388310.8804
      6979.0244       5438.2014
  -7300305.99149  -5259033.42646  21511680.5004   21511692.0454   21511681.1484
      5042.2784       3929.0484
 -10158706.88749  -7253233.16145  21864460.9304   21864463.9974   21864460.8064
      8615.3104       6713.2294
  -5098259.02749  -3950649.01347  20259134.8804   20259139.0904   20259134.5034
      3556.7374       2771.4834
 05  4 27 11 11 44.9960000  0  7G 1G14G28G 7G 9G20G11
 -10364346.52749  -6245375.07345  23106683.4944   23106681.9094   23106679.4664
      8258.1494       6434.9214
  -8727943.25949  -6781634.31946  22053752.7324   22053756.7314   22053750.7084
      6104.1364       4756.4704
                  -3164939.68354  21068579.4834
      2828.9644       2204.3884
  -9743236.52449  -7044946.34747  20368395.7154   20368403.0034   20368395.5164
      6975.1274       5435.1644
  -7375875.98649  -5317919.20246  21497297.1874   21497311.7834   21497302.1364
      5034.0194       3922.6124
 -10287915.13849  -7353914.84545  21839873.3094   21839879.3244   21839872.5824
      8612.7084       6711.2014
  -5151573.93849  -3992193.12547  20248989.3144   20248993.1454   20248989.5264
      3552.1464       2767.9064
 05  4 27 11 11 59.9960000  0  7G 1G14G28G 7G 9G20G11
 -10488195.36449  -6341880.62345  23083112.7784   23083114.4634   23083110.6844
      8255.2644       6432.6734
  -8819447.32349  -6852936.21246  22036339.5434   22036344.4424   22036337.6154
      6096.6494       4750.6364
                  -3197978.27354  21060511.6514
      2824.5004       2200.9094
  -9847830.30849  -7126447.84147  20348492.5344   20348499.2534   20348492.0934
      6970.8394       5431.8234
  -7451319.11749  -5376706.06746  21482946.8534   21482955.7054   21482948.4264
      5025.2964       3915.8154
 -10417082.08849  -7454564.42945  21815294.8784   21815299.3474   21815293.6524
      8609.7354       6708.8844
  -5204817.22249  -4033681.41447  20238857.8574   20238861.5544   20238857.8024
      3547.1524       2764.0154
 05  4 27 11 12 14.9960000  0  7G 1G14G28G 7G 9G20G11
 -10611999.99049  -6438351.72245  23059550.4654   23059556.3834   23059551.6704
      8252.2234       6430.3044
  -8910838.79649  -6924150.37046  22018947.5794   22018953.3464   22018945.0594
      6089.0114       4744.6844
                  -3230965.84854  21052446.2514
      2820.0844       2197.4684
  -9952359.31149  -7207898.84247  20328600.8254   20328607.5604   20328600.6424
      6966.3834       5428.3504
  -7526631.84249  -5435391.30346  21468619.4744   21468623.3684   21468618.2744
      5016.4894       3908.9524
 -10546203.56349  -7555178.56045  21790724.2794   21790726.5224   21790722.4744
      8606.6024       6706.4434
  -5257985.36949  -4075111.14047  20228740.6334   20228744.4014   20228740.3314
      3542.0504       2760.0394
 05  4 27 11 12 29.9960000  0  7G 1G14G28G 7G 9G20G11
 -10735761.06749  -6534788.89145  23035998.9844   23036004.9254   23035999.6584
      8249.2834       6428.0134
  -9002118.44549  -6995277.31646  22001576.0964   22001583.0464   22001574.6464
      6081.6264       4738.9294
                  -3263903.54054  21044404.8154
      2815.8644       2194.1804
 -10056824.46649  -7289300.13647  20308722.2064   20308727.8604   20308721.6194
      6962.2154       5425.1034
  -7601815.14949  -5493975.70547  21454313.0204   21454316.4574   21454312.1424
      5007.9534       3902.3014
 -10675280.47749  -7655757.97145  21766161.5164   21766166.2914   21766160.1214
      8603.6624       6704.1524
  -5311079.74549  -4116483.39947  20218637.1044   20218641.6134   20218636.6094
      3537.1854       2756.2484
 05  4 27 11 12 44.9960000  0  7G 1G14G28G 7G 9G20G11
 -10859478.34149  -6631191.92645  23012457.9214   23012462.5304   23012456.9514
      8246.2404       6425.6424
  -9093286.21249  -7066316.98446  21984225.9384   21984234.4894   21984225.5534
      6074.0364       4733.0154
                    -23637.41043  21036379.7944
      2811.5104       2190.7874
 -10161225.78449  -7370651.74547  20288854.9954   20288860.8224   20288854.8904
      6957.8114       5421.6714
  -7676869.12849  -5552459.32846  21440029.8404   21440034.4234   21440029.0034
      4999.2284       3895.5024
 -10804312.56449  -7756302.45045  21741607.3624   21741613.7594   21741605.1064
      8600.5314       6701.7124
  -5364100.50249  -4157798.28247  20208547.1754   20208551.9294   20208547.0254
      3532.1624       2752.3344
 05  4 27 11 12 59.9960000  0  7G 1G14G28G 7G 9G20G11
 -10983150.50749  -6727559.80845  22988923.6424   22988928.1904   22988922.7834
      8243.1904       6423.2654
  -9184341.14149  -7137268.70046  21966898.3334   21966907.2754   21966898.4644
      6066.4654       4727.1164
                    -56476.23943  21028361.0054
      2807.1804       2187.4134
 -10265561.94049  -7451952.59347  20269000.1254   20269006.2704   20268999.9634
      6953.4454       5418.2694
  -7751792.82949  -5610841.42946  21425769.9254   21425776.5314   21425768.7724
      4990.4494       3888.6624
 -10933298.37349  -7856810.87545  21717062.2194   21717067.7344   21717059.2194
      8597.4324       6699.2984
  -5417046.84149  -4199055.16447  20198471.3984   20198476.4044   20198471.2594
      3527.1784       2748.4504
 05  4 27 11 13 14.9960000  0  7G 1G14G28G 7G 9G20G11
 -11106777.71749  -6823892.72145  22965399.4834   22965401.6344   22965398.1734
      8240.4004       6421.0914
  -9275283.92349  -7208133.23046  21949592.0044   21949601.5244   21949593.0764
      6059.1914       4721.4484
                    -89296.63254  21020355.1494
      2803.1464       2184.2704
 -10369833.22049  -7533202.89747  20249157.5504   20249164.2104   20249157.6504
      6949.3554       5415.0824
  -7826586.73749  -5669122.40946  21411533.9244   21411543.1024   21411533.5034
      4982.0514       3882.1184
 -11062237.96049  -7957283.28445  21692525.8554   21692529.2284   21692524.1014
      8594.5404       6697.0444
  -5469919.42849  -4240254.57747  20188410.0204   20188414.4634   20188409.9574
      3522.5034       2744.8084
 05  4 27 11 13 29.9960000  0  7G 1G14G28G 7G 9G20G11
 -11230358.75449  -6920189.63245  22941882.8114   22941885.6164   22941880.2364
      8237.2884       6418.6664
  -9366113.49549  -7278909.61846  21932307.6884   21932317.2174   21932308.5924
      6051.6304       4715.5564
                   -122066.88944  21012362.4954
      2798.6644       2180.7774
 -10474038.59549  -7614401.82047  20229328.2884   20229334.3744   20229327.8674
      6944.8904       5411.6034
  -7901250.21549  -5727301.78746  21397324.5854   21397334.7194   21397326.2954
      4973.3494       3875.3374
 -11191130.17049  -8057718.79045  21667997.9304   21668002.9044   21667998.3674
      8591.3404       6694.5514
  -5522717.80649  -4281396.20047  20178363.1894   20178366.4434   20178363.1734
      3517.5014       2740.9104
 05  4 27 11 13 44.9950000  0  7G 1G14G28G 7G 9G20G11
 -11353883.97349  -7016442.99145  22918374.3544   22918379.0014   22918372.7864
      8234.0294       6416.1264
  -9456822.54149  -7349592.07746  21915046.6814   21915055.4354   21915047.6134
      6043.8594       4709.5014
                   -154784.28954  21004376.6334
      2794.4094       2177.4624
 -10578170.05449  -7695543.19747  20209513.4944   20209518.7454   20209512.8504
      6940.3044       5408.0294
  -7975777.37349  -5785374.91546  21383143.5824   21383152.2564   21383145.3774
      4964.4924       3868.4354
 -11319965.05349  -8158109.61146  21643481.0164   21643487.7364   21643481.2214
      8587.9314       6691.8944
  -5575437.53849  -4322476.53347  20168330.9314   20168333.7934   20168330.7844
      3512.3924       2736.9294
 05  4 27 11 13 59.9950000  0  7G 1G14G28G 7G 9G20G11
 -11477368.03149  -7112664.30045  22894875.7364   22894880.3174   22894874.2354
      8230.6214       6413.4714
  -9547421.45649  -7420188.63346  21897806.7544   21897815.2034   21897806.9964
      6036.0644       4703.4264
                   -187452.30854  20996407.3194
      2790.0424       2174.0594
 -10682239.79349  -7776636.45447  20189709.5284   20189714.8554   20189709.1624
      6935.6374       5404.3924
  -8050176.82749  -5843348.51746  21368989.1894   21368995.1074   21368989.5634
      4955.5444       3861.4634
 -11448758.03049  -8258467.77446  21618971.7144   21618978.4594   21618972.5784
      8584.4994       6689.2204
  -5628084.28449  -4363499.98647  20158312.6974   20158316.2354   20158312.3834
      3507.2324       2732.9084
 05  4 27 11 14 14.9950000  0  7G 1G14G28G 7G 9G20G11
 -11600802.66849  -7208847.08145  22871387.3614   22871391.3724   22871386.2184
      8227.5084       6411.0454
  -9637904.40649  -7490694.76546  21880588.3984   21880596.3614   21880588.8664
      6028.5094       4697.5394
                    -19060.15353  20988447.5394
      2785.8524       2170.7944
 -10786241.07949  -7857676.36147  20169918.3854   20169924.3664   20169918.0104
      6931.3194       5401.0284
  -8124444.05249  -5901219.05746  21354858.2854   21354863.1174   21354857.4984
      4946.9704       3854.7824
 -11577500.53849  -8358786.61446  21594471.6034   21594478.2354   21594471.4104
      8581.4064       6686.8104
  -5680655.27449  -4404464.39847  20148308.3514   20148312.8544   20148308.2344
      3502.4284       2729.1654
 05  4 27 11 14 29.9950000  0  7G 1G14G28G 7G 9G20G11
 -11724187.52749  -7304991.07345  22847906.7444   22847912.2984   22847905.3274
      8223.8574       6408.2004
  -9728271.34749  -7561110.50146  21863392.2024   21863399.3274   21863391.9584
      6020.4524       4691.2614
                    -51593.24353  20980503.7974
      2780.9114       2166.9444
 -10890173.72449  -7938662.84247  20150140.6694   20150145.8824   20150140.3704
      6926.4184       5397.2094
  -8198579.16849  -5958986.70046  21340751.0914   21340757.6274   21340749.9304
      4937.7744       3847.6164
 -11706192.21849  -8459065.82446  21569980.9704   21569988.0164   21569983.3454
      8577.6134       6683.8544
  -5733150.61049  -4445369.87247  20138318.7084   20138324.0694   20138318.4104
      3497.0554       2724.9784
 05  4 27 11 14 44.9950000  0  7G 1G14G28G 7G 9G20G11
 -11847522.34749  -7401096.10145  22824436.4884   22824441.3314   22824435.6054
      8220.5494       6405.6234
  -9818522.51549  -7631436.07746  21846218.6644   21846225.2004   21846218.2614
      6012.8244       4685.3174
                    -84096.39154  20972571.0214
      2776.8514       2163.7804
 -10994037.68049  -8019595.77147  20130375.9884   20130381.6814   20130375.5364
      6921.8344       5393.6374
  -8272582.06349  -6016651.26846  21326667.9274   21326675.1914   21326667.1684
      4929.0784       3840.8404
 -11834832.77249  -8559305.21445  21545499.9944   21545508.2444   21545501.5074
      8574.2624       6681.2434
  -5785570.73049  -4486216.71547  20128343.4274   20128349.2084   20128343.7044
      3492.0944       2721.1124
 05  4 27 11 14 59.9950000  0  7G 1G14G28G 7G 9G20G11
 -11970806.23249  -7497161.44745  22800976.0244   22800982.0034   22800975.6604
      8217.0954       6402.9314
  -9908657.17549  -7701670.82046  21829065.9174   21829072.7754   21829065.3994
      6004.9804       4679.2054
                   -116550.66154  20964649.2444
      2772.3504       2160.2734
 -11097832.26549  -8100474.66847  20110624.5944   20110629.8364   20110624.0234
      6917.1884       5390.0174
  -8346452.40549  -6074212.57246  21312609.8764   21312617.0934   21312609.4284
      4920.1264       3833.8644
 -11963421.32249  -8659504.07846  21521030.9914   21521039.0064   21521033.4594
      8570.7064       6678.4724
  -5837915.16249  -4527004.58447  20118383.0964   20118387.9954   20118382.7824
      3486.9804       2717.1274
 05  4 27 11 15 14.9950000  0  7G 1G14G28G 7G 9G20G11
 -12094038.24549  -7593186.35545  22777526.7254   22777531.7844   22777525.5374
      8213.9934       6400.5144
  -9998674.50149  -7771814.18346  21811935.0614   21811943.0164   21811935.1584
      5997.4454       4673.3344
                   -148953.76254  20956745.3794
      2768.3584       2157.1624
 -11201556.53349  -8181298.77347  20090886.4634   20090892.1974   20090886.3644
      6912.7994       5386.5974
  -8420189.66049  -6131670.18346  21298575.6234   21298584.7474   21298575.9524
      4911.6684       3827.2744
 -12091956.92949  -8759661.68746  21496571.2194   21496581.1984   21496571.7414
      8567.5634       6676.0234
  -5890183.58349  -4567733.24147  20108436.8644   20108441.4874   20108436.5744
      3482.2684       2713.4564
 05  4 27 11 15 29.9950000  0  7G 1G14G28G 7G 9G20G11
 -12217218.02449  -7689170.57445  22754087.5464   22754091.6874   22754086.2024
      8210.2024       6397.5604
 -10088574.34349  -7841865.94646  21794827.3274   21794834.7254   21794827.1424
      5989.3734       4667.0444
                   -181305.77944  20948850.5834
      2763.6984       2153.5314
 -11305210.51549  -8262068.11847  20071162.0344   20071167.4814   20071161.5394
      6907.8504       5382.7404
  -8493794.04249  -6189024.27146  21284569.2014   21284577.7964   21284569.8384
      4902.4614       3820.0994
 -12220439.07649  -8859777.61645  21472122.0184   21472131.7054   21472122.6184
      8563.5984       6672.9344
  -5942376.32149  -4608402.95547  20098504.7254   20098508.5594   20098504.6814
      3476.9294       2709.2954
 05  4 27 11 15 44.9950000  0  7G 1G14G28G 7G 9G20G11
 -12340346.05749  -7785114.49145  22730658.0024   22730661.6214   22730655.2104
      8206.6734       6394.8104
 -10178357.69849  -7911826.98046  21777742.6104   21777749.5364   21777742.8294
      5981.5904       4660.9794
                    -13512.26843  20940969.1984
      2759.4894       2150.2514
 -11408794.84949  -8342783.17747  20051450.4064   20051455.4494   20051449.9444
      6903.1394       5379.0694
  -8567266.52949  -6246275.58146  21270589.8584   21270597.1254   21270589.9454
      4893.6434       3813.2284
 -12348868.41749  -8959852.37145  21447683.5034   21447692.2854   21447684.3764
      8559.9764       6670.1114
  -5994494.02249  -4649014.16547  20088587.4544   20088590.6204   20088587.2554
      3471.8994       2705.3764
 05  4 27 11 15 59.9950000  0  7G 1G14G28G 7G 9G20G11
 -12463420.01249  -7881016.27545  22707236.2164   22707241.0244   22707234.5014
      8203.0574       6391.9924
 -10268022.37049  -7981695.57546  21760679.7304   21760687.2354   21760679.9454
      5973.6484       4654.7914
                    -45740.05743  20933096.8634
      2754.9724       2146.7314
 -11512307.30849  -8423442.24647  20031752.4154   20031758.0294   20031752.0824
      6898.2894       5375.2904
  -8640605.03849  -6303422.46046  21256636.4644   21256640.9894   21256636.1034
      4884.7154       3806.2714
 -12477242.58549  -9059884.19545  21423256.1954   21423263.0774   21423257.0724
      8556.3654       6667.2974
  -6046535.19949  -4689565.74947  20078684.4344   20078687.8974   20078684.0944
      3466.7624       2701.3734
 05  4 27 11 16 14.9950000  0  7G 1G14G28G 7G 9G20G11
 -12586439.34649  -7976875.44545  22683823.6724   22683831.7124   22683824.7144
      8199.3674       6389.1174
 -10357568.18749  -8051471.52346  21743638.7634   21743648.0634   21743639.9054
      5965.6424       4648.5524
                    -77872.48944  20925234.4394
      2750.5084       2143.2534
 -11615747.59949  -8504045.06747  20012067.9354   20012073.7684   20012067.5134
      6893.4694       5371.5344
  -8713809.63749  -6360464.98846  21242707.1674   21242710.9264   21242707.0674
      4875.7074       3799.2524
 -12605561.17249  -9159872.68746  21398839.5064   21398845.2114   21398839.6054
      8552.5834       6664.3504
  -6098499.80649  -4730057.67847  20068795.6454   20068799.8224   20068795.5604
      3461.6244       2697.3694
 05  4 27 11 16 29.9950000  0  7G 1G14G28G 7G 9G20G11
 -12709401.38049  -8072689.97645  22660425.2374   22660432.3684   22660425.5634
      8195.5924       6386.1764
 -10446992.65049  -8121152.89246  21726622.2264   21726630.4474   21726623.5474
      5957.6644       4642.3364
                   -109936.44754  20917391.4354
      2746.1844       2139.8844
 -11719113.41649  -8584589.85747  19992397.6964   19992404.2294   19992397.2184
      6888.5654       5367.7134
  -8786878.06449  -6417401.39946  21228802.5344   21228805.4304   21228801.6074
      4866.7654       3792.2844
 -12733821.47249  -9259815.75646  21374431.8134   21374436.9264   21374429.9614
      8548.7964       6661.3994
  -6150386.04149  -4770488.50847  20058921.7184   20058926.6774   20058921.5524
      3456.5374       2693.4054
 05  4 27 11 16 44.9950000  0  7G 1G14G28G 7G 9G20G11
 -12832306.73649  -8168460.36345  22637037.8374   22637043.5624   22637037.4034
      8192.0534       6383.4184
 -10536296.64649  -8190740.41046  21709629.1184   21709637.7014   21709629.6864
      5949.7974       4636.2054
                   -141948.45344  20909560.3394
      2741.9744       2136.6034
 -11822405.29849  -8665077.04847  19972742.1404   19972748.7984   19972742.2274
      6883.8584       5364.0454
  -8859811.24349  -6474232.43546  21214922.1854   21214926.4124   21214920.6774
      4857.9414       3785.4094
 -12862023.96749  -9359713.78146  21350036.8854   21350041.0534   21350035.2324
      8545.1674       6658.5724
  -6202194.94049  -4810859.11047  20049062.4234   20049068.0054   20049062.4084
      3451.5734       2689.5374
 05  4 27 11 16 59.9950000  0  7G 1G14G28G 7G 9G20G11
 -12955156.83949  -8264187.68445  22613659.0754   22613667.0864   22613658.2414
      8188.1474       6380.3744
 -10625481.89549  -8260235.43446  21692658.7044   21692666.3384   21692658.8914
      5941.6884       4629.8874
                   -173909.84154  20901735.4424
      2737.3594       2133.0074
 -11925624.94849  -8745507.94947  19953099.9754   19953106.3744   19953099.6114
      6878.8264       5360.1244
  -8932611.01849  -6530959.53846  21201066.8124   21201072.8384   21201067.2604
      4848.8184       3778.3004
 -12990170.23149  -9459567.99446  21325652.3144   21325655.9254   21325649.9954
      8541.1234       6655.4214
  -6253928.31949  -4851170.81347  20039217.9364   20039223.3604   20039218.4164
      3446.3424       2685.4614
 05  4 27 11 17 14.9950000  0  7G 1G14G28G 7G 9G20G11
 -13077947.15649  -8359868.41845  22590290.6374   22590300.7244   22590292.1384
      8184.0344       6377.1694
 -10714544.02449  -8329634.51246  21675710.6024   21675718.6584   21675711.1814
      5933.4254       4623.4484
                     -8055.04843  20893930.9264
      2732.7904       2129.4474
 -12028768.01449  -8825879.17447  19933473.1444   19933479.2344   19933472.7254
      6873.6554       5356.0954
  -9005273.46149  -6587579.65946  21187238.2654   21187247.5334   21187239.1214
      4839.6544       3771.1594
 -13118255.63249  -9559374.79245  21301278.3654   21301282.7574   21301277.3314
      8537.0274       6652.2294
  -6305582.20949  -4891420.59347  20029389.0804   20029393.8804   20029389.2314
      3440.9954       2681.2954
 05  4 27 11 17 29.9950000  0  7G 1G14G28G 7G 9G20G11
 -13200680.50349  -8455504.80845  22566935.9724   22566945.1584   22566936.8294
      8180.1324       6374.1294
 -10803486.10049  -8398940.05846  21658786.4974   21658794.1624   21658786.8294
      5925.2764       4617.0984
                    -39971.75943  20886139.1074
      2728.2734       2125.9274
 -12131837.35949  -8906192.99047  19913860.4004   19913865.5564   19913860.1044
      6868.6104       5352.1644
  -9077801.73449  -6644095.21246  21173438.0964   21173446.4754   21173438.9624
      4830.6084       3764.1104
 -13246282.89749  -9659136.27645  21276914.8444   21276919.7264   21276913.0594
      8533.0304       6649.1144
  -6357160.08949  -4931611.17647  20019574.7514   20019578.7664   20019574.4764
      3435.8284       2677.2694
 05  4 27 11 17 44.9950000  0  7G 1G14G28G 7G 9G20G11
 -13323355.40949  -8551095.67545  22543593.2324   22543600.5224   22543592.2644
      8176.3934       6371.2154
 -10892306.79249  -8468150.95546  21641885.1844   21641891.6764   21641884.9844
      5917.3434       4610.9174
                    -71828.05644  20878355.2234
      2724.0764       2122.6574
 -12234831.88749  -8986448.45447  19894260.5724   19894266.3954   19894260.3964
      6863.7834       5348.4024
  -9150194.87449  -6700505.45646  21159663.8584   21159669.5144   21159663.8514
      4821.7134       3757.1794
 -13374250.62649  -9758851.37445  21252562.3564   21252569.0344   21252561.7434
      8529.1994       6646.1294
  -6408661.06049  -4971741.83247  20009774.2924   20009778.3864   20009774.1854
      3430.8474       2673.3874
 05  4 27 11 17 59.9950000  0  7G 1G14G28G 7G 9G20G11
 -13445970.37049  -8646639.77445  22520260.2754   22520268.4054   22520259.2924
      8172.1724       6367.9264
 -10981005.20949  -8537266.60046  21625007.4094   21625013.5294   21625006.1984
      5908.9644       4604.3884
                   -103625.69244  20870589.4874
      2719.3024       2118.9374
 -12337750.20449  -9066644.57147  19874676.3134   19874682.0964   19874676.1054
      6858.4624       5344.2564
  -9222451.94149  -6756809.66046  21145914.3624   21145919.9124   21145913.5504
      4812.4394       3749.9524
 -13502157.35049  -9858518.95545  21228222.4814   21228227.9754   21228220.8614
      8524.9224       6642.7964
  -6460084.15849  -5011811.80647  19999988.1424   19999992.8214   19999988.2274
      3425.4484       2669.1804
 05  4 27 11 18 14.9950000  0  7G 1G14G28G 7G 9G20G11
 -13568524.06849  -8742136.12545  22496937.7424   22496948.1144   22496935.9674
      8168.1084       6364.7594
 -11069580.26649  -8606286.22146  21608151.8244   21608157.5664   21608151.1084
      5900.8224       4598.0434
                   -135370.70544  20862833.4674
      2714.9734       2115.5634
 -12440591.16949  -9146780.39947  19855106.5274   19855112.0734   19855105.8434
      6853.3864       5340.3014
  -9294571.92649  -6813007.07346  21132190.2574   21132194.8454   21132189.7254
      4803.3834       3742.8964
 -13630001.77249  -9958137.97845  21203894.9324   21203899.7524   21203892.6944
      8520.8144       6639.5954
  -6511428.56549  -5051820.46447  19990216.8404   19990222.7194   19990216.9284
      3420.2704       2665.1454
 05  4 27 11 18 29.9950000  0  7G 1G14G28G 7G 9G20G11
 -13691016.61249  -8837584.79945  22473627.5394   22473638.5484   22473627.0514
      8163.9074       6361.4864
 -11158032.12849  -8675209.78246  21591320.0504   21591325.6084   21591319.5954
      5892.5274       4591.5794
                   -167063.59554  20855087.8044
      2710.4264       2112.0204
 -12543355.17349  -9226856.24347  19835550.5924   19835556.8324   19835550.0794
      6848.1544       5336.2244
  -9366555.50049  -6869098.17646  21118491.3724   21118496.6364   21118490.2194
      4794.1904       3735.7324
 -13757783.99949 -10057708.54745  21179578.9604   21179584.2274   21179576.9924
      8516.5654       6636.2844
  -6562694.97049  -5091768.34347  19980461.5474   19980466.8704   19980462.1144
      3415.0014       2661.0404
 05  4 27 11 18 44.9940000  0  7G 1G14G28G 7G 9G20G11
 -13813440.23349  -8932979.78045  22450330.5874   22450341.9984   22450330.8444
      8160.0944       6358.5154
 -11246355.71649  -8744033.41146  21574513.7514   21574517.6534   21574513.1814
      5884.5704       4585.3794
                     -3756.03343  20847359.2494
      2706.1604       2108.6964
 -12646035.79149  -9306867.07747  19816010.6444   19816017.4424   19816010.3584
      6843.1894       5332.3554
  -9438398.51449  -6925079.76546  21104818.1584   21104824.3984   21104817.5884
      4785.3514       3728.8454
 -13885495.82249 -10157224.24345  21155274.9894   21155280.6924   21155274.9404
      8512.5944       6633.1904
  -6613880.81449  -5131653.42747  19970722.5104   19970726.6484   19970722.4204
      3410.0374       2657.1724
 05  4 27 11 18 59.9940000  0  7G 1G14G28G 7G 9G20G11
 -13935808.92349  -9028331.98145  22427044.7694   22427056.2754   22427044.0814
      8155.7204       6355.1064
 -11334561.28949  -8812765.34046  21557730.0174   21557733.1194   21557728.9944
      5876.1424       4578.8124
                    -35360.29043  20839641.6704
      2701.6854       2105.2094
 -12748644.61949  -9386821.97347  19796484.7504   19796491.5494   19796484.2804
      6837.8714       5328.2114
  -9510108.85349  -6980957.98346  21091171.1314   21091179.8014   21091172.4784
      4776.0254       3721.5784
 -14013152.15249 -10256696.68145  21130981.1064   21130987.5704   21130982.4104
      8508.2304       6629.7904
  -6664991.33949  -5171479.81047  19960997.1114   19961000.6044   19960996.7434
      3404.6854       2653.0014
 05  4 27 11 19 14.9940000  0  7G 1G14G28G 7G 9G20G11
 -14058113.50149  -9123634.23245  22403771.9924   22403782.8874   22403770.6354
      8151.3934       6351.7354
 -11422641.04249  -8881398.98146  21540969.8724   21540971.8254   21540967.7804
      5867.7384       4572.2634
                    -66907.72854  20831931.3814
      2696.9524       2101.5214
 -12851174.17749  -9466715.16247  19776974.7024   19776980.4664   19776974.1664
      6832.5494       5324.0644
  -9581681.10849  -7036728.61846  21077552.9054   21077559.0364   21077553.9604
      4766.8384       3714.4194
 -14140743.24149 -10356118.30545  21106701.1444   21106707.5334   21106701.4744
      8503.8104       6626.3454
  -6716022.62949  -5211244.48447  19951286.2014   19951289.3874   19951286.0544
      3399.3844       2648.8714
 05  4 27 11 19 29.9940000  0  7G 1G14G28G 7G 9G20G11
 -14180354.07849  -9218886.61345  22380511.5324   22380520.8914   22380508.8614
      8147.2174       6348.4814
 -11510595.95249  -8949935.35346  21524232.9274   21524234.4264   21524230.7564
      5859.5604       4565.8914
                    -98398.81454  20824237.8244
      2692.6564       2098.1744
 -12953624.59849  -9546546.64747  19757478.9524   19757484.7124   19757478.5444
      6827.3464       5320.0104
  -9653115.89949  -7092392.10046  21063961.2094   21063965.5754   21063961.2694
      4757.7354       3707.3264
 -14268269.35749 -10455489.29245  21082434.3654   21082439.6574   21082434.2994
      8499.5424       6623.0204
  -6766975.38849  -5250947.94847  19941589.4754   19941593.7674   19941589.0434
      3394.2354       2644.8584
 05  4 27 11 19 44.9940000  0  7G 1G14G28G 7G 9G20G11
 -14302530.48449  -9314089.00045  22357263.0934   22357272.8884   22357260.5214
      8142.9064       6345.1224
 -11598426.41449  -9018375.00946  21507520.2264   21507520.6194   21507517.8324
      5851.0144       4559.2324
                   -129837.90344  20816560.9474
      2688.0374       2094.5744
 -13055995.81849  -9626316.45347  19737998.7274   19738003.9914   19737998.2964
      6821.9614       5315.8144
  -9724413.36249  -7147948.56246  21050395.3624   21050397.3294   21050394.7644
      4748.5124       3700.1394
 -14395730.18849 -10554809.41945  21058179.3494   21058184.5324   21058179.4944
      8495.1334       6619.5844
  -6817849.95649  -5290590.47647  19931907.3804   19931912.5634   19931907.3714
      3388.9384       2640.7314
 05  4 27 11 19 59.9940000  0  7G 1G14G28G 7G 9G20G11
 -14424642.65849  -9409241.33845  22334026.2034   22334035.9084   22334024.0464
      8138.5554       6341.7314
 -11686131.53249  -9086716.43946  21490831.2554   21490831.9744   21490829.8514
      5842.7394       4552.7844
                   -161225.29654  20808895.9644
      2683.7254       2091.2144
 -13158288.15449  -9706024.73047  19718532.2424   19718538.8274   19718531.7194
      6816.7264       5311.7344
  -9795574.03049  -7203398.40146  21036854.6224   21036856.6044   21036853.7204
      4739.4144       3693.0504
 -14523125.66349 -10654078.61545  21033937.7894   21033941.2314   21033937.2414
      8490.7584       6616.1754
  -6868646.75249  -5330172.39847  19922240.9234   19922246.4594   19922240.9774
      3383.7714       2636.7054
 05  4 27 11 20 14.9940000  0  8G 1G14G28G24G 7G 9G20G11
 -14546690.30249  -9504343.36845  22310803.6134   22310811.3824   22310800.2224
      8134.4224       6338.5114
 -11773712.00849  -9154960.80846  21474165.7504   21474164.8084   21474163.4784
      5834.6174       4546.4554
                                  20801243.177
      2679.414        2087.855
   -406175.86155                  20229003.0574
      7975.2514       6214.4814
 -13260501.18849  -9785671.30047  19699082.8834   19699088.0924   19699082.8334
      6811.6124       5307.7504
  -9866597.96649  -7258741.73446  21023338.7034   21023340.8684   21023337.4784
      4730.4544       3686.0684
 -14650455.45849 -10753296.65345  21009708.2944   21009710.5344   21009707.6334
      8486.5454       6612.8924
  -6919365.95549  -5369693.86247  19912590.0694   19912594.5754   19912590.2624
      3378.7664       2632.8054
 05  4 27 11 20 29.9940000  0  8G 1G14G28G24G 7G 9G20G11
 -14668671.21849  -9599393.40945  22287593.8244   22287600.3324   22287590.0314
      8129.7264       6334.8514
 -11861166.09549  -9223106.76846  21457524.2654   21457521.9964   21457522.8094
      5826.0164       4539.7534
    -30822.59553                  20793604.4224
      2674.8074       2084.2654
   -499364.55945                  20206250.1634   20206253.2684
      7970.4294       6210.7244
 -13362633.29149  -9865254.76947  19679647.3644   19679652.5494   19679646.9344
      6805.9494       5303.3374
  -9937483.41749  -7313977.18946  21009847.6204   21009852.9404   21009846.0044
      4721.0024       3678.7034
 -14777717.54849 -10852461.91545  20985491.0594   20985490.5794   20985490.6654
      8481.7954       6609.1914
  -6970006.11949  -5409153.72747  19902953.8784   19902957.9744   19902953.7074
      3373.3004       2628.5454
 05  4 27 11 20 44.9940000  0  8G 1G14G28G24G 7G 9G20G11
 -14790584.83149  -9694391.01045  22264395.4774   22264401.0844   22264391.2864
      8125.3634       6331.4524
 -11948493.23849  -9291153.76846  21440906.3104   21440904.1964   21440904.4214
      5817.6434       4533.2284
    -62077.48644                  20785976.0124
      2670.2254       2080.6954
   -592499.19245                  20183507.7914   20183508.8314
      7965.8664       6207.1684
 -13464683.75449  -9944774.61047  19660227.6844   19660233.2974   19660227.5134
      6800.6474       5299.2054
 -10008230.23649  -7369104.57846  20996383.0404   20996391.3894   20996382.1584
      4711.8664       3671.5844
                 -10951573.86645  20961287.4804
      8477.3184       6605.7024
  -7020567.30249  -5448552.07747  19893332.3334   19893335.6934   19893332.6704
      3368.1414       2624.5254
 05  4 27 11 20 59.9940000  0  8G 1G14G28G24G 7G 9G20G11
 -14912432.06449  -9789336.88246  22241207.9674   22241214.6924   22241205.6894
      8120.8214       6327.9124
 -12035694.85149  -9359103.00246  21424312.2184   21424310.4104   21424311.0554
      5809.1214       4526.5884
    -93319.76444                  20778360.0754
      2665.9084       2077.3314
   -949472.68549   -685580.53345  20160778.0864   20160778.3974   20160771.1194
      7961.2454       6203.5684
 -13566653.86249 -10024231.88847  19640823.4524   19640828.8114   19640823.0164
      6795.2024       5294.9624
 -10078839.85049  -7424125.08146  20982946.1154   20982955.2184   20982946.2674
      4702.6354       3664.3914
                 -11050633.18645  20937097.6234                   20937097.5494
      8472.7084       6602.1104
  -7071050.90349  -5487889.95947  19883724.9764   19883728.7354   19883724.7254
      3362.8834       2620.4284
 05  4 27 11 21 14.9940000  0  8G 1G14G28G24G 7G 9G20G11
 -15034211.65749  -9884230.05846  22218031.8844   22218040.9124   22218031.0274
      8116.3454       6324.4254
 -12122769.92749  -9426953.67146  21407742.0514   21407740.1474   21407739.7654
      5800.7524       4520.0664
   -124510.20454                  20770756.9234
      2661.3034       2073.7424
  -1068857.64349   -778607.83645  20138054.9234   20138060.8424   20138053.3244
      7956.6144       6199.9594
 -13668542.76249 -10103625.98747  19621434.1084   19621440.5104   19621434.1674
      6789.7394       5290.7064
 -10149311.62549  -7479038.15046  20969537.7584   20969544.5454   20969538.0674
      4693.4664       3657.2464
 -15159094.65349 -11149638.91945  20912919.9974   20912919.3504   20912918.6154
      8468.1214       6598.5364
  -7121456.15849  -5527166.78047  19874132.0234   19874137.8764   19874131.8904
      3357.6954       2616.3864
 05  4 27 11 21 29.9940000  0  8G 1G14G28G24G 7G 9G20G11
 -15155922.11749  -9979069.36146  22194871.8544   22194880.6304   22194871.4284
      8111.8844       6320.9494
 -12209717.42649  -9494704.99446  21391196.3714   21391194.3724   21391194.1404
      5792.3794       4513.5424
   -155648.18254                  20763164.1454
      2656.8144       2070.2454
  -1188171.68249   -871579.85145  20115349.1214   20115355.5214   20115349.2894
      7952.0444       6196.3984
 -13770348.70149 -10182955.34647  19602061.3914   19602067.4494   19602060.9534
      6784.4074       5286.5514
 -10219644.59449  -7533843.07846  20956155.7334   20956159.6554   20956155.5214
      4684.4044       3650.1854
 -15286081.94449 -11248590.00245  20888754.3364   20888755.9544   20888751.0934
      8463.6374       6595.0424
  -7171782.20249  -5566381.86647  19864555.3634   19864561.6454   19864555.8914
      3352.5964       2612.4124
 05  4 27 11 21 44.9940000  0  8G 1G14G28G24G 7G 9G20G11
 -15277563.48549 -10073854.80846  22171727.2504   22171732.3584   22171725.1444
      8107.0934       6317.2154
 -12296537.28949  -9562356.76046  21374674.6324   21374673.2824   21374673.1364
      5783.7394       4506.8104
   -186734.11554                  20755584.7034
      2652.5664       2066.9344
  -1307415.04059   -964496.74755  20092657.2214   20092664.0664   20092657.2384
      7947.2164       6192.6364
 -13872072.22749 -10262220.51847  19582704.0814   19582710.4264   19582703.9464
      6778.7534       5282.1454
 -10289839.10049  -7588540.08646  20942799.3074   20942801.5304   20942799.3804
      4675.0224       3642.8744
 -15412999.09149 -11347486.46846  20864602.5924   20864604.8974   20864600.6684
      8458.7574       6591.2394
  -7222029.64349  -5605535.73847  19854995.4084   19855000.5104   19854995.4174
      3347.2254       2608.2274
 05  4 27 11 21 59.9940000  0  8G 1G14G28G24G 7G 9G20G11
 -15399135.46849 -10168586.20946  22148594.3634   22148597.8294   22148591.6004
      8102.6624       6313.7634
 -12383229.70749  -9629909.25946  21358176.8754   21358175.9064   21358175.4144
      5775.3964       4500.3094
    -26361.67353                  20748018.3484
      2648.3634       2063.6594
  -1426587.65349  -1057358.54945  20069980.2174   20069987.6364   20069980.1634
      7942.6264       6189.0594
 -13973713.06249 -10341421.19847  19563362.6204   19563369.3724   19563361.9984
      6773.4164       5277.9864
 -10359895.33849  -7643129.32746  20929468.4454   20929469.1794   20929467.6314
      4665.9494       3635.8044
 -15539845.73849 -11446328.00846  20840464.8684   20840467.1044   20840462.9914
      8454.2274       6587.7094
  -7272198.76549  -5644628.58747  19845449.6904   19845453.8274   19845448.9784
      3342.1684       2604.2874
 05  4 27 11 22 14.9940000  0  8G 1G14G28G24G 7G 9G20G11
 -15520636.69349 -10263262.47846  22125472.8604   22125476.2674   22125471.0184
      8097.6954       6309.8924
 -12469793.75749  -9697361.75146  21341703.4534   21341702.7704   21341701.1024
      5766.6074       4493.4604
    -57288.17553                  20740468.0644
      2643.7864       2060.0934
  -1545688.24549  -1150164.25445  20047315.9654   20047322.5954   20047316.0014
      7937.5584       6185.1104
 -14075270.06849 -10420556.59847  19544037.5874   19544043.6464   19544037.4324
      6767.5734       5273.4344
 -10429812.49649  -7697610.21346  20916162.9424   20916164.5864   20916162.0584
      4656.4794       3628.4254
 -15666620.68149 -11545113.65646  20816340.4064   20816343.0264   20816338.6514
      8449.2564       6583.8364
  -7322288.81049  -5683659.79747  19835917.5134   19835921.5764   19835916.8424
      3336.6654       2599.9994
 05  4 27 11 22 29.9940000  0  8G 1G14G28G24G 7G 9G20G11
 -15642067.23849 -10357883.67946  22102364.5274   22102368.2224   22102364.1004
      8093.1734       6306.3684
 -12556229.35049  -9764713.98646  21325254.5394   21325255.2104   21325253.8274
      5758.2894       4486.9784
    -88166.74954                  20732932.0924
      2639.4324       2056.7004
  -1664716.97649  -1242913.88645  20024665.9414   20024671.3914   20024665.7154
      7933.0224       6181.5764
 -14176743.42649 -10499626.69247  19524727.4914   19524733.9334   19524727.1494
      6762.2624       5269.2954
 -10499591.09949  -7751983.18446  20902882.5114   20902887.1254   20902880.3554
      4647.4884       3621.4194
 -15793323.86749 -11643843.38946  20792229.1454   20792231.4554   20792227.5974
      8444.6804       6580.2704
  -7372300.39049  -5722629.85847  19826398.7454   19826404.5254   19826398.4384
      3331.6664       2596.1034
 05  4 27 11 22 44.9940000  0  8G 1G14G28G24G 7G 9G20G11
 -15763426.21649 -10452449.09646  22079270.0984   22079273.9124   22079271.2694
      8088.0594       6302.3844
 -12642536.58649  -9831966.40246  21308830.6944   21308831.3354   21308830.2354
      5749.4114       4480.0604
   -118993.08054                  20725402.8204
      2634.7234       2053.0314
  -1783672.99949  -1335606.89445  20002029.2354   20002035.3884   20002029.3254
      7927.8374       6177.5354
 -14278132.57149 -10578631.20247  19505434.0454   19505439.9124   19505433.8894
      6756.2414       5264.6034
 -10569230.68949  -7806247.80346  20889627.2544   20889636.2664   20889628.1294
      4637.8844       3613.9364
 -15919954.47649 -11742516.58946  20768132.5534   20768135.5564   20768131.9174
      8439.4894       6576.2254
  -7422233.23049  -5761538.57447  19816895.8184   19816902.3094   19816896.3964
      3326.1074       2591.7724
 05  4 27 11 22 59.9940000  0  8G 1G14G28G24G 7G 9G20G11
 -15884711.86249 -10546957.37246  22056190.4474   22056193.8094   22056190.0084
      8083.2414       6298.6294
 -12728713.45749  -9899117.24046  21292431.7644   21292432.5764   21292431.3814
      5740.7874       4473.3414
   -149766.44054                  20717886.2994
      2630.1794       2049.4904
  -1902554.62949  -1428241.88945  19979406.1524   19979412.9054   19979405.7954
      7922.9484       6173.7264
 -14379435.72549 -10657568.62747  19486156.5504   19486162.5354   19486156.2354
      6750.6574       5260.2524
 -10638729.94449  -7860403.08146  20876402.2104   20876411.1044   20876403.8504
      4628.5964       3606.6984
 -16046510.64049 -11841131.78046  20744049.9694   20744051.9444   20744049.7174
      8434.6234       6572.4344
  -7472085.91549  -5800384.84547  19807410.0774   19807415.4244   19807410.6574
      3320.8384       2587.6664
 05  4 27 11 23 14.9930000  0  8G 1G14G28G24G 7G 9G20G11
 -16005918.26049 -10641403.88146  22033126.8804   22033128.7404   22033126.2114
      8078.3754       6294.8384
 -12814756.75649  -9966163.95146  21276058.1494   21276058.2954   21276056.7564
      5732.1224       4466.5894
   -180487.20654                  20710385.3344
      2625.7984       2046.0764
  -2021356.31449  -1520814.59345  19956799.1064   19956806.1454   19956799.1944
      7918.0584       6169.9154
 -14480648.80849 -10736435.88547  19466896.3374   19466902.0824   19466896.1964
      6744.9844       5255.8324
 -10708087.08549  -7914447.61646  20863207.5914   20863214.1774   20863207.3774
      4619.3194       3599.4694
 -16172986.35049 -11939684.26146  20719982.1564   20719985.0374   20719981.1444
      8429.6724       6568.5764
  -7521857.97549  -5839168.27347  19797940.5424   19797944.5114   19797940.7354
      3315.5694       2583.5604
 05  4 27 11 23 29.9930000  0  8G 1G14G28G24G 7G 9G20G11
 -16127058.62649 -10735798.96146  22010075.0824   22010076.3064   22010074.2944
      8073.6674       6291.1694
 -12900675.46349 -10033113.60346  21259708.6534   21259710.0494   21259707.7494
      5723.6824       4460.0124
    -20980.39353                  20702898.2674
      2621.7344       2042.9104
  -2140091.30749  -1613335.43645  19934204.3774   19934211.3824   19934204.2704
      7913.2634       6166.1794
 -14581782.51049 -10815241.31847  19447651.2084   19447657.1874   19447650.7804
      6739.4304       5251.5044
 -10777308.79949  -7968386.61446  20850036.9004   20850040.8674   20850036.6254
      4610.2364       3592.3924
 -16299395.34849 -12038184.75046  20695927.0254   20695930.7144   20695924.9674
      8424.8744       6564.8374
  -7571553.74549  -5877892.27747  19788484.9934   19788488.3034   19788484.3294
      3310.5224       2579.6284
 05  4 27 11 23 44.9930000  0  8G 1G14G28G24G 7G 9G20G11
 -16248123.79149 -10830135.43446  21987036.6904   21987038.3484   21987035.7314
      8068.3344       6287.0144
 -12986462.90449 -10099960.98046  21243383.7444   21243384.5924   21243382.2514
      5714.6464       4452.9714
    -51593.06853                  20695419.4844
      2616.6314       2038.9334
  -2258750.56249  -1705797.24345  19911623.9774   19911630.0234   19911624.5064
      7907.9604       6162.0474
 -14682829.15149 -10893978.92947  19428422.9874   19428428.4374   19428422.7254
      6733.3634       5246.7764
 -10846389.89249  -8022216.02946  20836891.3794   20836894.9824   20836890.9184
      4600.5754       3584.8644
 -16425728.11549 -12136625.84446  20671885.8924   20671890.3634   20671884.2714
      8419.5114       6560.6584
  -7621169.41449  -5916553.88147  19779043.3054   19779046.5344   19779042.2554
      3304.8964       2575.2444
 05  4 27 11 23 59.9930000  0  8G 1G14G28G24G 7G 9G20G11
 -16369113.76349 -10924413.29146  21964012.4644   21964014.8794   21964012.0414
      8063.3104       6283.0994
 -13072119.50849 -10166706.45446  21227083.5294   21227084.7164   21227082.0104
      5705.8794       4446.1394
    -82104.19354                  20687954.6044
      2612.1824       2035.4664
  -2377334.11049  -1798200.04846  19889059.1584   19889065.2234   19889058.1864
      7902.8974       6158.1024
 -14783788.86049 -10972648.75047  19409210.3014   19409216.2154   19409210.2224
      6727.5184       5242.2224
 -10915330.73849  -8075936.18546  20823771.2284   20823775.6824   20823771.3924
      4591.2214       3577.5754
 -16551984.60249 -12235007.49346  20647859.3844   20647865.1784   20647859.2334
      8414.3834       6556.6624
  -7670705.60249  -5955153.56947  19769614.9854   19769620.0124   19769614.4614
      3299.6104       2571.1254
 05  4 27 11 24 14.9930000  0  8G 1G14G28G24G 7G 9G20G11
 -16490028.09349 -11018632.23346  21941003.6814   21941005.3554   21941002.3944
      8058.2884       6279.1854
 -13157645.00449 -10233349.80246  21210808.2784   21210811.0774   21210806.8134
      5697.1914       4439.3704
   -112563.13754                  20680502.2454
      2607.6874       2031.9644
  -2495841.62049  -1890543.60646  19866508.1444   19866514.6364   19866507.7494
      7897.8104       6154.1384
 -14884661.42849 -11051250.72547  19390015.5764   19390020.7284   19390015.6334
      6721.7444       5237.7234
 -10984131.29549  -8129546.97646  20810677.3044   20810682.1904   20810676.0884
      4581.9034       3570.3144
 -16678164.40849 -12333329.43146  20623848.2774   20623853.8824   20623849.6364
      8409.2674       6552.6764
  -7720162.27549  -5993691.26747  19760201.7744   19760208.8084   19760202.1514
      3294.3164       2566.9994
 05  4 27 11 24 29.9930000  0  8G 1G14G28G24G 7G 9G20G11
 -16610864.38749 -11112790.35846  21918010.0674   21918010.7914   21918009.2714
      8053.1394       6275.1734
 -13243037.22749 -10299889.23046  21194559.5154   21194560.7704   21194559.2554
      5688.3704       4432.4964
   -142968.47154                  20673065.3174
      2603.1414       2028.4214
  -2614270.80549  -1982826.07346  19843971.5634   19843978.5344   19843970.8944
      7892.7074       6150.1614
 -14985444.73249 -11129783.14047  19370836.7934   19370841.7564   19370836.6624
      6715.8604       5233.1384
 -11052789.81649  -8183047.13946  20797609.5884   20797616.9424   20797609.7144
      4572.5134       3562.9974
 -16804265.20449 -12431589.76646  20599851.3214   20599858.1304   20599850.6274
      8404.0894       6548.6414
  -7769537.57949  -6032165.56047  19750806.4834   19750812.9964   19750807.1384
      3289.0024       2562.8594
 05  4 27 11 24 44.9930000  0  8G 1G14G28G24G 7G 9G20G11
 -16731625.21349 -11206889.70446  21895029.9684   21895029.3474   21895028.6324
      8048.2704       6271.3794
 -13328298.86549 -10366326.76146  21178334.8954   21178336.7464   21178332.2454
      5679.8774       4425.8784
   -173322.41644                  20665642.6704
      2599.0194       2025.2104
  -2732624.47649  -2075049.70946  19821449.9124   19821456.4894   19821449.6404
      7887.8144       6146.3494
 -15086141.41349 -11208248.09647  19351674.8454   19351680.3944   19351674.4354
      6710.2314       5228.7514
 -11121309.29149  -8236438.93946  20784570.3274   20784576.0834   20784571.8314
      4563.4304       3555.9194
 -16930289.54149 -12529790.50746  20575868.2794   20575876.8044   20575868.2774
      8399.1554       6544.7964
  -7818834.64949  -6070578.92447  19741427.9124   19741432.9234   19741428.0324
      3283.9334       2558.9094
 05  4 27 11 24 59.9930000  0  8G 1G14G28G24G 7G 9G20G11
 -16852323.85549 -11300940.60446  21872061.1844   21872061.2574   21872060.4504
      8044.2764       6268.2674
 -13413443.99649 -10432673.56846  21162131.9424   21162133.6554   21162130.5144
      5672.2224       4419.9134
    -15715.26443                  20658230.0044
      2595.7484       2022.6614
  -2850916.03649  -2167224.91246  19798939.4454   19798946.4244   19798939.9064
      7883.8004       6143.2214
 -15186765.06149 -11286656.18147  19332526.3114   19332532.0384   19332526.3964
      6705.5064       5225.0704
 -11189703.51049  -8289733.11746  20771557.1124   20771561.9564   20771557.4724
      4555.2424       3549.5394
 -17056250.64049 -12627942.01746  20551898.6374   20551906.9964   20551899.5594
      8395.0584       6541.6044
  -7868067.14649  -6108941.89247  19732060.7794   19732063.9694   19732060.3804
      3279.7934       2555.6834
 05  4 27 11 25 14.9930000  0  8G 1G14G28G24G 7G 9G20G11
 -16972946.79849 -11394932.49746  21849107.0284   21849106.6574   21849105.8414
      8038.7574       6263.9664
 -13498459.14149 -10498919.02146  21145953.7474   21145956.1614   21145952.7424
      5663.0824       4412.7914
    -46027.12243                  20650827.5544
      2590.9124       2018.8924
  -2969132.25449  -2259341.51046  19776443.9074   19776451.1554   19776444.1244
      7878.3474       6138.9724
 -15287302.04549 -11364996.64947  19313394.8194   19313400.6114   19313394.5204
      6699.3564       5220.2774
 -11257959.59549  -8342919.68046  20758570.1414   20758573.1894   20758570.0134
      4545.5734       3542.0054
 -17182135.05449 -12726033.74846  20527943.3764   20527950.8534   20527944.3304
      8389.4604       6537.2424
  -7917222.33549  -6147244.59247  19722706.4714   19722710.2544   19722705.8214
      3274.2164       2551.3374
 05  4 27 11 25 29.9930000  0  8G 1G14G28G24G 7G 9G20G11
 -17093487.85849 -11488860.59245  21826167.4734   21826168.5364   21826166.6254
      8033.3224       6259.7314
 -13583338.64249 -10565058.89046  21129801.9264   21129803.3644   21129800.6854
      5654.0914       4405.7854
    -76266.61444                  20643436.9794
      2586.1964       2015.2184
  -3087266.83849  -2351394.48546  19753963.9284   19753969.9604   19753963.2184
      7872.9024       6134.7294
 -15387746.71749 -11443265.19647  19294280.8524   19294286.7494   19294280.5604
      6693.1944       5215.4764
 -11326071.77049  -8395994.11446  20745610.0044   20745613.4454   20745609.6784
      4536.0374       3534.5744
 -17307936.74649 -12824061.03046  20504004.7684   20504012.7684   20504005.6684
      8384.0304       6533.0104
  -7966294.70149  -6185482.78747  19713366.4364   19713371.1674   19713365.7084
      3268.7314       2547.0634
 05  4 27 11 25 44.9930000  0  8G 1G14G28G24G 7G 9G20G11
 -17213948.12449 -11582725.72346  21803243.5814   21803243.3824   21803243.0014
      8028.0774       6255.6444
 -13668083.63649 -10631093.92146  21113675.2524   21113677.3284   21113673.7774
      5645.2994       4398.9344
   -106449.14244                  20636060.9914
      2582.0114       2011.9574
  -3205320.78149  -2443384.45846  19731498.6964   19731504.3324   19731498.7044
      7867.6544       6130.6394
 -15488100.29449 -11521462.80547  19275183.8684   19275190.0884   19275183.4414
      6687.2224       5210.8224
 -11394041.56649  -8448957.58646  20732676.1344   20732678.7264   20732675.0624
      4526.6914       3527.2924
 -17433656.55149 -12922024.50746  20480081.0024   20480089.1314   20480081.1654
      8378.6784       6528.8404
  -8015285.89949  -6223657.76346  19704041.4884   19704047.8324   19704041.8284
      3263.4374       2542.9384
 05  4 27 11 25 59.9930000  0  8G 1G14G28G24G 7G 9G20G11
 -17334327.10749 -11676527.48845  21780335.5644   21780337.6744   21780334.7664
      8022.3184       6251.1574
 -13752694.26249 -10697024.35646  21097573.9444   21097577.1664   21097572.7414
      5636.0064       4391.6934
   -136578.35044                  20628697.8424
      2577.1024       2008.1314
  -3323294.29049  -2535311.82346  19709049.4964   19709054.8024   19709049.1774
      7861.9964       6126.2314
 -15588362.43949 -11599589.16847  19256104.6664   19256110.8074   19256105.0624
      6680.8274       5205.8394
 -11461868.99449  -8501810.14246  20719768.0594   20719773.3514   20719767.5184
      4516.8714       3519.6404
 -17559294.05349 -13019923.84046  20456173.6634   20456180.9694   20456173.4174
      8372.8694       6524.3144
  -8064195.79149  -6261769.34846  19694734.2884   19694739.6474   19694735.6564
      3257.7294       2538.4904
 05  4 27 11 26 14.9930000  0  8G 1G14G28G24G 7G 9G20G11
 -17454621.17049 -11770263.04745  21757444.3114   21757447.0534   21757443.6854
      8016.8204       6246.8734
 -13837166.79549 -10762847.14946  21081498.9204   21081501.5484   21081497.3044
      5626.9644       4384.6474
   -166651.85654                  20621347.5444
      2572.4854       2004.5344
  -3441183.66449  -2627173.63546  19686615.6684   19686620.9154   19686615.7424
      7856.5384       6121.9784
 -15688529.52949 -11677641.35447  19237043.7414   19237049.6194   19237043.2614
      6674.6504       5201.0264
 -11529550.75949  -8554549.19546  20706887.6524   20706893.6234   20706887.0914
      4507.3374       3512.2114
 -17684845.55749 -13117756.16846  20432282.7754   20432289.0524   20432281.8724
      8367.2884       6519.9654
  -8113021.27249  -6299815.16247  19685445.2544   19685448.4664   19685445.2204
      3252.2854       2534.2484
 05  4 27 11 26 29.9930000  0  8G 1G14G28G24G 7G 9G20G11
 -17574834.03049 -11863935.37145  21734569.7094   21734571.4734   21734568.2454
      8011.4964       6242.7244
 -13921505.21949 -10828565.43246  21065448.9574   21065453.1224   21065448.4614
      5618.1124       4377.7504
    -10539.34253                  20614008.8494
      2568.0924       2001.1114
  -3558992.59449  -2718972.84846  19664197.4864   19664203.7064   19664197.5374
      7851.2434       6117.8524
 -15788605.51849 -11755622.63547  19218000.1604   19218005.9974   19217999.8754
      6668.6644       5196.3624
 -11597091.07449  -8607178.02746  20694032.6554   20694041.0604   20694033.7574
      4498.0144       3504.9464
 -17810314.74649 -13215524.33046  20408407.4074   20408413.3974   20408405.9214
      8361.8734       6515.7454
  -8161766.64849  -6337798.57347  19676170.8304   19676172.8984   19676170.8074
      3247.0344       2530.1564
 05  4 27 11 26 44.9930000  0  8G 1G14G28G24G 7G 9G20G11
 -17694965.09249 -11957543.95245  21711709.4214   21711710.6104   21711706.4294
      8006.0804       6238.5044
 -14005709.45049 -10894179.17246  21049425.6504   21049430.0384   21049426.0094
      5609.2264       4370.8254
    -40529.29553                  20606687.5304
      2563.6554       1997.6534
  -3676720.76249  -2810709.27246  19641795.1494   19641800.4744   19641795.2854
      7845.9344       6113.7154
 -15888590.11349 -11833532.68947  19198974.0084   19198979.5514   19198973.4764
      6662.6684       5191.6894
 -11664489.96449  -8659696.64546  20681207.4044   20681214.6084   20681208.0204
      4488.6314       3497.6354
 -17935701.03249 -13313227.94046  20384549.0704   20384552.7014   20384547.4434
      8356.4134       6511.4914
  -8210432.00749  -6375719.64447  19666910.2104   19666913.5194   19666909.9204
      3241.7854       2526.0664
 05  4 27 11 26 59.9930000  0  8G 1G14G28G24G 7G 9G20G11
 -17815014.82649 -12051089.15245  21688862.9664   21688866.1924   21688862.5454
      8000.4524       6234.1184
 -14089780.21749 -10959688.87246  21033427.6724   21033431.7034   21033427.2894
      5600.0974       4363.7124
    -70466.08454                  20599377.7074
      2558.9614       1993.9964
  -3794368.75049  -2902383.19746  19619407.2234   19619412.7894   19619406.4814
      7840.4074       6109.4084
 -15988484.18149 -11911372.36047  19179964.9854   19179970.6294   19179964.7594
      6656.3974       5186.8034
 -11731748.43249  -8712105.84146  20668409.8224   20668415.7584   20668410.5924
      4479.1044       3490.2114
 -18061005.08149 -13410867.42446  20360703.2974   20360707.2394   20360701.8684
      8350.7424       6507.0724
  -8259018.45649  -6413579.19447  19657662.6204   19657668.3784   19657661.6824
      3236.3574       2521.8374
 05  4 27 11 27 14.9930000  0  8G 1G14G28G24G 7G 9G20G11
 -17934979.79949 -12144568.32645  21666032.2204   21666038.0064   21666031.5944
      7994.9404       6229.8234
 -14173714.47649 -11025092.21046  21017455.4504   21017459.2084   21017454.7544
      5591.1704       4356.7564
   -100348.48154                  20592080.6094
      2554.7344       1990.7024
  -3911932.87449  -2993991.65346  19597035.9514   19597041.4444   19597034.4914
      7834.9094       6105.1244
 -16088284.12649 -11989138.52647  19160973.0264   19160979.6754   19160972.5444
      6650.2804       5182.0364
 -11798863.53749  -8764403.30346  20655639.7634   20655645.0324   20655639.8594
      4469.6474       3482.8424
 -18186223.37949 -13508440.09546  20336875.2884   20336880.0584   20336874.9094
      8345.0994       6502.6754
  -8307523.14349  -6451375.03046  19648429.6774   19648438.5414   19648429.7714
      3231.0204       2517.6784
 05  4 27 11 27 29.9930000  0  8G 1G14G28G24G 7G 9G20G11
 -18054860.91949 -12237982.16445  21643218.7734   21643225.5104   21643219.0224
      7989.4044       6225.5104
 -14257513.34749 -11090390.07846  21001508.5134   21001513.2634   21001508.3334
      5582.2614       4349.8144
   -130178.52454                  20584795.0584
      2550.2524       1987.2094
  -4029414.39049  -3085535.74046  19574679.7604   19574685.3534   19574679.6534
      7829.4824       6100.8954
 -16187990.88849 -12066832.00347  19141999.1534   19142005.8574   19141998.7564
      6644.1484       5177.2584
 -11865836.75849  -8816590.23046  20642896.2084   20642898.5174   20642895.4434
      4460.3234       3475.5764
 -18311356.76649 -13605946.63546  20313063.8794   20313066.8154   20313061.9884
      8339.5354       6498.3394
  -8355947.28549  -6489108.11646  19639214.9474   19639222.6104   19639216.1654
      3225.7224       2513.5504
 05  4 27 11 27 44.9930000  0  8G 1G14G28G24G 7G 9G20G11
 -18174657.00449 -12331329.75745  21620424.0564   21620428.9414   21620423.6274
      7983.7834       6221.1304
 -14341175.86249 -11155581.66146  20985587.1994   20985592.5954   20985586.7814
      5573.1724       4342.7314
   -159955.60544                  20577521.9274
      2545.7304       1983.6864
  -4146811.93849  -3177014.25347  19552339.6904   19552346.2624   19552339.1714
      7823.9344       6096.5724
 -16287603.71849 -12144452.29047  19123043.9024   19123050.0494   19123044.1094
      6637.9024       5172.3914
 -11932667.25549  -8868665.96246  20630178.1124   20630181.9894   20630177.9824
      4450.8114       3468.1644
 -18436404.05449 -13703386.04646  20289267.4704   20289271.7614   20289265.8284
      8333.8284       6493.8924
  -8404290.28149  -6526777.98246  19630018.5804   19630021.7224   19630018.4024
      3220.3784       2509.3854
 05  4 27 11 27 59.9930000  0  8G 1G14G28G24G 7G 9G20G11
 -18294370.81349 -12424613.20445  21597643.3654   21597647.0324   21597640.4034
      7977.9964       6216.6204
 -14424705.28449 -11220669.56846  20969690.9954   20969697.0014   20969690.9234
      5564.0404       4335.6164
     -5475.71143                  20570261.7084
      2541.2664       1980.2074
  -4264128.85449  -3268430.02047  19530014.3914   19530021.1034   19530014.1284
      7818.2774       6092.1644
 -16387125.68549 -12222001.79347  19104105.5284   19104111.5634   19104105.1744
      6631.5674       5167.4554
 -11999358.23449  -8920632.95446  20617486.1464   20617489.6464   20617486.4294
      4441.2574       3460.7204
 -18561368.03449 -13800760.55946  20265487.9894   20265491.6404   20265485.8194
      8327.9784       6489.3344
  -8452555.60349  -6564387.37246  19620835.7674   19620836.0734   19620834.8454
      3214.9474       2505.1544
 05  4 27 11 28 14.9920000  0  8G 1G14G28G24G 7G 9G20G11
 -18413988.08749 -12517821.47545  21574880.5164   21574884.2034   21574879.1414
      7972.1824       6212.0904
 -14508090.10149 -11285644.85846  20953822.6304   20953828.3864   20953822.5904
      5554.8454       4328.4514
    -35147.94143                  20563016.4874
      2536.5564       1976.5374
  -4381350.84849  -3359771.74347  19507707.9214   19507714.6574   19507707.3884
      7812.5284       6087.6844
 -16486543.95449 -12299470.51847  19085187.3614   19085192.4204   19085187.0514
      6625.1784       5162.4764
 -12065899.53449  -8972483.30246  20604821.8464   20604828.2104   20604822.2544
      4431.6734       3453.2524
 -18686234.05049 -13898058.71946  20241726.2904   20241729.8104   20241725.3544
      8322.0704       6484.7304
  -8500734.35349  -6601929.29446  19611667.4194   19611667.9944   19611666.6574
      3209.4864       2500.8984
 05  4 27 11 28 29.9920000  0  8G 1G14G28G24G 7G 9G20G11
 -18533529.05049 -12610970.26145  21552131.1154   21552135.4174   21552128.5344
      7966.5164       6207.6754
 -14591345.86849 -11350519.55946  20937979.8654   20937985.5784   20937979.5214
      5545.8044       4321.4064
    -64774.18644                  20555782.0554
      2532.1264       1973.0854
  -4498498.11549  -3451055.21047  19485415.4304   19485421.6564   19485415.1304
      7806.9494       6083.3374
 -16585876.36549 -12376872.35347  19066284.5254   19066290.1304   19066284.2114
      6618.9334       5157.6104
 -12132304.79749  -9024227.63546  20592183.3474   20592191.6614   20592182.9584
      4422.2194       3445.8854
 -18811022.99849 -13995296.85346  20217979.1664   20217982.5984   20217978.5304
      8316.3194       6480.2494
  -8548837.60849  -6639412.37946  19602513.0104   19602515.9864   19602512.2874
      3204.1514       2496.7414
 05  4 27 11 28 44.9920000  0  8G 1G14G28G24G 7G 9G20G11
 -18652982.87549 -12704051.14045  21529397.4054   21529406.2344   21529396.6834
      7960.9814       6203.3624
 -14674464.51149 -11415287.42346  20922162.3564   20922168.5734   20922162.2694
      5536.9404       4314.4994
    -94350.63754                  20548560.0764
      2528.1224       1969.9654
  -4615560.21149  -3542272.36247  19463139.1544   19463145.2774   19463139.1924
      7801.5824       6079.1554
 -16685113.55949 -12454200.01947  19047400.0624   19047405.8444   19047399.8504
      6612.9294       5152.9324
 -12198567.20049  -9075860.71746  20579573.2324   20579581.2654   20579574.9414
      4413.0504       3438.7404
 -18935723.80949 -14092466.30346  20194249.3064   20194252.2994   20194249.6494
      8310.7634       6475.9194
  -8596859.91349  -6676832.35146  19593373.3414   19593379.0894   19593373.1474
      3199.1034       2492.8084
 05  4 27 11 28 59.9920000  0  8G 1G14G28G24G 7G 9G20G11
 -18772349.94149 -12797064.42345  21506681.5204   21506691.3854   21506682.4024
      7955.0764       6198.7614
 -14757446.49449 -11479948.69046  20906371.7154   20906377.8524   20906371.4134
      5527.7174       4307.3124
   -123875.18154                  20541350.0744
      2523.7024       1966.5214
  -4732537.57149  -3633423.53047  19440879.1284   19440885.2024   19440879.2034
      7795.8184       6074.6634
 -16784255.93949 -12531453.78147  19028533.6464   19028539.9204   19028533.5314
      6606.4454       5147.8794
 -12264687.77649  -9127383.25646  20566992.7994   20567002.4044   20566994.9614
      4403.4774       3431.2814
 -19060336.78749 -14189567.33646  20170535.8934   20170539.9774   20170536.2734
      8304.7824       6471.2594
  -8644802.25849  -6714190.00846  19584249.2874   19584257.3054   19584249.6984
      3193.6474       2488.5564
 05  4 27 11 29 14.9920000  0  8G 1G14G28G24G 7G 9G20G11
 -18891630.51349 -12890010.29145  21483982.0644   21483993.6954   21483983.3054
      7949.0264       6194.0464
 -14840292.64049 -11544504.06746  20890606.9664   20890613.2824   20890605.7464
      5518.4274       4300.0734
   -153348.12254                  20534156.6324
      2518.8174       1962.7154
  -4849430.72649  -3724509.13947  19418635.0774   19418641.3534   19418634.8734
      7789.9154       6070.0644
 -16883304.22049 -12608634.23747  19009685.3594   19009691.4894   19009685.3584
      6599.9084       5142.7854
 -12330667.27649  -9178795.87146  20554439.1944   20554443.6014   20554439.6034
      4393.7974       3423.7384
 -19184862.25349 -14286600.17946  20146839.6524   20146842.0064   20146839.7264
      8298.6634       6466.4914
  -8692665.42649  -6751485.98047  19575142.2494   19575149.1264   19575142.7344
      3188.0984       2484.2324
 05  4 27 11 29 29.9920000  0  7G 1G14G24G 7G 9G20G11
 -19010822.49549 -12982887.14845  21461301.2764   21461311.6924   21461302.2404
      7943.0904       6189.4214
 -14923001.22149 -11608952.33046  20874867.8644   20874874.4274   20874866.8444
      5509.2524       4292.9244
  -4966237.44749  -3815527.35647  19396407.1084   19396414.2324   19396407.0364
      7784.1734       6065.5894
 -16982256.33449 -12685739.75347  18990855.4144   18990861.5024   18990855.3564
      6593.5294       5137.8154
 -12396504.03349  -9230097.22146  20541912.6504   20541917.3554   20541911.6964
      4384.3234       3416.3564
 -19309298.17949 -14383563.25646  20123160.5804   20123162.4934   20123159.9904
      8292.7044       6461.8474
  -8740447.84049  -6788719.04947  19566051.2744   19566055.2984   19566051.0674
      3182.7484       2480.0634
 05  4 27 11 29 44.9920000  0  7G 1G14G24G 7G 9G20G11
 -19129924.42749 -13075693.81945  21438637.6554   21438645.3424   21438638.0134
      7937.1024       6184.7554
 -15005570.98149 -11673292.37946  20859155.1114   20859162.4714   20859154.4904
      5500.0604       4285.7614
  -5082956.56349  -3906477.29047  19374196.0764   19374202.8194   19374196.4444
      7778.3744       6061.0714
 -17081111.17149 -12762769.55447  18972044.8054   18972049.9164   18972044.2104
      6587.0234       5132.7454
 -12462197.14249  -9281286.64346  20529411.3824   20529416.6754   20529412.1314
      4374.8054       3408.9394
 -19433643.01149 -14480455.36346  20099499.1284   20099500.6494   20099498.7164
      8286.6114       6457.0994
  -8788148.66649  -6825888.55747  19556975.0874   19556976.9144   19556974.5394
      3177.3574       2475.8634
 05  4 27 11 29 59.9920000  0  7G 1G14G24G 7G 9G20G11
 -19248936.82849 -13168430.72545  21415990.1964   21415999.6584   21415990.7254
      7930.9554       6179.9654
 -15088002.84349 -11737525.02646  20843468.7364   20843475.7714   20843468.1664
      5490.6184       4278.4044
  -5199588.70749  -3997359.48247  19352001.9354   19352008.2244   19352002.0854
      7772.3574       6056.3824
 -17179869.27349 -12839723.90747  18953251.1344   18953256.9574   18953251.1674
      6580.4184       5127.5984
 -12527747.58449  -9332364.90746  20516937.4784   20516942.6804   20516936.5814
      4365.0664       3401.3504
 -19557897.22649 -14577276.84746  20075855.0344   20075856.8524   20075854.5354
      8280.3854       6452.2484
  -8835768.89749  -6862995.27246  19547913.0764   19547913.1834   19547912.0254
      3171.7904       2471.5254
 05  4 27 11 30 14.9920000  0  7G 1G14G24G 7G 9G20G11
 -19367859.91949 -13261098.05945  21393359.8844   21393368.2344   21393360.2894
      7925.0684       6175.3784
 -15170297.28549 -11801650.54046  20827808.6104   20827815.8564   20827807.9774
      5481.5664       4271.3504
  -5316134.10749  -4088174.07447  19329824.2964   19329830.7054   19329824.3054
      7766.6174       6051.9094
 -17278531.02649 -12916603.21447  18934476.2094   18934482.3824   18934476.1404
      6574.0394       5122.6284
 -12593156.07549  -9383332.58146  20504489.2014   20504494.1284   20504489.4624
      4355.7114       3394.0614
 -19682061.05549 -14674027.92146  20052228.1074   20052229.0494   20052227.6804
      8274.3994       6447.5844
  -8883309.36849  -6900039.83646  19538865.2354   19538867.1914   19538864.7904
      3166.5304       2467.4264
 05  4 27 11 30 29.9920000  0  7G 1G14G24G 7G 9G20G11
 -19486691.90349 -13353694.39145  21370748.2854   21370754.4694   21370747.3884
      7918.9714       6170.6274
 -15252452.97849 -11865667.99046  20812174.4814   20812182.0974   20812174.4054
      5472.2704       4264.1064
  -5432591.08149  -4178919.78147  19307663.3944   19307669.2964   19307663.2674
      7760.7414       6047.3314
 -17377094.89149 -12993406.21947  18915720.3534   18915726.2714   18915720.0234
      6567.5204       5117.5484
 -12658421.37549  -9434188.66246  20492067.5674   20492076.0714   20492066.3774
      4346.1704       3386.6264
 -19806132.82549 -14770707.20046  20028617.6884   20028619.6554   20028616.3484
      8268.2554       6442.7964
  -8930768.85949  -6937021.26146  19529832.7454   19529837.1694   19529832.5544
      3161.1574       2463.2394
 05  4 27 11 30 44.9920000  0  7G 1G14G24G 7G 9G20G11
 -19605433.42249 -13446220.23945  21348152.5874   21348158.6614   21348151.8514
      7913.1244       6166.0714
 -15334470.73649 -11929577.97146  20796566.6384   20796573.5884   20796566.9334
      5463.3404       4257.1484
  -5548960.47949  -4269597.28647  19285519.0814   19285525.0964   19285518.7864
      7755.1074       6042.9414
 -17475561.70149 -13070133.58947  18896982.0614   18896989.0364   18896981.8504
      6561.2214       5112.6404
 -12723544.54649  -9484934.04546  20479672.9724   20479683.5484   20479673.3334
      4336.8454       3379.3604
 -19930112.95249 -14867315.07746  20005025.5034   20005027.8514   20005023.9614
      8262.3364       6438.1844
  -8978148.39049  -6973940.36446  19520816.1804   19520822.8114   19520816.5714
      3156.0264       2459.2414
 05  4 27 11 30 59.9920000  0  7G 1G14G24G 7G 9G20G11
 -19724083.75749 -13538675.01545  21325574.3944   21325579.8784   21325573.0314
      7906.9784       6161.2824
 -15416349.98149 -11993379.94046  20780985.9524   20780992.5814   20780986.2814
      5453.9754       4249.8514
  -5665241.68049  -4360206.06747  19263391.6154   19263397.8064   19263391.3134
      7749.1214       6038.2764
 -17573930.96949 -13146785.07047  18878262.9244   18878269.9634   18878263.0394
      6554.6444       5107.5154
 -12788525.45649  -9535568.55646  20467308.1184   20467317.2514   20467310.4904
      4327.3044       3371.9254
 -20054000.73549 -14963850.96346  19981449.9784   19981452.6684   19981448.1964
      8256.0944       6433.3204
  -9025447.90949  -7010797.10847  19511816.1564   19511823.5204   19511816.5954
      3150.6184       2455.0274
 05  4 27 11 31 14.9920000  0  7G 1G14G24G 7G 9G20G11
 -19842641.62349 -13631057.75345  21303012.5704   21303018.8654   21303012.9684
      7900.9144       6156.5564
 -15498089.97049 -12057073.42846  20765431.0134   20765438.3314   20765432.0464
      5444.8254       4242.7214
  -5781433.37749  -4450745.08747  19241280.8084   19241287.1124   19241280.5234
      7743.2514       6033.7024
 -17672201.36049 -13223359.37647  18859562.4414   18859569.5594   18859562.6954
      6548.1324       5102.4414
 -12853363.26749  -9586091.53646  20454972.6214   20454979.1134   20454974.0724
      4317.8864       3364.5864
 -20177794.86949 -15060313.88446  19957891.5684   19957896.1524   19957890.5264
      8249.9644       6428.5434
  -9072666.63749  -7047590.91047  19502831.6774   19502837.5254   19502832.1084
      3145.3524       2450.9244
 05  4 27 11 31 29.9920000  0  7G 1G14G24G 7G 9G20G11
 -19961106.94649 -13723368.41645  21280468.6184   21280474.6394   21280469.2134
      7894.6424       6151.6694
 -15579691.00049 -12120658.68646  20749903.0234   20749910.2514   20749903.5694
      5435.4924       4235.4484
  -5897535.63249  -4541214.34747  19219187.3374   19219194.0144   19219187.5744
      7737.2174       6029.0004
 -17770373.05249 -13299856.75747  18840881.9514   18840888.2914   18840881.7524
      6541.5154       5097.2844
 -12918058.56149  -9636503.48146  20442663.3694   20442666.5964   20442664.7194
      4308.3404       3357.1484
 -20301495.52249 -15156703.95746  19934351.3434   19934355.6644   19934349.4714
      8243.6814       6423.6484
  -9119805.17449  -7084322.23946  19493862.1304   19493866.5744   19493862.1444
      3139.9614       2446.7234
 05  4 27 11 31 44.9920000  0  7G 1G14G24G 7G 9G20G11
 -20079478.72749 -13815606.17245  21257943.1024   21257949.7424   21257943.6334
      7888.4454       6146.8404
 -15661152.17749 -12184134.89746  20734402.5424   20734407.9004   20734403.1774
      5426.2384       4228.2374
  -6013547.67849  -4631613.32147  19197111.2564   19197117.6544   19197111.3984
      7731.2514       6024.3514
 -17868445.48249 -13376276.84847  18822220.0554   18822225.3374   18822219.5214
      6534.9664       5092.1814
 -12982610.67249  -9686803.79146  20430380.2984   20430383.3874   20430378.5734
      4298.8154       3349.7264
 -20425101.68249 -15253020.42746  19910829.3784   19910835.1534   19910828.3124
      8237.3864       6418.7424
  -9166863.10949  -7120990.76946  19484906.7844   19484910.0634   19484906.6784
      3134.6264       2442.5664
 05  4 27 11 31 59.9920000  0  7G 1G14G24G 7G 9G20G11
 -20197757.23849 -13907771.23545  21235435.9294   21235441.9294   21235435.7034
      7882.1264       6141.9164
 -15742474.38349 -12247502.85146  20718929.1824   20718933.8354   20718928.4804
      5416.8984       4220.9594
  -6129469.97749  -4721942.39947  19175052.3984   19175058.5934   19175052.2384
      7725.1694       6019.6124
 -17966419.14749 -13452619.97847  18803575.8064   18803581.5484   18803575.3654
      6528.2684       5086.9624
 -13047020.46049  -9736993.18346  20418122.5004   20418124.6704   20418121.4014
      4289.2954       3342.3084
 -20548613.52549 -15349263.40446  19887325.5784   19887331.9524   19887325.4484
      8231.0034       6413.7694
  -9213841.26849  -7157597.15446  19475965.7904   19475968.5734   19475966.0054
      3129.2334       2438.3634
 05  4 27 11 32 14.9920000  0  7G 1G14G24G 7G 9G20G11
 -20315941.43749 -13999862.80345  21212946.8554   21212951.7304   21212946.3014
      7875.6034       6136.8344
 -15823656.84749 -12310761.96446  20703481.2104   20703484.6314   20703480.2324
      5407.2734       4213.4594
  -6245301.57349  -4812200.79247  19153010.3064   19153016.4054   19153009.8884
      7718.8774       6014.7094
 -18064292.81949 -13528885.16347  18784951.7344   18784956.7794   18784951.2154
      6521.3324       5081.5574
 -13111287.43149  -9787071.33346  20405892.4994   20405896.3114   20405890.9374
      4279.5324       3334.7004
 -20672030.07949 -15445432.14346  19863839.7644   19863846.6734   19863839.4464
      8224.3564       6408.5894
  -9260739.03649  -7194140.89146  19467040.6724   19467043.7624   19467041.2624
      3123.6154       2433.9864
 05  4 27 11 32 29.9920000  0  7G 1G14G24G 7G 9G20G11
 -20434029.33749 -14091879.35145  21190476.0344   21190480.2554   21190474.2154
      7869.3184       6131.9364
 -15904697.86749 -12373910.88746  20688059.0404   20688063.6974   20688058.1144
      5398.0184       4206.2484
  -6361040.55949  -4902386.98147  19130985.5064   19130991.7994   19130985.3164
      7712.8254       6009.9934
 -18162064.99649 -13605071.26447  18766345.5804   18766350.7504   18766345.3304
      6514.7094       5076.3974
 -13175410.07049  -9837037.03346  20393688.7234   20393694.1474   20393689.0234
      4270.0284       3327.2954
 -20795349.28949 -15541525.02546  19840372.5154   19840379.2944   19840372.0124
      8218.0384       6403.6664
  -9307555.04149  -7230620.90746  19458132.4314   19458136.3094   19458132.6954
      3118.3304       2429.8684
 05  4 27 11 32 44.9910000  0  7G 1G14G24G 7G 9G20G11
 -20552013.13749 -14183814.76745  21168022.6624   21168029.0714   21168022.3434
      7862.7204       6126.7954
 -15985592.67949 -12436945.97746  20672665.3654   20672670.1004   20672665.0564
      5388.4874       4198.8214
  -6476679.51149  -4992495.21247  19108979.7334   19108986.4884   19108979.5864
      7706.5404       6005.0964
 -18259729.36749 -13681173.37647  18747760.8034   18747766.1444   18747760.6274
      6507.8044       5071.0164
 -13239384.78449  -9886887.45646  20381514.5854   20381521.1574   20381514.4944
      4260.3024       3319.7164
 -20918563.04649 -15637535.75446  19816926.1124   19816933.2784   19816926.2564
      8211.4274       6398.5154
  -9354286.80449  -7267035.27946  19449240.3994   19449245.3784   19449240.3234
      3112.8084       2425.5654
 05  4 27 11 32 59.9910000  0  7G 1G14G24G 7G 9G20G11
 -20669908.17049 -14275681.02445  21145586.1764   21145593.8384   21145588.4044
      7856.3574       6121.8374
 -16066351.48049 -12499874.94446  20657298.6194   20657302.1004   20657296.9764
      5379.1864       4191.5744
  -6592233.48049  -5082537.23247  19086990.1994   19086997.4424   19086990.1454
      7700.4624       6000.3604
 -18357298.75949 -13757201.44247  18729193.6434   18729198.9904   18729193.6404
      6501.0834       5065.7794
 -13303220.17149  -9936629.34746  20369368.1684   20369374.1824   20369368.6854
      4250.8304       3312.3354
 -21041687.26749 -15733476.72246  19793495.8534   19793502.8564   19793496.5904
      8204.9644       6393.4784
  -9400940.65449  -7303388.94646  19440362.7514   19440368.5974   19440362.4314
      3107.4794       2421.4124
 05  4 27 11 33 14.9910000  0  7G 1G14G24G 7G 9G20G11
 -20787706.70649 -14367472.08645  21123168.9334   21123177.4434   21123170.8704
      7849.8844       6116.7934
 -16146969.86849 -12562694.62746  20641957.2804   20641960.4984   20641956.5884
      5369.7314       4184.2064
  -6707695.05849  -5172507.29847  19065018.9964   19065025.8164   19065018.9254
      7694.2044       5995.4844
 -18454766.90449 -13833150.61647  18710646.5094   18710651.9654   18710646.0504
      6494.2944       5060.4894
 -13366912.51349  -9986259.74646  20357248.9194   20357253.4764   20357248.2204
      4241.2484       3304.8694
 -21164713.92149 -15829341.64746  19770084.8404   19770090.9834   19770084.7694
      8198.3814       6388.3494
  -9447514.26449  -7339680.07046  19431499.8514   19431506.0974   19431499.6794
      3102.0744       2417.2014
 05  4 27 11 33 29.9910000  0  7G 1G14G24G 7G 9G20G11
 -20905407.68549 -14459187.12446  21100772.0904   21100778.8894   21100773.1184
      7843.3544       6111.7044
 -16227447.41149 -12625404.82546  20626642.0034   20626646.9794   20626642.1884
      5360.4024       4176.9374
  -6823063.24349  -5262404.58147  19043065.2564   19043071.9294   19043065.3954
      7688.0394       5990.6804
 -18552133.12949 -13909020.44547  18692118.1644   18692123.8294   18692118.1574
      6487.5454       5055.2304
 -13430461.36549 -10035778.32646  20345155.9834   20345161.6104   20345156.6754
      4231.7664       3297.4804
 -21287641.91649 -15925129.70146  19746692.9364   19746698.5734   19746692.5424
      8191.8344       6383.2474
  -9494007.05149  -7375908.22546  19422652.5544   19422657.9144   19422652.5634
      3096.7374       2413.0424
 05  4 27 11 33 44.9910000  0  7G 1G14G24G 7G 9G20G11
 -21023011.92049 -14550826.77045  21078393.4054   21078399.6684   21078394.0774
      7837.4534       6107.1064
 -16307783.91749 -12688004.75646  20611353.8474   20611359.4784   20611353.9694
      5351.3954       4169.9184
  -6938338.97549  -5352229.82047  19021128.7374   19021135.6344   19021128.9504
      7682.3084       5986.2144
 -18649398.11949 -13984811.32447  18673608.8284   18673615.1744   18673608.7184
      6481.2754       5050.3444
 -13493868.07149 -10085186.14246  20333090.0654   20333095.7264   20333089.2824
      4222.7304       3290.4394
 -21410472.03549 -16020841.47446  19723319.1754   19723325.4514   19723318.4204
      8185.7534       6378.5094
  -9540420.33649  -7412074.43046  19413819.7784   19413823.9264   19413819.9434
      3091.9194       2409.2884
 05  4 27 11 33 59.9910000  0  7G 1G14G24G 7G 9G20G11
 -21140517.70449 -14642389.71045  21056032.1914   21056038.8074   21056032.6914
      7830.6054       6101.7704
 -16387978.23549 -12750493.66346  20596092.9964   20596099.3484   20596093.0474
      5341.7324       4162.3894
  -7053520.61549  -5441981.74447  18999210.4854   18999217.3714   18999210.1554
      7675.7864       5981.1324
 -18746560.52549 -14060522.30247  18655119.5484   18655125.7124   18655119.7244
      6474.2004       5044.8314
 -13557131.39949 -10134482.24246  20321051.4124   20321055.9924   20321049.7974
      4212.9104       3282.7874
 -21533202.58749 -16116475.64346  19699964.3084   19699971.1374   19699963.7074
      8178.8754       6373.1494
  -9586753.02449  -7448177.85746  19405003.0404   19405006.9494   19405002.6684
      3086.3164       2404.9224
 05  4 27 11 34 14.9910000  0  7G 1G14G24G 7G 9G20G11
 -21257924.01849 -14733875.14145  21033689.3364   21033696.7584   21033690.7074
      7823.7724       6096.4464
 -16468030.13849 -12812871.56146  20580859.9634   20580865.9274   20580859.9084
      5332.0794       4154.8674
  -7168607.27249  -5531659.65947  18977310.4194   18977317.1054   18977310.2414
      7669.3144       5976.0894
 -18843619.53949 -14136152.72647  18636650.6434   18636656.2844   18636650.3764
      6467.1554       5039.3424
 -13620250.80249 -10183666.21246  20309038.2004   20309044.2864   20309038.7474
      4203.2264       3275.2414
 -21655832.58149 -16212031.47246  19676628.7654   19676634.7604   19676628.3294
      8171.9834       6367.7794
  -9633004.53149  -7484218.01446  19396201.5304   19396204.0444   19396201.4034
      3080.7484       2400.5834
 05  4 27 11 34 29.9910000  0  7G 1G14G24G 7G 9G20G11
 -21375231.74049 -14825283.75945  21011366.0124   21011374.7314   21011367.7804
      7817.3694       6091.4564
 -16547941.19449 -12875139.88246  20565653.4614   20565659.4524   20565653.7704
      5322.9204       4147.7304
  -7283600.05749  -5621264.42247  18955428.0924   18955434.8234   18955427.9864
      7663.2184       5971.3394
 -18940576.26049 -14211703.51447  18618200.3814   18618205.6524   18618199.8684
      6460.4994       5034.1554
 -13683227.72649 -10232739.13446  20297053.7654   20297061.6714   20297054.2524
      4193.8944       3267.9694
 -21778362.86749 -16307509.60147  19653312.6364   19653318.0724   19653311.9204
      8165.5294       6362.7504
  -9679176.34349  -7520196.06746  19387415.7064   19387418.3684   19387416.0824
      3075.6344       2396.5984
 05  4 27 11 34 44.9910000  0  7G 1G14G24G 7G 9G20G11
 -21492440.64149 -14916615.38345  20989062.7554   20989070.9994   20989063.5874
      7810.5664       6086.1554
 -16627711.08549 -12937298.13946  20550474.1604   20550480.3094   20550473.6304
      5313.1664       4140.1294
  -7398498.86949  -5710795.95247  18933563.4484   18933570.2054   18933563.5124
      7656.6994       5966.2594
 -19037430.66249 -14287174.58247  18599769.4314   18599775.6654   18599768.8734
      6453.4304       5028.6474
 -13746062.47349 -10281701.28546  20285097.3824   20285102.8864   20285097.0204
      4184.1594       3260.3844
 -21900793.23349 -16402909.86347  19630015.7804   19630020.5114   19630015.1404
      8158.5854       6357.3394
  -9725268.79649  -7556112.28646  19378645.3624   19378649.0894   19378645.6494
      3070.1084       2392.2924
 05  4 27 11 34 59.9910000  0  7G 1G14G24G 7G 9G20G11
 -21609547.18849 -15007867.22046  20966779.5194   20966786.9864   20966779.7814
      7803.6394       6080.7584
 -16707336.88149 -12999344.18546  20535322.2394   20535328.0964   20535322.4504
      5303.5484       4132.6354
  -7513300.26649  -5800251.57247  18911717.5024   18911724.5664   18911717.6594
      7650.1224       5961.1344
 -19134179.08149 -14362562.99647  18581358.7914   18581364.7784   18581358.4994
      6446.2554       5023.0564
 -13808752.21049 -10330550.41346  20273168.4344   20273175.0104   20273167.2234
      4174.4264       3252.7994
 -22023120.21449 -16498229.58147  19606738.2554   19606742.1744   19606737.6044
      8151.6444       6351.9304
  -9771278.89149  -7591964.32046  19369891.0554   19369895.1824   19369890.9724
      3064.5534       2387.9634
 05  4 27 11 35 14.9910000  0  7G 1G14G24G 7G 9G20G11
 -21726555.78549 -15099042.72146  20944514.3604   20944520.8254   20944514.0074
      7797.1514       6075.7024
 -16786823.30149 -13061281.63146  20520197.6084   20520202.1934   20520197.0024
      5294.2574       4125.3954
  -7628008.60049  -5889634.66747  18889889.2514   18889895.9994   18889888.9684
      7643.9334       5956.3114
 -19230826.45049 -14437872.66347  18562966.7684   18562973.2704   18562966.5894
      6439.5514       5017.8324
 -13871301.69249 -10379290.26246  20261267.8954   20261269.1254   20261267.1464
      4165.1044       3245.5364
 -22145348.09749 -16593472.07047  19583479.0824   19583483.6704   19583478.0934
      8145.0374       6346.7824
  -9817211.52949  -7627755.99446  19361150.6574   19361154.5134   19361149.8324
      3059.4254       2383.9684
 05  4 27 11 35 29.9910000  0  7G 1G14G24G 7G 9G20G11
 -21843463.56449 -15190139.64846  20922268.5974   20922274.1964   20922266.7984
      7790.6164       6070.6104
 -16866167.63849 -13123108.38046  20505099.5974   20505103.1154   20505099.0864
      5285.0104       4118.1904
  -7742621.13349  -5978943.11347  18868079.0074   18868085.7004   18868078.8784
      7637.7554       5951.4974
 -19327369.80549 -14513101.26147  18544595.3664   18544601.7334   18544595.4514
      6432.8234       5012.5894
 -13933708.46249 -10427918.93646  20249391.2944   20249396.3064   20249392.6534
      4155.8284       3238.3084
 -22267474.01349 -16688635.10547  19560239.0434   19560243.6984   19560238.2774
      8138.4324       6341.6354
  -9863064.45949  -7663485.56346  19352424.1594   19352429.5644   19352423.4994
      3054.3114       2379.9834
 05  4 27 11 35 44.9910000  0  7G 1G14G24G 7G 9G20G11
 -21960268.90649 -15281156.76746  20900042.2174   20900048.3014   20900039.7324
      7783.4134       6064.9974
 -16945368.57149 -13184823.40446  20490028.6174   20490031.8074   20490027.6484
      5275.1104       4110.4754
  -7857136.42149  -6068175.79147  18846287.5344   18846294.2104   18846287.8084
      7630.9504       5946.1954
 -19423807.83449 -14588247.80947  18526244.2024   18526250.3324   18526244.0854
      6425.4874       5006.8734
 -13995971.46349 -10476435.56346  20237541.8554   20237546.0144   20237541.7634
      4145.9244       3230.5904
 -22389496.37949 -16783717.46747  19537019.0064   19537023.8314   19537018.2444
      8131.1944       6335.9954
  -9908836.53849  -7699152.11346  19343712.2374   19343719.0024   19343712.2724
      3048.6184       2375.5464
 05  4 27 11 35 59.9910000  0  7G 1G14G24G 7G 9G20G11
 -22076969.76349 -15372092.47446  20877836.1954   20877841.6964   20877833.1884
      7776.5024       6059.6124
 -17024424.22649 -13246425.15046  20474984.5934   20474987.6564   20474984.8044
      5265.4844       4102.9754
  -7971552.65249  -6157331.29047  18824514.9854   18824521.6604   18824514.7924
      7624.3744       5941.0714
 -19520138.67549 -14663310.81147  18507912.4934   18507918.9214   18507912.3584
      6418.3984       5001.3494
 -14058089.20149 -10524838.95846  20225722.2844   20225727.8284   20225720.9584
      4136.2984       3223.0894
 -22511413.00349 -16878717.43747  19513819.3004   19513823.5054   19513818.3694
      8124.1774       6330.5284
  -9954526.28449  -7734754.52046  19335017.7164   19335023.0014   19335018.2264
      3043.1864       2371.3144
 05  4 27 11 36 14.9910000  0  7G 1G14G24G 7G 9G20G11
 -22193566.57149 -15462947.09446  20855649.3444   20855654.3044   20855645.9144
      7769.6324       6054.2594
 -17103335.89349 -13307914.77046  20459968.4734   20459971.3664   20459967.3954
      5255.9534       4095.5484
  -8085870.36249  -6246410.03547  18802761.1864   18802767.4224   18802761.0784
      7617.8804       5936.0104
 -19616363.12949 -14738290.96047  18489602.3084   18489608.1054   18489602.2204
      6411.3444       4995.8524
 -14120062.73449 -10573130.04946  20213927.4084   20213934.7304   20213928.8484
      4126.7574       3215.6554
 -22633224.65549 -16973635.60147  19490638.9924   19490643.6494   19490638.1274
      8117.2484       6325.1284
 -10000134.75649  -7770293.59846  19326340.2424   19326343.8294   19326340.1844
      3037.8224       2367.1344
 05  4 27 11 36 29.9910000  0  7G 1G14G24G 7G 9G20G11
 -22310059.01249 -15553720.40046  20833482.1844   20833487.2764   20833479.0844
      7762.5814       6048.7644
 -17182103.23849 -13369291.89046  20444979.2624   20444983.0264   20444978.2594
      5246.2484       4087.9854
  -8200089.37149  -6335411.87447  18781026.1514   18781032.3224   18781025.7064
      7611.1924       5930.7994
 -19712480.89949 -14813187.94247  18471311.6194   18471317.4304   18471311.3374
      6404.1504       4990.2474
 -14181892.21949 -10621308.91646  20202157.7264   20202168.6874   20202160.7194
      4117.0384       3208.0814
 -22754930.88149 -17068471.61746  19467478.7414   19467482.6004   19467477.7444
      8110.1074       6319.5644
 -10045662.07349  -7805769.45246  19317678.5614   19317680.2824   19317678.0534
      3032.3384       2362.8614
 05  4 27 11 36 44.9910000  0  7G 1G14G24G 7G 9G20G11
 -22426446.82249 -15644412.17946  20811334.7154   20811340.0804   20811331.4084
      7755.7374       6043.4314
 -17260726.56649 -13430556.89546  20430018.6434   20430021.3754   20430018.3454
      5236.7714       4080.6014
  -8314209.46349  -6424336.64847  18759309.7874   18759316.0424   18759309.4104
      7604.7344       5925.7674
 -19808491.88549 -14888001.72947  18453041.4584   18453046.8004   18453041.3524
      6397.1624       4984.8014
 -14243578.03249 -10669375.75646  20190419.7104   20190431.9024   20190419.7894
      4107.5724       3200.7054
 -22876531.28749 -17163225.17746  19444338.2504   19444342.7294   19444337.1824
      8103.1894       6314.1734
 -10091108.62149  -7841182.37847  19309031.2324   19309032.8974   19309030.0874
      3027.1074       2358.7854
 05  4 27 11 36 59.9910000  0  7G 1G14G24G 7G 9G20G11
 -22542726.77549 -15735019.90846  20789208.2794   20789212.5674   20789205.1284
      7748.5524       6037.8334
 -17339202.75549 -13491707.14246  20415086.4034   20415087.7454   20415084.7704
      5227.0214       4073.0034
  -8428227.56449  -6513181.93047  18737612.8504   18737619.1434   18737612.7654
      7597.9824       5920.5054
 -19904393.30949 -14962730.17747  18434792.2024   18434797.6904   18434791.7184
      6389.8914       4979.1364
 -14305117.44949 -10717328.57246  20178711.5734   20178718.4404   20178712.2224
      4097.9284       3193.1914
 -22998022.80249 -17257893.89946  19421218.6604   19421222.6234   19421218.6284
      8095.9734       6308.5504
 -10136471.79349  -7876530.32047  19300398.3184   19300401.3114   19300397.4454
      3021.5904       2354.4864
 05  4 27 11 37 14.9900000  0  7G 1G14G24G 7G 9G20G11
 -22658892.23649 -15825538.44546  20767102.7764   20767107.0364   20767098.8424
      7741.7634       6032.5424
 -17417528.21349 -13552739.92246  20400182.2324   20400183.6694   20400179.9594
      5217.6534       4065.7044
  -8542137.27049  -6601942.74747  18715936.4954   18715942.5594   18715936.4714
      7591.5674       5915.5074
 -20000179.68249 -15037368.86647  18416564.9784   18416570.3224   18416564.5834
      6382.9824       4973.7524
 -14366507.86549 -10765165.24746  20167030.3994   20167037.9804   20167032.4894
      4088.6264       3185.9424
 -23119398.38449 -17352472.27346  19398121.2004   19398126.0974   19398121.1354
      8089.0944       6303.1904
 -10181750.12849  -7911812.14347  19291781.0724   19291785.2224   19291779.9504
      3016.4784       2350.5024
 05  4 27 11 37 29.9900000  0  7G 1G14G24G 7G 9G20G11
 -22774958.07649 -15915979.34246  20745016.1394   20745021.3254   20745012.7314
      7734.1944       6026.6454
 -17495712.99549 -13613663.07146  20385304.5214   20385305.0254   20385301.7964
      5207.5354       4057.8194
  -8655953.40549  -6690630.66647  18694277.9754   18694284.3014   18694277.7834
      7584.4054       5909.9264
 -20095863.67149 -15111927.78947  18398356.2674   18398362.2844   18398356.3214
      6375.2884       4967.7574
 -14427757.55349 -10812892.29046  20155375.3504   20155379.1254   20155377.0024
      4078.5234       3178.0704
 -23240673.57049 -17446972.43146  19375043.3164   19375047.4804   19375043.4004
      8081.4264       6297.2154
 -10226949.71049  -7947032.59346  19283177.7404   19283185.3644   19283177.2474
      3010.6184       2345.9364
 05  4 27 11 37 44.9900000  0  7G 1G14G24G 7G 9G20G11
 -22890917.17649 -16006337.05246  20722948.7404   20722955.3624   20722946.8684
      7727.1854       6021.1834
 -17573752.92849 -13674473.36446  20370453.6244   20370454.9474   20370450.9564
      5197.9564       4050.3554
  -8769669.01949  -6779240.25247  18672638.7284   18672644.9394   18672638.7764
      7577.8034       5904.7824
 -20191439.68349 -15186402.60447  18380169.0044   18380175.0284   18380168.6074
      6368.2054       4962.2384
 -14488863.64949 -10860507.36946  20143749.3384   20143753.5524   20143746.6544
      4069.0584       3170.6954
 -23361841.03449 -17541388.62246  19351985.8014   19351990.8704   19351985.5934
      8074.3414       6291.6944
 -10272068.49949  -7982190.07646  19274590.6404   19274599.3154   19274591.3124
      3005.3594       2341.8384
 05  4 27 11 37 59.9900000  0  7G 1G14G24G 7G 9G20G11
 -23006767.40449 -16096609.93846  20700903.0934   20700909.5394   20700901.3864
      7719.6474       6015.3094
 -17651646.39749 -13735169.54746  20355630.9054   20355632.5264   20355628.4794
      5187.9614       4042.5674
  -8883281.99649  -6867769.82747  18651018.9724   18651025.3114   18651018.7544
      7570.7274       5899.2684
 -20286905.60549 -15260791.57347  18362002.4354   18362008.4214   18362002.0574
      6360.6164       4956.3244
 -14549824.41249 -10908009.24246  20132149.2774   20132151.1704   20132148.8514
      4059.1754       3162.9944
 -23482898.49549 -17635719.09046  19328949.3584   19328954.7524   19328948.8594
      8066.7614       6285.7884
 -10317104.97849  -8017283.43947  19266021.2894   19266028.7274   19266022.1114
      2999.6434       2337.3844
 05  4 27 11 38 14.9900000  0  7G 1G14G24G 7G 9G20G11
 -23122510.63049 -16186799.43946  20678877.6854   20678884.0054   20678876.5084
      7712.5694       6009.7944
 -17729395.49249 -13795753.22246  20340835.5534   20340837.8484   20340832.5214
      5178.3724       4035.0954
  -8996794.65149  -6956221.25947  18629418.2884   18629424.7434   18629418.4164
      7564.0604       5894.0734
 -20382263.62149 -15335096.46347  18343857.0394   18343862.1424   18343856.1224
      6353.4724       4950.7574
 -14610642.23949 -10955399.74046  20120574.1054   20120581.0594   20120575.6544
      4049.6864       3155.5994
 -23603847.93949 -17729965.38947  19305933.4034   19305939.2634   19305933.2354
      8059.5834       6280.1944
 -10362061.61949  -8052314.62247  19257468.9604   19257473.5904   19257468.9094
      2994.3714       2333.2764
 05  4 27 11 38 29.9900000  0  7G 1G14G24G 7G 9G20G11
 -23238143.11449 -16276902.65646  20656873.8664   20656880.1414   20656872.6314
      7705.0454       6003.9314
 -17806996.72849 -13856221.72346  20326067.6564   20326071.0384   20326065.3124
      5168.4434       4027.3584
  -9110203.16849  -7044591.57647  18607837.5464   18607843.5704   18607837.1944
      7557.0394       5888.6024
 -20477510.21949 -15409314.57047  18325731.5914   18325737.5994   18325731.2354
      6345.9474       4944.8944
 -14671313.93749 -11002676.37646  20109027.9584   20109034.3104   20109025.3854
      4039.8714       3147.9514
 -23724685.39749 -17824124.42447  19282939.0564   19282945.1604   19282938.8294
      8052.0344       6274.3124
 -10406935.05149  -8087280.96647  19248931.3764   19248932.6734   19248930.5164
      2988.7384       2328.8874
 05  4 27 11 38 44.9900000  0  7G 1G14G24G 7G 9G20G11
 -23353666.61249 -16366920.93946  20634890.5994   20634896.7204   20634888.8244
      7698.0154       5998.4534
 -17884452.21049 -13916576.63746  20311327.8544   20311331.6214   20311325.2334
      5158.9074       4019.9274
  -9223509.41249  -7132882.24347  18586275.9184   18586282.1834   18586275.9144
      7550.4354       5883.4564
 -20572647.16249 -15483447.21447  18307627.2084   18307633.3454   18307626.9714
      6338.8974       4939.4004
 -14731841.69049 -11049840.84446  20097509.6254   20097517.1914   20097508.6984
      4030.4914       3140.6424
 -23845412.66049 -17918197.57547  19259966.0814   19259971.4924   19259965.2914
      8044.9234       6268.7714
 -10451727.72149  -8122184.38246  19240406.5174   19240408.3694   19240405.7904
      2983.5954       2324.8794
 05  4 27 11 38 59.9900000  0  7G 1G14G24G 7G 9G20G11
 -23469079.82149 -16456853.28846  20612928.0724   20612934.6974   20612926.0364
      7690.5764       5992.6574
 -17961760.86649 -13976817.10546  20296616.1654   20296620.7574   20296615.2574
      5149.1124       4012.2954
  -9336712.11149  -7221092.20547  18564734.1024   18564740.6674   18564734.2964
      7543.4424       5878.0074
 -20667673.53749 -15557493.76547  18289544.0994   18289550.3994   18289544.2084
      6331.3944       4933.5544
 -14792224.83249 -11096892.67546  20086017.1794   20086026.7074   20086019.6314
      4020.7984       3133.0894
 -23966028.60349 -18012183.99547  19237013.8424   19237019.0564   19237013.5284
      8037.4034       6262.9114
 -10496438.78449  -8157024.18946  19231896.0764   19231900.5224   19231895.1814
      2978.0684       2320.5724
 05  4 27 11 39 14.9900000  0  7G 1G14G24G 7G 9G20G11
 -23584383.13549 -16546700.00746  20590984.9574   20590993.3054   20590984.6774
      7683.3264       5987.0074
 -18038923.49849 -14036943.80646  20281933.1844   20281936.8954   20281931.9154
      5139.4574       4004.7724
  -9449811.71649  -7309221.79447  18543211.8714   18543218.1324   18543211.5464
      7536.6634       5872.7244
 -20762589.64549 -15631454.33547  18271482.3874   18271488.2734   18271482.2064
      6324.1614       4927.9184
 -14852464.26549 -11143832.54846  20074554.0724   20074564.8424   20074557.4404
      4011.3574       3125.7334
 -24086533.65649 -18106084.03747  19214082.9144   19214087.4434   19214082.0294
      8030.0864       6257.2104
 -10541069.23349  -8191801.16046  19223399.1874   19223408.3644   19223399.4824
      2972.7994       2316.4674
 05  4 27 11 39 29.9900000  0  7G 1G14G24G 7G 9G20G11
 -23699573.35349 -16636458.61546  20569064.6934   20569072.4184   20569065.4864
      7675.6044       5980.9904
 -18115937.40749 -14096954.64946  20267278.8454   20267281.1444   20267277.2124
      5129.3064       3996.8624
  -9562805.15749  -7397268.64347  18521710.1334   18521716.6254   18521709.8334
      7529.3624       5867.0354
 -20857392.81149 -15705326.95947  18253441.8834   18253447.7774   18253441.6834
      6316.3894       4921.8624
 -14912557.33349 -11190658.30846  20063120.6444   20063127.3834   20063121.0724
      4001.3414       3117.9284
 -24206924.52249 -18199895.08347  19191173.1304   19191178.4124   19191171.9804
      8022.2584       6251.1104
 -10585616.28249  -8226513.14746  19214922.6984   19214931.8584   19214924.7384
      2967.0434       2311.9824
 05  4 27 11 39 44.9900000  0  7G 1G14G24G 7G 9G20G11
 -23814651.84849 -16726130.16946  20547166.5624   20547174.0994   20547166.7964
      7668.0554       5975.1084
 -18192804.23149 -14156850.85546  20252651.6534   20252654.0144   20252649.6064
      5119.4394       3989.1734
  -9675693.80349  -7485233.71447  18500228.2744   18500234.3964   18500227.9234
      7522.2924       5861.5264
 -20952084.32049 -15779112.54647  18235422.7114   18235428.6514   18235422.6254
      6308.8784       4916.0094
 -14972506.03649 -11237371.50746  20051717.7284   20051721.6094   20051715.7724
      3991.6684       3110.3914
 -24327202.50149 -18293618.16347  19168284.6954   19168290.3134   19168283.6874
      8014.6304       6245.1664
 -10630081.90049  -8261161.69347  19206465.3264   19206471.7784   19206466.0994
      2961.5554       2307.7054
 05  4 27 11 39 59.9900000  0  7G 1G14G24G 7G 9G20G11
 -23929616.68649 -16815713.15746  20525290.3754   20525296.5104   20525289.6104
      7660.6044       5969.3024
 -18269522.39249 -14216631.28146  20238052.5124   20238054.3564   20238050.4444
      5109.6674       3981.5594
  -9788476.12549  -7573115.96147  18478766.1544   18478772.3714   18478766.0584
      7515.3224       5856.0954
 -21046662.58549 -15852809.88247  18217425.0684   18217430.8224   18217424.8924
      6301.4414       4910.2144
 -15032308.79749 -11283971.12346  20040335.6494   20040340.3744   20040337.0984
      3982.0194       3102.8724
 -24447365.59649 -18387251.74347  19145418.6894   19145423.7454   19145417.7324
      8007.1084       6239.3054
 -10674464.65149  -8295745.67747  19198022.1914   19198026.7404   19198022.0054
      2956.1524       2303.4954
 05  4 27 11 40 14.9900000  0  7G 1G14G24G 7G 9G20G11
 -24044467.44749 -16905207.21746  20503435.3944   20503440.8854   20503433.6964
      7652.9954       5963.3734
 -18346091.81249 -14276295.80846  20223482.5574   20223484.0214   20223481.4444
      5099.7204       3973.8084
  -9901151.88349  -7660915.23647  18457324.4464   18457331.0354   18457324.5214
      7508.2254       5850.5654
 -21141127.16249 -15926418.60147  18199449.3704   18199454.6014   18199449.1304
      6293.8704       4904.3144
 -15091965.90649 -11330457.14746  20028983.2664   20028988.8754   20028981.1344
      3972.3614       3095.3464
 -24567413.46349 -18480795.51647  19122574.0434   19122579.3914   19122573.3824
      7999.4044       6233.3024
 -10718764.62349  -8330265.16147  19189592.6904   19189595.8244   19189591.7094
      2950.6464       2299.2054
 05  4 27 11 40 29.9900000  0  7G 1G14G24G 7G 9G20G11
 -24159206.68649 -16994614.38146  20481601.1314   20481606.3054   20481599.7274
      7645.3844       5957.4424
 -18422515.30349 -14335846.56246  20208940.9124   20208942.1884   20208939.9294
      5089.8884       3966.1464
 -10013723.68449  -7748633.51247  18435902.4314   18435909.5234   18435902.5374
      7501.1294       5845.0364
 -21235481.11349 -15999941.15847  18181494.4534   18181499.4174   18181494.0004
      6286.3644       4898.4654
 -15151480.41349 -11376832.02746  20017658.4374   20017661.6774   20017657.7994
      3962.7434       3087.8524
 -24687348.48349 -18574251.36747  19099751.0234   19099756.5894   19099750.4834
      7991.7294       6227.3214
 -10762985.04849  -8364722.66146  19181176.1224   19181179.8074   19181175.1874
      2945.1924       2294.9554
 05  4 27 11 40 44.9900000  0  7G 1G14G24G 7G 9G20G11
 -24273831.98049 -17083932.77946  20459788.5414   20459793.4324   20459788.2144
      7637.8744       5951.5904
 -18498790.88449 -14395282.05946  20194426.8234   20194425.8804   20194424.5264
      5080.0804       3958.5044
 -10126188.84649  -7836268.67147  18414501.4504   18414508.1704   18414501.5234
      7494.1184       5839.5724
 -21329721.99149 -16073375.62147  18163561.1694   18163565.6804   18163560.9894
      6278.9144       4892.6604
 -15210850.15449 -11423094.19946  20006358.2274   20006364.1674   20006359.9264
      3953.1774       3080.3984
 -24807168.27049 -18667617.42747  19076950.0124   19076955.2304   19076949.8504
      7984.1284       6221.3984
 -10807124.00449  -8399116.66746  19172772.3474   19172777.5214   19172771.7044
      2939.8774       2290.8134
 05  4 27 11 40 59.9900000  0  7G 1G14G24G 7G 9G20G11
 -24388340.41949 -17173160.11946  20437998.3064   20438002.6514   20437997.7224
      7630.2034       5945.6134
 -18574916.03249 -14454600.38246  20179940.2874   20179939.9614   20179939.1824
      5070.1944       3950.8004
 -10238545.01449  -7923818.96147  18393120.8714   18393127.2734   18393120.4694
      7486.9824       5834.0124
 -21423847.08149 -16146719.84947  18145649.4834   18145654.8624   18145649.0524
      6271.2904       4886.7194
 -15270072.96449 -11469241.86946  19995084.3754   19995094.9284   19995084.4574
      3943.5214       3072.8744
 -24926870.22249 -18760891.67047  19054171.3584   19054176.4474   19054171.2014
      7976.3734       6215.3564
 -10851179.13449  -8433445.31646  19164384.1014   19164393.4164   19164386.7404
      2934.4104       2286.5534
 05  4 27 11 41 14.9900000  0  7G 1G14G24G 7G 9G20G11
 -24502732.23049 -17262296.58846  20416231.5754   20416235.1454   20416230.5994
      7622.6554       5939.7314
 -18650891.26449 -14513801.89146  20165482.9724   20165482.4084   20165481.3774
      5060.4464       3943.2054
 -10350792.47449  -8011284.57347  18371760.7264   18371767.5784   18371760.4364
      7479.9464       5828.5294
 -21517856.80949 -16219974.20647  18127760.0434   18127765.6544   18127759.6484
      6263.8264       4880.9034
 -15329149.72549 -11515275.67746  19983843.2624   19983851.5094   19983841.1654
      3933.9724       3065.4334
 -25046454.30749 -18854074.06247  19031415.2334   19031419.9664   19031414.9174
      7968.7434       6209.4104
 -10895151.05249  -8467709.15846  19156019.6964   19156026.4914   19156022.6304
      2929.1334       2282.4414
 05  4 27 11 41 29.9900000  0  7G 1G14G24G 7G 9G20G11
 -24617008.22749 -17351342.79746  20394486.6674   20394489.9574   20394484.0054
      7614.5404       5933.4084
 -18726717.73349 -14572887.49346  20151053.4984   20151053.3034   20151051.4564
      5050.1354       3935.1704
 -10462932.03649  -8098666.10147  18350421.4744   18350428.0394   18350421.1534
      7472.3414       5822.6034
 -21611752.13449 -16293139.38647  18109891.9904   18109897.9854   18109891.6254
      6255.8074       4874.6554
 -15388081.56649 -11561196.67546  19972629.8694   19972639.2474   19972633.2984
      3923.9714       3057.6404
 -25165921.41249 -18947165.31447  19008681.6784   19008685.8754   19008681.5284
      7960.5544       6203.0294
 -10939041.25149  -8501909.35346  19147674.4424   19147676.4044   19147674.2134
      2923.2824       2277.8824
 05  4 27 11 41 44.9900000  0  7G 1G14G24G 7G 9G20G11
 -24731170.91149 -17440300.73146  20372761.7304   20372766.0014   20372759.8424
      7606.7224       5927.3164
 -18802398.20149 -14631859.28646  20136651.0924   20136650.8824   20136649.7844
      5040.1154       3927.3624
 -10574966.17049  -8185965.35447  18329101.7674   18329108.5094   18329101.4824
      7465.0894       5816.9524
 -21705535.64849 -16366217.42547  18092045.9214   18092051.4594   18092045.5254
      6248.1304       4868.6734
 -15446871.63249 -11607007.11046  19961442.5894   19961450.4204   19961444.3424
      3914.3174       3050.1174
 -25285274.06649 -19040167.37447  18985969.8474   18985974.0644   18985969.3894
      7952.6844       6196.8974
 -10982852.64549  -8536048.14047  19139340.7554   19139342.3324   19139338.7584
      2917.7974       2273.6084
 05  4 27 11 41 59.9900000  0  7G 1G14G24G 7G 9G20G11
 -24845216.37949 -17529167.30546  20351058.4794   20351064.8804   20351058.1074
      7599.0054       5921.3034
 -18877929.13649 -14690714.53346  20122276.3904   20122277.0364   20122275.2044
      5030.3274       3919.7354
 -10686891.30749  -8273179.74447  18307803.2084   18307810.2344   18307803.2554
      7457.9504       5811.3904
 -21799203.86249 -16439205.66047  18074221.7074   18074227.1574   18074221.3494
      6240.5844       4862.7934
 -15505516.71049 -11652704.58046  19950284.7904   19950294.5204   19950282.6584
      3904.7224       3042.6414
 -25404508.23649 -19133077.10347  18963280.6114   18963284.2284   18963279.8134
      7944.9194       6190.8464
 -11026581.74849  -8570122.80047  19131018.9294   19131021.7084   19131017.7654
      2912.4444       2269.4374
 05  4 27 11 42 14.9890000  0  7G 1G14G24G 7G 9G20G11
 -24959137.63849 -17617937.10946  20329379.9074   20329385.0444   20329379.0594
      7591.4364       5915.4054
 -18953306.68849 -14749450.25646  20107931.7304   20107933.5874   20107931.6084
      5020.6614       3912.2034
 -10798700.64549  -8360303.92447  18286526.8504   18286533.6424   18286526.7394
      7450.9144       5805.9074
 -21892751.26049 -16512099.75247  18056419.9524   18056425.8784   18056419.9724
      6233.1164       4856.9744
 -15564013.84149 -11698286.73146  19939154.6834   19939159.7734   19939153.2414
      3895.3634       3035.3484
 -25523616.71549 -19225888.90147  18940614.9544   18940618.1564   18940613.8894
      7937.2254       6184.8514
 -11070227.04049  -8604132.13247  19122712.0934   19122716.5834   19122711.1534
      2907.2674       2265.4034
 05  4 27 11 42 29.9890000  0  7G 1G14G24G 7G 9G20G11
 -25072948.74449 -17706621.08346  20307722.5394   20307727.8744   20307721.4524
      7583.5834       5909.2854
 -19028539.99649 -14808073.62346  20093614.5574   20093615.7454   20093614.0814
      5010.7114       3904.4504
 -10910407.85449  -8447348.47247  18265269.8504   18265276.3434   18265269.7074
      7443.6094       5800.2154
 -21986189.20649 -16584908.57147  18038640.0274   18038645.2334   18038639.4324
      6225.3914       4850.9544
 -15622370.24749 -11743759.31046  19928049.0524   19928056.3534   19928049.6964
      3885.7124       3027.8284
 -25642614.19149 -19318614.20247  18917970.2744   18917973.9774   18917969.0994
      7929.2954       6178.6714
 -11113793.61849  -8638080.13046  19114417.8384   19114424.6914   19114416.7314
      2901.8434       2261.1764
 05  4 27 11 42 44.9890000  0  7G 1G14G24G 7G 9G20G11
 -25186641.87449 -17795213.10646  20286087.4164   20286092.9754   20286086.5964
      7575.8104       5903.2294
 -19103624.10849 -14866580.67946  20079325.1864   20079329.2864   20079324.6154
      5000.8084       3896.7334
 -11022005.52849  -8534307.62147  18244033.4094   18244039.9084   18244033.3124
      7436.4164       5794.6104
 -22079511.65849 -16657627.39147  18020880.8794   18020886.6964   18020880.6924
      6217.8154       4845.0514
 -15680582.42949 -11789119.39746  19916972.2654   19916976.7724   19916970.0364
      3876.2134       3020.4264
 -25761492.44249 -19411246.61347  18895348.1874   18895352.0754   18895347.3974
      7921.4534       6172.5614
 -11157278.95849  -8671964.80946  19106135.9254   19106146.8114   19106137.4954
      2896.4884       2257.0044
 05  4 27 11 42 59.9890000  0  7G 1G14G24G 7G 9G20G11
 -25300216.61449 -17883712.87946  20264474.6054   20264479.5634   20264474.2784
      7567.6974       5896.9074
 -19178559.11149 -14924971.61646  20065064.3494   20065069.4284   20065065.2214
      4990.7064       3888.8624
 -11133493.57649  -8621181.38747  18222817.9884   18222824.5214   18222818.1164
      7428.8914       5788.7464
 -22172718.26349 -16730256.01947  18003144.8634   18003149.9284   18003144.2014
      6209.8524       4838.8464
 -15738650.47649 -11834367.22846  19905921.4624   19905929.3654   19905922.0764
      3866.4264       3012.7994
 -25880251.00949 -19503785.77347  18872748.8664   18872753.6754   18872748.2294
      7913.2444       6166.1644
 -11200683.04849  -8705786.19646  19097878.1174   19097885.7034   19097881.0024
      2890.8974       2252.6474
 05  4 27 11 43 14.9890000  0  7G 1G14G24G 7G 9G20G11
 -25413672.02549 -17972119.67646  20242885.0514   20242889.8534   20242884.6244
      7559.5754       5890.5784
 -19253344.19549 -14983245.66246  20050832.3444   20050837.9834   20050832.7214
      4980.5114       3880.9184
 -11244871.17149  -8707969.12647  18201623.4594   18201629.9704   18201623.2174
      7421.3284       5782.8534
 -22265808.20149 -16802793.61147  17985429.9524   17985435.8304   17985429.6184
      6201.9074       4832.6554
 -15796573.97949 -11879502.42646  19894895.4314   19894904.1944   19894896.4684
      3856.6424       3005.1754
 -25998889.04249 -19596230.98247  18850172.4604   18850177.7364   18850172.0944
      7905.0214       6159.7574
 -11244005.48649  -8739543.97746  19089640.5784   19089640.9134   19089641.0664
      2885.2974       2248.2834
 05  4 27 11 43 29.9890000  0  7G 1G14G24G 7G 9G20G11
 -25527008.06149 -18060433.45846  20221318.0334   20221323.3324   20221317.0754
      7551.7014       5884.4424
 -19327979.83449 -15041403.30146  20036629.2224   20036636.0954   20036630.3414
      4970.6734       3873.2524
 -11356138.28649  -8794670.79947  18180449.9344   18180456.4774   18180449.8904
      7414.0754       5777.2014
 -22358781.60249 -16875240.43347  17967737.8474   17967743.8044   17967737.2924
      6194.2394       4826.6804
 -15854353.36349 -11924525.35246  19883900.2704   19883913.0604   19883898.3224
      3847.0694       2997.7164
 -26117406.38849 -19688582.15447  18827619.0814   18827624.4844   18827618.4304
      7897.0914       6153.5774
 -11287246.64149  -8773238.43246  19081415.4274   19081413.7534   19081414.2184
      2879.9784       2244.1394
 05  4 27 11 43 44.9890000  0  7G 1G14G24G 7G 9G20G11
 -25640223.33649 -18148653.14446  20199773.8444   20199779.7554   20199772.2774
      7543.6244       5878.1494
 -19402464.88249 -15099443.57646  20022455.4104   20022460.2794   20022455.3804
      4960.5894       3865.3944
 -11467293.47449  -8881285.24247  18159297.8304   18159304.3674   18159297.6624
      7406.5834       5771.3634
 -22451637.26449 -16947595.52347  17950067.5424   17950073.9974   17950067.2994
      6186.3754       4820.5524
 -15911987.72349 -11969435.26646  19872933.7644   19872942.8304   19872936.3124
      3837.4484       2990.2194
 -26235801.78349 -19780838.30547  18805088.8414   18805094.2714   18805088.7354
      7888.9284       6147.2174
 -11330405.63749  -8806868.85747  19073202.2494   19073203.6564   19073201.2204
      2874.5194       2239.8854
 05  4 27 11 43 59.9890000  0  7G 1G14G24G 7G 9G20G11
 -25753318.61949 -18236779.32646  20178252.1374   20178257.9764   20178252.2434
      7535.5784       5871.8794
 -19476800.57349 -15157367.50946  20008310.6794   20008315.9524   20008310.4744
      4950.6214       3857.6274
 -11578337.64649  -8967813.15347  18138166.6614   18138173.4044   18138166.5474
      7399.1304       5765.5564
 -22544376.18449 -17019859.62247  17932419.6524   17932426.3174   17932419.6654
      6178.5484       4814.4534
 -15969478.49549 -12014233.26046  19861994.6854   19862002.5694   19861995.2424
      3827.8084       2982.7084
 -26354075.87549 -19872999.92747  18782582.2004   18782587.7694   18782581.8694
      7880.7794       6140.8674
 -11373483.98749  -8840436.41847  19065003.1354   19065007.4874   19065002.3114
      2869.0924       2235.6564
 05  4 27 11 44 14.9890000  0  7G 1G14G24G 7G 9G20G11
 -25866292.96649 -18324811.27146  20156753.9234   20156758.9544   20156755.0944
      7527.4924       5865.5784
 -19550986.15449 -15215174.39646  19994194.5504   19994198.9174   19994194.2274
      4940.6024       3849.8204
 -11689270.09949  -9054254.06247  18117057.2734   18117063.6604   18117057.1944
      7391.6364       5759.7164
 -22636997.59849 -17092032.14647  17914794.3724   17914801.1064   17914794.1074
      6170.6964       4808.3354
 -16026825.19949 -12058918.98846  19851083.4074   19851092.0384   19851082.7164
      3818.1814       2975.2064
 -26472227.66549 -19965066.23647  18760098.3074   18760104.8454   18760098.2844
      7872.5954       6134.4904
 -11416481.17349  -8873940.71946  19056817.6494   19056826.0944   19056816.4934
      2863.6434       2231.4104
 05  4 27 11 44 29.9890000  0  7G 1G14G24G 7G 9G20G11
 -25979147.07249 -18412749.53546  20135279.3634   20135284.4114   20135278.4884
      7519.5824       5859.4154
 -19625022.94649 -15272865.40846  19980106.3174   19980109.9584   19980106.1114
      4930.8094       3842.1894
 -11800091.65749  -9140608.54447  18095968.6724   18095974.6414   18095968.4884
      7384.3864       5754.0674
 -22729502.32549 -17164113.74647  17897191.8524   17897197.7674   17897191.2284
      6163.0654       4802.3884
 -16084029.19449 -12103493.54346  19840199.0444   19840206.3924   19840199.5104
      3808.8094       2967.9034
 -26590257.95149 -20057037.87847  18737638.2174   18737644.3424   18737638.1334
      7864.6104       6128.2684
 -11459398.56149  -8907382.79446  19048645.8084   19048659.2714   19048646.9534
      2858.4684       2227.3784
 05  4 27 11 44 44.9890000  0  7G 1G14G24G 7G 9G20G11
 -26091881.15249 -18500594.24846  20113827.0174   20113830.6424   20113825.4744
      7511.6914       5853.2664
 -19698911.32849 -15330440.73246  19966046.5334   19966049.8014   19966045.3034
      4921.0604       3834.5924
 -11910802.48649  -9226876.75847  18074900.9754   18074906.9964   18074900.9114
      7377.1154       5748.4014
 -22821890.85649 -17236104.79847  17879610.1154   17879616.6634   17879610.1034
      6155.4254       4796.4354
 -16141091.14149 -12147957.40346  19829340.5284   19829348.4274   19829340.4554
      3799.4824       2960.6354
 -26708166.89149 -20148914.98147  18715201.4764   18715207.2304   18715201.2864
      7856.6604       6122.0734
 -11502236.64149  -8940763.11746  19040494.2574   19040505.0814   19040497.0164
      2853.3244       2223.3694
 05  4 27 11 44 59.9890000  0  7G 1G14G24G 7G 9G20G11
 -26204495.44849 -18588345.64046  20092398.0324   20092400.9784   20092396.6084
      7503.7264       5847.0594
 -19772652.11549 -15387901.14446  19952015.1044   19952016.9584   19952014.1754
      4911.2364       3826.9374
 -12021402.85749  -9313058.88747  18053854.3414   18053860.5504   18053854.1624
      7369.7924       5742.6954
 -22914163.59249 -17308005.66247  17862051.8244   17862057.5104   17862051.5934
      6147.7404       4790.4474
 -16198011.83149 -12192311.16746  19818507.8144   19818514.1584   19818506.6154
      3790.1324       2953.3504
 -26825954.77549 -20240697.72447  18692787.1914   18692792.7814   18692786.7654
      7848.6044       6115.7954
 -11544996.25749  -8974082.32846  19032362.9904   19032365.6524   19032363.9154
      2848.1504       2219.3384
 05  4 27 11 45 14.9890000  0  7G 1G14G24G 7G 9G20G11
 -26316988.43349 -18676002.51946  20070991.7224   20070995.3994   20070990.1254
      7495.3184       5840.5084
 -19846243.91249 -15445245.41846  19938012.0834   19938014.1994   19938011.2264
      4901.0514       3819.0014
 -12131891.41649  -9399153.88047  18032828.9644   18032835.2884   18032829.1214
      7362.0484       5736.6614
 -23006319.35249 -17379815.41047  17844515.0214   17844521.0034   17844515.0294
      6139.6244       4784.1234
 -16254790.22449 -12236554.12046  19807701.8924   19807712.1444   19807703.2654
      3780.3324       2945.7134
 -26943619.99349 -20332384.90447  18670396.5064   18670401.7944   18670396.1164
      7840.0894       6109.1604
 -11587676.27649  -9007339.53746  19024245.1824   19024242.4254   19024243.9804
      2842.5574       2214.9794
 05  4 27 11 45 29.9890000  0  7G 1G14G24G 7G 9G20G11
 -26429358.97249 -18763563.96346  20049607.8174   20049611.0184   20049607.9054
      7487.4754       5834.3964
 -19919686.05349 -15502473.06546  19924037.6494   19924038.0964   19924035.5204
      4891.3844       3811.4684
 -12242267.29649  -9485161.08047  18011825.2484   18011831.5114   18011825.3214
      7354.8544       5731.0554
 -23098356.80449 -17451532.87147  17827001.5174   17827006.7814   17827000.9974
      6132.0544       4778.2244
 -16311425.91249 -12280685.79746  19796924.8214   19796933.7534   19796922.2784
      3771.1644       2938.5694
 -27061161.59749 -20423975.76847  18648029.4074   18648034.0954   18648028.7924
      7832.2164       6103.0254
 -11630276.30849  -9040534.43146  19016139.4294   19016136.0384   19016138.6994
      2837.5394       2211.0694
 05  4 27 11 45 44.9890000  0  7G 1G14G24G 7G 9G20G11
 -26541608.15449 -18851030.85046  20028247.2434   20028250.8974   20028247.7134
      7479.1594       5827.9164
 -19992979.83349 -15559585.06046  19910090.9594   19910090.4734   19910088.4204
      4881.2354       3803.5604
 -12352531.62549  -9571081.32247  17990842.4104   17990849.0814   17990842.3964
      7347.1334       5725.0394
 -23190277.54649 -17523159.44247  17809509.4844   17809514.4854   17809509.3204
      6124.0394       4771.9784
 -16367920.39749 -12324707.50646  19786173.6324   19786183.9294   19786176.0234
      3761.5284       2931.0614
 -27178580.52849 -20515471.04947  18625685.5224   18625690.2744   18625685.0134
      7823.7384       6096.4194
 -11672797.81049  -9073668.13846  19008046.9564   19008047.3774   19008046.5054
      2832.0814       2206.8164
 05  4 27 11 45 59.9890000  0  7G 1G14G24G 7G 9G20G11
 -26653735.93949 -18938403.13846  20006911.1914   20006915.5184   20006909.7214
      7470.9704       5821.5354
 -20066125.90449 -15616582.02046  19896172.0484   19896172.0574   19896169.9854
      4871.3094       3795.8254
 -12462684.44949  -9656914.67447  17969880.8264   17969887.8394   17969880.9564
      7339.6434       5719.2024
 -23282081.46949 -17594694.95947  17792040.2254   17792044.7934   17792039.4794
      6116.1714       4765.8484
 -16424274.17749 -12368619.56246  19775449.6204   19775456.7214   19775451.7714
      3752.1074       2923.7204
 -27295876.70949 -20606870.66647  18603364.9334   18603369.4174   18603364.2904
      7815.4834       6089.9874
 -11715241.30449  -9106741.00746  18999968.0594   18999972.2014   18999966.8564
      2826.8014       2202.7024
 05  4 27 11 46 14.9890000  0  7G 1G14G24G 7G 9G20G11
 -26765739.62949 -19025678.71746  19985598.7994   19985600.7094   19985596.6304
      7462.8084       5815.1754
 -20139121.65749 -15673461.82346  19882281.3034   19882281.1634   19882279.7604
      4861.4454       3788.1394
 -12572723.16149  -9742659.10647  17948941.1524   17948947.9274   17948941.2444
      7332.1504       5713.3644
 -23373766.22649 -17666137.62647  17774593.2784   17774597.8304   17774592.5784
      6108.3544       4759.7564
 -16480485.14549 -12412420.32246  19764754.3934   19764763.5264   19764751.3434
      3742.7134       2916.4004
 -27413047.50249 -20698172.58147  18581067.9014   18581072.3884   18581067.2594
      7807.2354       6083.5604
 -11757604.63449  -9139751.37446  18991901.6584   18991911.9724   18991901.7454
      2821.5864       2198.6384
 05  4 27 11 46 29.9890000  0  7G 1G14G24G 7G 9G20G11
 -26877622.86649 -19112860.46146  19964307.9454   19964310.0034   19964305.1944
      7455.0164       5809.1034
 -20211971.22549 -15730227.71446  19868418.1364   19868418.5464   19868415.4124
      4851.9294       3780.7244
 -12682651.51749  -9828317.50347  17928022.5444   17928029.4014   17928022.5014
      7325.0384       5707.8224
 -23465335.55749 -17737490.33647  17757167.8174   17757172.8244   17757167.3854
      6100.8934       4753.9434
 -16536557.53349 -12456113.05346  19754085.9464   19754090.9584   19754087.8544
      3733.7294       2909.3994
 -27530096.54549 -20789379.62047  18558794.0864   18558798.7624   18558793.5124
      7799.3874       6077.4444
 -11799892.01749  -9172702.56346  18983852.6834   18983866.0144   18983854.1764
      2816.7714       2194.8864
 05  4 27 11 46 44.9880000  0  8G 1G 5G14G24G 7G 9G20G11
 -26989375.16249 -19199940.14646  19943041.0984   19943044.0934   19943039.0574
      7446.5434       5802.5014
   -324125.00955                  20680572.7264
      8790.6744       6849.8764
 -20284666.97249 -15786873.74746  19854583.8194   19854584.4974   19854581.2924
      4841.7264       3772.7734
 -12792459.37149  -9913881.98647  17907126.7694   17907133.5044   17907126.8634
      7317.2474       5701.7514
 -23556780.59449 -17808746.18947  17739765.9224   17739771.6704   17739765.8114
      6092.7584       4747.6044
 -16592485.16049 -12499693.06746  19743442.4624   19743450.0314   19743443.7874
      3724.0804       2901.8814
 -27647013.01149 -20880483.34647  18536545.5814   18536550.0204   18536545.0984
      7790.8024       6070.7554
 -11842098.07849  -9205590.39446  18975824.7324   18975833.2814   18975826.2134
      2811.3074       2190.6294
 05  4 27 11 46 59.9880000  0  8G 1G 5G14G24G 7G 9G20G11
 -27101011.24449 -19286929.27446  19921795.3964   19921799.9834   19921793.8154
      7438.5894       5796.3034
   -426843.33845                  20655487.2234
      8785.8214       6846.0944
 -20357218.74349 -15843407.55946  19840777.0524   19840778.4084   19840775.9634
      4832.1254       3765.2924
 -12902161.17649  -9999363.87147  17886251.0254   17886257.8334   17886251.3124
      7309.9584       5696.0714
 -23648113.44249 -17879914.64947  17722386.1484   17722391.5614   17722385.8304
      6085.1794       4741.6984
 -16648275.78749 -12543166.18046  19732828.1324   19732832.3864   19732825.9994
      3714.9784       2894.7884
 -27763812.14549 -20971495.63847  18514319.2624   18514324.3644   18514318.4484
      7782.7104       6064.4494
 -11884228.59349  -9238419.39247  18967811.9814   18967814.9174   18967811.4634
      2806.3864       2186.7944
 05  4 27 11 47 14.9880000  0  8G 1G 5G14G24G 7G 9G20G11
 -27212523.31149 -19373821.77746  19900575.4944   19900579.8664   19900574.7354
      7430.0184       5789.6244
   -529501.01746                  20630416.7734   20630422.4664
      8780.2774       6841.7744
 -20429621.84249 -15899825.56146  19826998.6814   19827000.7994   19826997.9724
      4821.9494       3757.3634
 -13011749.39149 -10084757.26747  17865397.2444   17865403.9324   17865397.4184
      7302.0684       5689.9234
 -23739327.85549 -17950990.81647  17705027.9604   17705033.8364   17705027.8064
      6076.9534       4735.2884
 -16703925.73949 -12586529.82946  19722236.5244   19722245.2254   19722238.3794
      3705.3104       2887.2554
 -27880485.89249 -21062410.24447  18492116.7724   18492121.2864   18492116.4014
      7774.0324       6057.6874
 -11926280.98549  -9271187.54247  18959811.1234   18959810.4344   18959810.4804
      2800.8864       2182.5094
 05  4 27 11 47 29.9880000  0  8G 1G 5G14G24G 7G 9G20G11
 -27323913.63049 -19460619.41946  19879378.7374   19879383.5134   19879376.6724
      7421.9514       5783.3384
   -632099.68346                  20605360.8544   20605367.4974
      8775.2444       6837.8524
 -20501878.87349 -15956129.76846  19813248.3774   19813250.5284   19813248.2104
      4812.2384       3749.7964
 -13121226.29649 -10170063.91647  17844564.6924   17844570.9964   17844564.7154
      7294.7614       5684.2294
 -23830426.21149 -18021976.55847  17687692.9634   17687698.8364   17687692.5754
      6069.3094       4729.3324
 -16759437.92349 -12629786.11246  19711670.4874   19711681.2894   19711670.6144
      3696.2544       2880.1984
 -27997036.48449 -21153228.89047  18469937.6334   18469942.6244   18469937.1584
      7765.9504       6051.3904
 -11968258.02549  -9303896.96046  18951823.1724   18951821.0154   18951822.4354
      2795.9654       2178.6744
 05  4 27 11 47 44.9880000  0  8G 1G 5G14G24G 7G 9G20G11
 -27435180.61049 -19547320.92646  19858203.8914   19858209.3804   19858202.6884
      7413.6654       5776.8824
  -1009903.58549   -734638.15245  20580320.1204   20580326.9334   20580319.2564
      8770.1574       6833.8894
 -20573988.47649 -16012319.04246  19799525.9604   19799527.4944   19799525.0924
      4802.4314       3742.1544
 -13230590.54149 -10255282.76447  17823753.0404   17823759.4824   17823753.2144
      7287.2034       5678.3404
 -23921407.20449 -18092870.80547  17670379.0504   17670385.7524   17670378.9134
      6061.4414       4723.2014
 -16814811.50149 -12672934.30646  19701135.1594   19701146.3604   19701136.1904
      3686.9844       2872.9744
 -28113462.32449 -21243950.31547  18447782.3684   18447787.5774   18447781.9264
      7757.5794       6044.8674
 -12010158.60349  -9336546.79646  18943848.6364   18943848.0714   18943847.7564
      2790.8474       2174.6864
 05  4 27 11 47 59.9880000  0  8G 1G 5G14G24G 7G 9G20G11
 -27546323.95749 -19633926.08946  19837052.5214   19837059.2114   19837051.9784
      7405.3424       5770.3964
  -1141416.91849   -837116.07845  20555292.8294   20555301.6144   20555291.1984
      8764.8574       6829.7594
 -20645951.01849 -16068393.78246  19785831.1824   19785833.6474   19785830.5544
      4792.5604       3734.4624
 -13339841.99149 -10340413.74347  17802963.1914   17802969.5654   17802963.6284
      7279.5974       5672.4134
 -24012270.69649 -18163673.51847  17653088.3464   17653095.1794   17653088.3834
      6053.5204       4717.0294
 -16870046.23749 -12715974.45446  19690619.0094   19690633.2494   19690622.4724
      3677.6434       2865.6964
 -28229763.30249 -21334574.45347  18425651.0804   18425656.4464   18425650.6534
      7749.1434       6038.2934
 -12051983.18449  -9369137.39846  18935886.8834   18935890.6064   18935886.4714
      2785.6794       2170.6594
 05  4 27 11 48 14.9880000  0  8G 1G 5G14G24G 7G 9G20G11
 -27657342.91049 -19720434.35446  19815925.8604   19815932.5474   19815924.6904
      7396.9854       5763.8844
  -1272851.63649   -939532.78345  20530278.4514   20530289.2274   20530278.3154
      8759.5094       6825.5914
 -20717765.97949 -16124353.54246  19772164.9474   19772167.2874   19772164.2264
      4782.5934       3726.6964
 -13448979.87649 -10425456.22547  17782195.2354   17782201.2064   17782195.1564
      7271.9284       5666.4374
 -24103016.04149 -18234384.16247  17635819.9524   17635827.2794   17635819.7494
      6045.5724       4710.8354
 -16925142.32149 -12758906.40745  19680136.0234   19680148.6974   19680132.5854
      3668.2164       2858.3504
 -28345938.41549 -21425100.49847  18403543.6434   18403549.0244   18403543.1544
      7740.6314       6031.6614
 -12093731.35349  -9401668.41146  18927937.8214   18927947.9604   18927938.8834
      2780.5234       2166.6414
 05  4 27 11 48 29.9880000  0  8G 1G 5G14G24G 7G 9G20G11
 -27768236.40249 -19806844.85246  19794822.8384   19794829.1284   19794822.1544
      7388.7254       5757.4484
  -1404206.68959  -1041887.34655  20505280.6654   20505291.9804   20505282.2684
      8754.3624       6821.5814
 -20789432.51249 -16180197.65146  19758527.2284   19758530.1804   19758526.4454
      4772.8804       3719.1274
 -13558003.19749 -10510409.45547  17761449.2064   17761454.9364   17761449.0484
      7264.4364       5660.5994
 -24193642.50749 -18305002.21047  17618575.0494   17618581.0984   17618574.6094
      6037.7714       4704.7574
 -16980099.06049 -12801729.89446  19669679.2884   19669691.1234   19669683.6614
      3659.2054       2851.3294
 -28461986.68249 -21515527.72047  18381460.3224   18381465.4844   18381459.8004
      7732.3294       6025.1914
 -12135402.57849  -9434139.48946  18920007.4944   18920019.3164   18920009.5944
      2775.5124       2162.7374
 05  4 27 11 48 44.9880000  0  8G 1G 5G14G24G 7G 9G20G11
 -27879006.56549 -19893159.26446  19773743.3224   19773749.9344   19773743.3134
      7380.4164       5750.9744
  -1535484.19949  -1144181.46345  20480301.1684   20480309.5424   20480302.6494
      8749.1504       6817.5194
 -20860953.12549 -16235928.00546  19744918.3994   19744919.5904   19744917.5924
      4763.0154       3711.4404
 -13666914.33349 -10595275.27847  17740724.1654   17740730.0124   17740724.1804
      7256.8464       5654.6854
 -24284152.30749 -18375529.32547  17601351.3324   17601358.0224   17601350.8014
      6029.9174       4698.6374
 -17034919.12849 -12844446.82145  19659247.3944   19659256.2424   19659249.2054
      3650.0034       2844.1584
 -28577910.10749 -21605857.66747  18359400.9914   18359405.9434   18359400.4564
      7723.9134       6018.6344
 -12176999.40549  -9466552.61247  18912095.6874   18912104.5554   18912096.4624
      2770.5034       2158.8344
 05  4 27 11 48 59.9880000  0  8G 1G 5G14G24G 7G 9G20G11
 -27989651.34649 -19979375.98146  19752688.2874   19752695.1304   19752687.7084
      7372.2504       5744.6104
  -1666681.84749  -1246413.40945  20455339.2164   20455343.6924   20455338.6974
      8744.0204       6813.5224
 -20932326.21249 -16291543.39946  19731337.5164   19731338.4454   19731335.6964
      4753.3984       3703.9464
 -13775711.20149 -10680052.08447  17720020.8954   17720026.4074   17720020.6414
      7249.4344       5648.9104
 -24374543.44849 -18445963.99147  17584150.4724   17584156.9284   17584150.0984
      6022.1894       4692.6154
 -17089601.08249 -12887056.06246  19648844.7494   19648852.5934   19648844.9264
      3641.0094       2837.1504
 -28693706.59649 -21696088.68847  18337365.6444   18337370.7124   18337365.4324
      7715.6504       6012.1954
 -12218520.32549  -9498906.59647  18904198.3734   18904203.6364   18904197.6844
      2765.6504       2155.0524
 05  4 27 11 49 14.9880000  0  8G 1G 5G14G24G 7G 9G20G11
 -28100170.79949 -20065495.02646  19731657.2794   19731663.0124   19731656.9964
      7363.7664       5737.9994
  -1797799.56349  -1348583.03445  20430391.3214   20430393.7654   20430390.1584
      8738.5144       6809.2324
 -21003552.16549 -16347044.13946  19717784.6054   19717784.3944   19717782.6734
      4743.5194       3696.2494
 -13884393.89949 -10764739.91947  17699339.1824   17699344.6934   17699339.1304
      7241.6714       5642.8614
 -24464816.22449 -18516306.40347  17566972.7704   17566978.7584   17566972.2544
      6014.1814       4686.3754
 -17144145.29449 -12929558.10245  19638462.9584   19638471.8794   19638463.9584
      3631.6884       2829.8874
 -28809376.37049 -21786220.97247  18315354.5814   18315359.6924   18315354.3864
      7707.0504       6005.4934
 -12259965.77949  -9531201.79047  18896313.3104   18896315.6514   18896311.8294
      2760.4904       2151.0314
 05  4 27 11 49 29.9880000  0  8G 1G 5G14G24G 7G 9G20G11
 -28210564.34149 -20151515.96146  19710650.0564   19710656.5484   19710649.5694
      7355.2984       5731.4014
  -1928836.80849  -1450689.95545  20405456.1304   20405459.4214   20405454.6574
      8733.0754       6804.9934
 -21074630.76049 -16402430.07946  19704258.9494   19704258.5054   19704255.8064
      4733.5464       3688.4774
 -13992961.99249 -10849338.38947  17678679.1834   17678684.6504   17678679.1994
      7233.9634       5636.8544
 -24554970.24249 -18586556.28747  17549817.3284   17549822.8814   17549816.6554
      6006.1794       4680.1394
 -17198552.13249 -12971952.95346  19628111.6504   19628120.8054   19628111.3154
      3622.4454       2822.6844
 -28924918.78449 -21876254.01647  18293368.1174   18293372.5694   18293367.7234
      7698.4794       5998.8154
 -12301335.88249  -9563438.27647  18888439.9674   18888441.6744   18888439.5114
      2755.4024       2147.0664
 05  4 27 11 49 44.9880000  0  8G 1G 5G14G24G 7G 9G20G11
 -28320831.83949 -20237438.67346  19689666.5344   19689672.2674   19689665.7624
      7347.0654       5724.9864
  -2059793.21449  -1552733.87046  20380535.6684   20380539.6194   20380534.8294
      8727.8194       6800.8984
 -21145562.23549 -16457701.38546  19690761.0414   19690760.1774   19690757.8604
      4723.9544       3681.0034
 -14101415.64049 -10933847.68547  17658041.0994   17658046.8274   17658040.9604
      7226.5224       5631.0564
 -24645005.51249 -18656713.63347  17532683.6424   17532689.7094   17532683.3164
      5998.4594       4674.1244
 -17252821.68749 -13014240.96146  19617783.5364   19617790.3094   19617785.6354
      3613.5204       2815.7304
 -29040333.69849 -21966187.70047  18271405.8544   18271409.7364   18271405.0514
      7690.1684       5992.3394
 -12342630.85649  -9595616.21446  18880580.1684   18880582.1474   18880579.6394
      2750.5864       2143.3144
 05  4 27 11 49 59.9880000  0  8G 1G 5G14G24G 7G 9G20G11
 -28430973.26649 -20323263.14546  19668707.1524   19668713.0604   19668706.8794
      7338.7724       5718.5244
  -2190668.76049  -1654714.74146  20355630.6434   20355634.9894   20355630.2604
      8722.5954       6796.8274
 -21216347.06849 -16512858.42946  19677291.1314   19677289.9644   19677289.1524
      4714.3434       3673.5144
 -14209755.01849 -11018267.97447  17637424.7754   17637430.6014   17637424.7274
      7219.0314       5625.2194
 -24734922.34749 -18726778.72347  17515572.9734   17515579.0954   17515572.4034
      5990.6784       4668.0614
 -17306954.64549 -13056422.48446  19607480.6664   19607490.3924   19607479.8174
      3604.5714       2808.7574
 -29155621.13749 -22056022.05647  18249467.3664   18249471.5164   18249466.6084
      7681.8164       5985.8314
 -12383851.17749  -9627735.94446  18872732.9304   18872737.2084   18872732.7564
      2745.7634       2139.5564
 05  4 27 11 50 14.9880000  0  8G 1G 5G14G24G 7G 9G20G11
 -28540989.03149 -20408989.70646  19647771.3894   19647777.8044   19647771.2884
      7330.2674       5711.8964
  -2321463.78549  -1756632.87945  20330739.7574   20330743.9224   20330739.8084
      8717.0264       6792.4884
 -21286985.83049 -16567901.62546  19663848.2984   19663848.6674   19663845.0494
      4704.4524       3665.8074
 -14317980.25549 -11102599.32147  17616830.1674   17616836.0014   17616830.1934
      7211.2614       5619.1644
 -24824721.28149 -18796751.97047  17498484.5724   17498490.8424   17498484.5304
      5982.6724       4661.8224
 -17360952.00849 -13098498.27946  19597207.9194   19597213.1394   19597204.6344
      3595.3084       2801.5394
 -29270781.49349 -22145757.39247  18227552.9614   18227556.9214   18227552.1754
      7673.1744       5979.0974
 -12424997.86049  -9659798.28046  18864899.9274   18864907.9404   18864900.5584
      2740.7344       2135.6374
 05  4 27 11 50 29.9880000  0  8G 1G 5G14G24G 7G 9G20G11
 -28650876.76949 -20494616.51446  19626860.4874   19626867.0834   19626860.8084
      7321.5804       5705.1274
  -2452175.85949  -1858486.41845  20305864.9944   20305869.9384   20305863.7234
      8711.4124       6788.1134
 -21357476.62349 -16622829.49446  19650433.4534   19650435.2824   19650431.1684
      4694.4434       3658.0084
 -14426089.32349 -11186840.17347  17596257.6594   17596263.5384   17596257.6024
      7203.4394       5613.0694
 -24914399.98449 -18866631.46847  17481419.6284   17481425.6244   17481419.4654
      5974.5374       4655.4834
 -17414811.70649 -13140467.00846  19586956.9174   19586967.2414   19586961.5304
      3586.1454       2794.3994
 -29385812.52349 -22235391.98447  18205663.4304   18205667.4944   18205662.6684
      7664.4564       5972.3034
 -12466069.10549  -9691801.85046  18857086.1974   18857093.0644   18857087.1374
      2735.5904       2131.6284
 05  4 27 11 50 44.9880000  0  8G 1G 5G14G24G 7G 9G20G11
 -28760637.47649 -20580144.32946  19605973.8074   19605981.2024   19605973.7104
      7313.3894       5698.7454
  -2582805.82749  -1960275.98345  20281003.3904   20281010.6594   20281001.4104
      8706.2624       6784.1004
 -21427820.88149 -16677643.20446  19637046.3714   19637049.1824   19637043.8884
      4684.9944       3650.6454
 -14534083.31849 -11270991.34947  17575706.9834   17575713.0184   17575706.9134
      7196.0194       5607.2884
 -25003959.84949 -18936418.39947  17464376.5354   17464382.9744   17464376.3904
      5966.9174       4649.5464
 -17468535.71849 -13182329.84245  19576732.7004   19576742.0244   19576729.3414
      3577.2544       2787.4714
 -29500714.90949 -22324926.30447  18183798.1464   18183802.3664   18183797.2974
      7656.1484       5965.8304
 -12507066.37149  -9723747.79446  18849288.4894   18849293.2944   18849288.2184
      2730.9614       2128.0224
 05  4 27 11 50 59.9880000  0  8G 1G 5G14G24G 7G 9G20G11
 -28870268.91549 -20665571.42446  19585111.5404   19585118.8754   19585110.8654
      7304.6674       5691.9484
  -2713351.54549  -2061999.94445  20256159.7404   20256168.0194   20256159.8064
      8700.4934       6779.6054
 -21498016.82249 -16732341.36346  19623687.8134   19623692.4654   19623686.6634
      4675.0354       3642.8844
 -14641960.15149 -11355051.24447  17555178.6214   17555184.8614   17555178.7084
      7188.1134       5601.1274
 -25093398.80849 -19006111.17047  17447357.2884   17447362.9324   17447357.3864
      5958.7474       4643.1794
 -17522122.16749 -13224085.54546  19566541.1124   19566545.0034   19566543.8164
      3568.1174       2780.3514
 -29615486.57149 -22414358.77547  18161957.5824   18161962.0474   18161956.7704
      7647.3134       5958.9454
 -12547987.89549  -9755634.72147  18841504.1464   18841506.5734   18841502.9304
      2725.8014       2124.0014
 05  4 27 11 51 14.9880000  0  8G 1G 5G14G24G 7G 9G20G11
 -28979771.61249 -20750898.18346  19564273.2724   19564281.7334   19564273.1174
      7295.8074       5685.0444
  -2843813.30049  -2163658.41245  20231332.8754   20231340.4524   20231334.6064
      8694.5704       6774.9904
 -21568065.25449 -16786924.56546  19610356.8304   19610362.5264   19610354.9704
      4664.9574       3635.0314
 -14749720.39749 -11439020.27847  17534672.3824   17534678.8224   17534672.4034
      7180.0774       5594.8654
 -25182717.43749 -19075710.10147  17430361.0004   17430366.4394   17430360.4324
      5950.4634       4636.7244
 -17575572.06049 -13265734.80946  19556367.8064   19556376.1404   19556363.6024
      3558.7024       2773.0154
 -29730128.01949 -22503689.78847  18140141.4084   18140146.3634   18140140.8104
      7638.3584       5951.9674
 -12588834.78249  -9787463.49347  18833731.8744   18833734.5444   18833730.6284
      2720.5794       2119.9324
 05  4 27 11 51 29.9880000  0  8G 1G 5G14G24G 7G 9G20G11
 -29089143.43549 -20836122.96346  19543459.8014   19543469.1514   19543459.9834
      7287.3874       5678.4834
  -2974188.75149  -2265249.66345  20206525.6944   20206531.9934   20206527.4484
      8689.2544       6770.8474
 -21637964.29449 -16841391.34946  19597054.0614   19597061.0804   19597054.0314
      4655.2624       3627.4774
 -14857362.09749 -11522896.96947  17514189.2854   17514194.9904   17514189.0894
      7172.4884       5588.9524
 -25271913.78049 -19145213.73547  17413386.9944   17413393.0364   17413386.5084
      5942.6294       4630.6204
 -17628883.84249 -13307276.46946  19546225.1144   19546230.2544   19546224.9324
      3549.8464       2766.1144
 -29844637.14449 -22592917.66947  18118350.1594   18118356.1944   18118350.0974
      7629.8334       5945.3244
 -12629605.30249  -9819232.75947  18825972.5364   18825975.9874   18825971.7494
      2715.7914       2116.2014
 05  4 27 11 51 44.9870000  0  8G 1G 5G14G24G 7G 9G20G11
 -29198380.16049 -20921242.46546  19522673.2824   19522682.4954   19522673.4104
      7278.6794       5671.6984
  -3104472.33949  -2366769.24045  20181736.4374   20181740.0274   20181737.9054
      8683.4054       6766.2904
 -21707712.98049 -16895740.99946  19583779.9684   19583788.8964   19583780.3124
      4645.4334       3619.8184
 -14964881.24949 -11606678.17147  17493729.3434   17493735.1064   17493729.1384
      7164.6024       5582.8074
 -25360985.11049 -19214619.94747  17396436.7884   17396443.1344   17396437.0154
      5934.5094       4624.2934
 -17682057.56049 -13348710.50846  19536104.7004   19536110.8714   19536102.1534
      3540.7204       2759.0034
 -29959009.38149 -22682038.88147  18096585.6194   18096591.8544   18096585.5814
      7621.0424       5938.4744
 -12670300.23349  -9850943.11346  18818226.4484   18818231.1014   18818225.9214
      2710.7824       2112.2984
 05  4 27 11 51 59.9870000  0  8G 1G 5G14G24G 7G 9G20G11
 -29307493.08249 -21006265.50546  19501909.7734   19501920.2894   19501909.8204
      7269.7524       5664.7424
  -3234678.12849  -2468228.27645  20156962.7294   20156962.3644   20156962.2554
      8677.4344       6761.6374
 -21777317.62249 -16949978.37146  19570533.9844   19570542.0634   19570535.1104
      4635.3404       3611.9534
 -15072288.95849 -11690372.51747  17473290.3214   17473296.0464   17473290.0634
      7156.4974       5576.4914
 -25449940.42849 -19283935.76347  17379509.2114   17379515.6364   17379509.2034
      5926.1814       4617.8034
 -17735097.66649 -13390040.42846  19526010.9144   19526021.6734   19526006.0534
      3531.3894       2751.7324
 -30073256.71849 -22771062.76547  18074845.3984   18074851.3884   18074844.9394
      7611.9984       5931.4274
 -12710922.33649  -9882596.70646  18810493.2004   18810499.8964   18810493.0104
      2705.5704       2108.2364
 05  4 27 11 52 14.9870000  0  8G 1G 5G14G24G 7G 9G20G11
 -29416476.91049 -21091187.94146  19481170.2074   19481181.2634   19481170.4214
      7261.2904       5658.1484
  -3364799.22149  -2569621.29246  20132202.9024   20132202.7894   20132201.0964
      8671.9254       6757.3444
 -21846775.85849 -17004101.69246  19557316.1814   19557325.1284   19557317.5484
      4625.6824       3604.4274
 -15179580.09649 -11773976.02747  17452873.3184   17452879.1284   17452873.3124
      7148.8574       5570.5384
 -25538775.75949 -19353158.09747  17362605.0534   17362610.6714   17362605.0284
      5918.3374       4611.6914
 -17788002.97149 -13431265.34346  19515940.7994   19515946.7404   19515942.5594
      3522.5734       2744.8624
 -30187373.38649 -22859984.80547  18053129.8984   18053135.2644   18053129.4164
      7603.4494       5924.7654
 -12751471.35049  -9914193.33946  18802774.0354   18802782.5714   18802774.5414
      2700.8874       2104.5874
 05  4 27 11 52 29.9870000  0  8G 1G 5G14G24G 7G 9G20G11
 -29525330.45849 -21176008.85446  19460455.5004   19460468.0144   19460455.5644
      7252.4454       5651.2564
  -3494834.14749  -2670947.13245  20107458.5014   20107457.4694   20107457.0164
      8665.9804       6752.7124
 -21916086.85249 -17058110.26446  19544126.3794   19544136.7214   19544128.0434
      4615.6804       3596.6344
 -15286753.53249 -11857487.75747  17432478.6274   17432484.9404   17432478.5254
      7140.8074       5564.2654
 -25627490.13249 -19422286.19147  17345723.6784   17345728.9594   17345723.2174
      5910.0664       4605.2464
 -17840771.29057 -13472383.38255  19505896.1784   19505911.3244   19505886.7474
      3507.7954       2733.3474
 -30301358.36949 -22948804.27447  18031439.5404   18031444.9644   18031439.0414
      7594.4614       5917.7624
 -12791946.48849  -9945732.42846  18795072.6854   18795079.9224   18795074.5634
      2695.7424       2100.5784
 05  4 27 11 52 44.9870000  0  8G 1G 5G14G24G 7G 9G20G11
 -29634052.66649 -21260727.43346  19439765.0634   19439778.7294   19439766.1974
      7244.1284       5644.7754
  -3624781.77749  -2772205.00645  20082729.4064   20082729.1864   20082727.2334
      8660.6604       6748.5664
 -21985250.05849 -17112003.68846  19530964.6464   19530975.1134   19530966.6844
      4606.3764       3589.3844
 -15393808.28649 -11940907.00747  17412106.5464   17412112.8644   17412106.5614
      7133.4004       5558.4934
 -25716082.65749 -19491319.31247  17328864.6294   17328870.5054   17328864.3074
      5902.4264       4599.2934
                                  19495885.532
      3504.832        2731.038
 -30415210.52249 -23037520.22547  18009774.4624   18009779.7384   18009773.9144
      7586.0784       5911.2304
 -12832347.27649  -9977213.59446  18787388.8954   18787392.3874   18787389.1954
      2691.2844       2097.1044
 05  4 27 11 52 59.9870000  0  8G 1G 5G14G24G 7G 9G20G11
 -29742645.93249 -21345345.54546  19419099.4834   19419114.4514   19419101.3644
      7235.2254       5637.8384
  -3754644.44649  -2873396.64045  20058014.6234   20058017.5714   20058012.6324
      8654.6784       6743.9054
 -22054268.19949 -17165784.14746  19517830.9154   19517840.9904   19517832.1224
      4596.3864       3581.5994
 -15500746.92049 -12024235.77847  17391757.0174   17391763.1354   17391756.9524
      7125.3504       5552.2214
 -25804555.94849 -19560259.54047  17312028.2054   17312034.4344   17312028.0954
      5894.2054       4592.8874
    -38917.92253                  19485912.1494
      3495.6514       2723.8844
 -30528932.20849 -23126134.51847  17988134.3114   17988139.3744   17988133.7684
      7577.0804       5904.2184
 -12872676.49149 -10008638.99346  18779717.5544   18779718.1494   18779716.6114
      2686.2134       2093.1534
 05  4 27 11 53 14.9870000  0  8G 1G 5G14G24G 7G 9G20G11
 -29851106.11249 -21429859.94746  19398459.8824   19398476.0594   19398461.9754
      7226.1004       5630.7274
  -3884417.99149  -2974518.89645  20033315.3444   20033321.1354   20033313.4024
      8648.5184       6739.1054
 -22123137.32849 -17219448.35646  19504725.6194   19504734.9584   19504727.3224
      4586.2604       3573.7094
 -15607565.44649 -12107470.98347  17371430.2104   17371436.1744   17371430.0874
      7117.1284       5545.8144
 -25892906.03949 -19629103.77347  17295215.2874   17295222.5944   17295215.4924
      5885.7344       4586.2864
    -79721.25646                  19475930.7184
      3486.3584       2716.6434
 -30642519.33249 -23214643.97147  17966519.7524   17966524.4924   17966519.2834
      7567.8654       5897.0384
 -12912930.59249 -10040005.86846  18772058.7584   18772059.2584   18772057.6004
      2680.9934       2089.0854
 05  4 27 11 53 29.9870000  0  8G 1G 5G14G24G 7G 9G20G11
 -29959434.74449 -21514271.83846  19377846.5094   19377862.1924   19377847.4064
      7217.6284       5624.1264
  -4014103.81849  -3075572.79545  20008632.5014   20008642.8994   20008633.4674
      8642.8854       6734.7164
 -22191859.59249 -17272998.20846  19491648.6574   19491657.4794   19491649.9464
      4576.7104       3566.2684
 -15714265.57849 -12190613.92647  17351125.5224   17351131.6984   17351125.4024
      7109.5174       5539.8834
 -25981134.58449 -19697853.29747  17278425.6454   17278433.2134   17278425.8584
      5877.9334       4580.2084
   -120420.37346                  19465993.8824   19465996.5304
      3477.7104       2709.9044
 -30755973.36649 -23303049.70547  17944930.1254   17944934.7554   17944929.6724
      7559.2794       5890.3474
 -12953111.62849 -10071315.81246  18764412.5864   18764414.2874   18764411.8094
      2676.4234       2085.5244
 05  4 27 11 53 44.9870000  0  8G 1G 5G14G24G 7G 9G20G11
 -30067631.33149 -21598580.85846  19357258.4534   19357272.1344   19357258.8894
      7208.9084       5617.3314
  -4143701.28749  -3176557.90345  19983971.5404   19983981.1054   19983973.3594
      8637.0044       6730.1334
 -22260434.64549 -17326433.32246  19478599.8134   19478608.0774   19478600.5984
      4566.9934       3558.6964
 -15820846.75649 -12273664.16747  17330843.7014   17330849.9894   17330843.7694
      7101.6344       5533.7414
 -26069241.21049 -19766507.82447  17261659.5274   17261667.0354   17261659.4624
      5869.8634       4573.9194
   -161014.67746                  19456080.0204   19456083.5964
      3468.8104       2702.9694
 -30869293.85649 -23391351.37947  17923366.1474   17923370.4074   17923365.4654
      7550.4434       5883.4624
 -12993219.46449 -10102568.70146  18756779.6264   18756782.5844   18756778.2704
      2671.6314       2081.7904
 05  4 27 11 53 59.9870000  0  8G 1G 5G14G24G 7G 9G20G11
 -30175695.81649 -21682786.93746  19336694.1554   19336708.8594   19336694.2594
      7199.6974       5610.1544
  -4273210.18949  -3277473.88645  19959329.8294   19959335.3104   19959330.8504
      8630.8164       6725.3114
 -22328863.04749 -17379754.18946  19465579.7974   19465586.3494   19465579.6084
      4556.8044       3550.7564
 -15927309.15949 -12356621.87647  17310584.6244   17310590.7154   17310584.6664
      7093.3484       5527.2844
 -26157226.21249 -19835067.60647  17244916.7844   17244924.0194   17244916.7874
      5861.3854       4567.3134
   -281175.85849   -201504.69646  19446192.0314   19446197.5204   19446191.9644
      3459.5214       2695.7314
 -30982480.60749 -23479548.84147  17901827.5544   17901832.1004   17901826.5044
      7541.1494       5876.2204
 -13033254.61549 -10133764.91546  18749158.0944   18749164.1584   18749157.3974
      2666.4334       2077.7404
 05  4 27 11 54 14.9870000  0  8G 1G 5G14G24G 7G 9G20G11
 -30283628.77849 -21766890.52346  19316154.1184   19316168.4824   19316156.3304
      7191.1874       5603.5224
  -4402631.08849  -3378321.35645  19934705.0614   19934708.3234   19934705.5854
      8625.2074       6720.9414
 -22397145.68649 -17432961.47546  19452587.3894   19452592.8384   19452586.4484
      4547.3344       3543.3774
 -16033653.35149 -12439487.48147  17290348.0624   17290354.2834   17290347.9914
      7085.7304       5521.3484
 -26245090.19549 -19903533.07847  17228197.4384   17228203.9684   17228196.9144
      5853.5974       4561.2444
   -333005.31649   -241891.29946  19436328.6264   19436334.3224   19436327.9934
      3450.9624       2689.0614
 -31095534.34449 -23567642.64547  17880313.6734   17880318.7074   17880312.7784
      7532.5464       5869.5164
 -13073218.18049 -10164905.34046  18741547.6434   18741557.5664   18741548.0304
      2661.9074       2074.2134
 05  4 27 11 54 29.9870000  0  8G 1G 5G14G24G 7G 9G20G11
 -30391430.27949 -21850891.68046  19295641.2374   19295653.9204   19295642.5834
      7182.4424       5596.7084
  -4531963.79549  -3479100.08445  19910095.3734   19910096.3914   19910093.6874
      8619.3004       6716.3384
 -22465282.99549 -17486055.55446  19439621.8634   19439625.8144   19439620.2994
      4537.7534       3535.9114
 -16139879.48049 -12522261.10947  17270134.1344   17270140.4944   17270134.0774
      7077.8904       5515.2394
 -26332833.28649 -19971904.33447  17211500.8794   17211506.6254   17211500.6324
      5845.5284       4554.9574
   -384702.58149   -282174.87046  19426487.4304   19426495.0654   19426491.6014
      3442.1774       2682.2164
 -31208455.03249 -23655632.77747  17858825.1274   17858830.4064   17858824.5164
      7523.6784       5862.6064
 -13113110.52749 -10195990.25546  18733955.6164   18733966.5404   18733957.9614
      2657.1524       2070.5084
 05  4 27 11 54 44.9870000  0  8G 1G 5G14G24G 7G 9G20G11
 -30499098.06849 -21934788.63046  19275153.9194   19275165.0094   19275154.3284
      7173.4194       5589.6774
  -4661206.05049  -3579808.32745  19885502.2994   19885503.6364   19885501.3964
      8613.1834       6711.5714
 -22533272.69849 -17539034.51746  19426684.8344   19426686.9774   19426682.5134
      4527.7864       3528.1454
 -16245985.49849 -12604941.18147  17249942.9574   17249948.9924   17249942.9834
      7069.8074       5508.9414
 -26420453.55849 -20040179.87547  17194827.2004   17194833.0864   17194827.0104
      5837.2814       4548.5314
   -436266.04459   -322354.13456  19416678.2684   19416686.3384   19416678.0644
      3433.1194       2675.1584
 -31321240.33149 -23743517.41547  17837362.6204   17837368.2544   17837362.0744
      7514.5634       5855.5044
 -13152929.97349 -10227018.42346  18726383.8564   18726388.7554   18726384.4314
      2652.2734       2066.7064
 05  4 27 11 54 59.9870000  0  8G 1G 5G14G24G 7G 9G20G11
 -30606632.77449 -22018581.89546  19254691.6054   19254702.1164   19254691.2894
      7164.4604       5582.6964
  -4790358.33649  -3680446.48045  19860925.8324   19860925.4604   19860924.5454
      8607.0444       6706.7884
 -22601116.17049 -17591899.62346  19413774.8124   19413776.8384   19413772.8544
      4517.9604       3520.4884
 -16351971.95349 -12687528.05647  17229774.6584   17229780.4444   17229774.5634
      7061.7014       5502.6244
 -26507951.69349 -20108360.23247  17178177.1554   17178182.2524   17178176.9144
      5829.0584       4542.1234
   -487696.61049   -362430.01546  19406888.0664   19406897.4254   19406888.9434
      3424.2234       2668.2264
 -31433890.95849 -23831297.12147  17815926.0994   17815931.8554   17815925.5034
      7505.4864       5848.4314
 -13192677.51649 -10257990.57046  18718824.8894   18718824.1174   18718823.7634
      2647.3644       2062.8814
 05  4 27 11 55 14.9870000  0  8G 1G 5G14G24G 7G 9G20G11
 -30714032.98549 -22102270.38446  19234253.5694   19234263.6584   19234253.4964
      7155.8004       5575.9484
  -4919419.00349  -3781013.18545  19836365.8114   19836366.0464   19836363.6624
      8601.2784       6702.2954
 -22668812.29149 -17644649.90846  19400892.9904   19400894.9064   19400891.2734
      4508.4314       3513.0634
 -16457837.43049 -12770020.57547  17209629.0194   17209634.8724   17209628.9504
      7053.9564       5496.5894
 -26595326.43249 -20176444.43047  17161550.4674   17161555.8604   17161549.7494
      5821.0974       4535.9204
   -538993.75249   -402401.74445  19397127.7154   19397134.9104   19397124.7674
      3415.5994       2661.5064
 -31546405.19649 -23918970.52047  17794514.9684   17794520.9284   17794514.3644
      7496.6864       5841.5744
 -13232352.28349 -10288905.98746  18711276.9264   18711275.6094   18711275.0044
      2642.8464       2059.3604
 05  4 27 11 55 29.9870000  0  8G 1G 5G14G24G 7G 9G20G11
 -30821299.52449 -22185854.70746  19213841.3294   19213850.3094   19213841.7064
      7146.7414       5568.8894
  -5048388.88149  -3881509.23545  19811821.8574   19811823.8674   19811820.1564
      8595.0564       6697.4464
 -22736362.22249 -17697286.22646  19388038.7754   19388039.8924   19388036.7604
      4498.6234       3505.4214
 -16563583.19249 -12852419.85747  17189506.2704   17189512.1144   17189506.0134
      7045.8544       5490.2764
 -26682578.84649 -20244433.30647  17144946.4524   17144952.2154   17144946.3834
      5812.8434       4529.4884
   -590158.55949   -442270.46546  19387386.9734   19387399.6564   19387388.2144
      3406.7634       2654.6214
 -31658784.07749 -24006538.45947  17773129.7674   17773135.9144   17773129.4724
      7487.5544       5834.4584
 -13271955.65349 -10319765.78646  18703740.0664   18703738.9084   18703738.8974
      2637.9714       2055.5624
 05  4 27 11 55 44.9870000  0  8G 1G 5G14G24G 7G 9G20G11
 -30928432.91049 -22269335.26246  19193454.9094   19193463.4704   19193455.4064
      7137.8574       5561.9664
  -5177268.23549  -3981934.72245  19787293.7984   19787298.6394   19787293.9634
      8589.0034       6692.7304
 -22803767.20849 -17749809.74145  19375211.4124   19375213.4774   19375209.2614
      4488.9094       3497.8514
 -16669209.70649 -12934726.22347  17169406.1564   17169412.2154   17169406.0384
      7037.8684       5484.0534
 -26769709.51149 -20312327.31447  17128366.3034   17128372.2474   17128366.1504
      5804.7054       4523.1474
   -641192.25149   -482037.06646  19377677.8254   19377688.7484   19377679.3554
      3397.9714       2647.7704
 -31771028.14249 -24094001.32647  17751770.5974   17751776.2874   17751770.3654
      7478.4974       5827.4004
 -13311488.50649 -10350570.62146  18696215.8724   18696216.5194   18696215.0954
      2633.2324       2051.8694
 05  4 27 11 55 59.9870000  0  8G 1G 5G14G24G 7G 9G20G11
 -31035431.34949 -22352710.66946  19173094.4064   19173101.5264   19173093.8754
      7129.0214       5555.0814
  -5306055.22949  -4082288.21845  19762784.0654   19762791.7684   19762785.3064
      8583.0344       6688.0784
 -22871025.21949 -17802218.56946  19362411.3024   19362414.5994   19362410.9924
      4479.2934       3490.3584
 -16774715.22749 -13016938.30447  17149329.4284   17149335.4134   17149329.2334
      7029.9734       5477.9014
 -26856716.92749 -20380125.28747  17111809.2034   17111815.2044   17111808.9774
      5796.6724       4516.8874
   -692093.51249   -521700.26445  19367991.7744   19367996.4324   19367988.6974
      3389.3284       2641.0354
 -31883135.55649 -24181357.71147  17730437.6084   17730442.7444   17730437.1504
      7469.5784       5820.4504
 -13350949.52949 -10381319.49546  18688703.9574   18688707.1844   18688703.2274
      2628.6384       2048.2894
 05  4 27 11 56 14.9860000  0  8G 1G 5G14G24G 7G 9G20G11
 -31142287.86049 -22435975.46746  19152759.9244   19152767.6684   19152759.0534
      7119.6944       5547.8144
  -5434741.28649  -4182563.09745  19738298.2814   19738305.4984   19738300.0654
      8576.4884       6682.9784
 -22938132.58849 -17854510.07646  19349640.7924   19349644.8194   19349640.1954
      4469.2104       3482.5014
 -16880092.89849 -13099050.76947  17129276.6974   17129282.3584   17129276.6404
      7021.5864       5471.3664
 -26943595.51049 -20447822.89147  17095276.5524   17095282.9634   17095276.4894
      5788.1104       4510.2164
   -742859.64849   -561258.37946  19358333.4144   19358343.8574   19358335.4614
      3380.2244       2633.9414
 -31995099.03349 -24268601.95947  17709132.1004   17709136.7604   17709131.3254
      7460.1554       5813.1084
 -13390336.65949 -10412010.74846  18681203.6034   18681211.6484   18681203.6944
      2623.5984       2044.3624
 05  4 27 11 56 29.9860000  0  8G 1G 5G14G24G 7G 9G20G11
 -31249018.65649 -22519142.33346  19132449.1464   19132456.9824   19132448.6854
      7110.6434       5540.7614
  -5563345.42249  -4282774.09946  19713829.6864   19713834.3374   19713828.8614
      8570.3184       6678.1704
 -23005100.45149 -17906692.78746  19336896.4264   19336900.7954   19336896.7004
      4459.4324       3474.8824
 -16985358.78049 -13181076.14247  17109245.0304   17109251.0414   17109244.9354
      7013.4694       5465.0414
 -27030359.13149 -20515430.96747  17078765.8714   17078772.2844   17078765.8974
      5779.8664       4503.7924
   -793499.89349   -600718.30745  19348699.2754   19348703.2814   19348694.3374
      3371.4264       2627.0854
 -32106935.37749 -24355747.16347  17687850.4974   17687854.9064   17687849.6564
      7450.9694       5805.9504
 -13429657.63449 -10442650.44946  18673719.3844   18673729.2694   18673721.3004
      2618.8144       2040.6344
 05  4 27 11 56 44.9860000  0  8G 1G 5G14G24G 7G 9G20G11
 -31355613.26049 -22602203.07346  19112164.5564   19112171.8514   19112164.8574
      7101.7804       5533.8554
  -5691855.66549  -4382911.97946  19689376.7264   19689380.9384   19689375.0534
      8564.2254       6673.4224
 -23071921.71149 -17958761.37046  19324179.3764   19324185.7114   19324180.5284
      4449.8834       3467.4414
 -17090502.65849 -13263006.45947  17089236.8574   17089242.8884   17089236.7134
      7005.5474       5458.8684
 -27116998.74749 -20582942.42747  17062279.1064   17062285.0554   17062279.0734
      5771.8544       4497.5494
   -844007.94049   -640075.16846  19339084.2084   19339092.5264   19339086.9814
      3362.8384       2620.3934
 -32218633.73449 -24442784.83947  17666595.0614   17666599.2964   17666594.6004
      7441.9844       5798.9494
 -13468906.96449 -10473234.35846  18666253.4664   18666260.1684   18666254.4184
      2614.2354       2037.0664
 05  4 27 11 56 59.9860000  0  8G 1G 5G14G24G 7G 9G20G11
 -31462070.66049 -22685156.89946  19091906.7324   19091913.3614   19091906.6244
      7092.6394       5526.7324
  -5820270.68949  -4482975.63746  19664939.8494   19664944.4204   19664938.8234
      8557.8544       6668.4584
 -23138595.16349 -18010714.63946  19311490.3754   19311497.9714   19311492.3354
      4440.0304       3459.7644
 -17195523.67349 -13344841.03647  17069251.9304   17069258.1674   17069251.8664
      6997.3394       5452.4724
 -27203513.56949 -20650356.71947  17045816.0044   17045822.2744   17045815.7754
      5763.4864       4491.0284
   -894383.58249   -679328.94946  19329501.4524   19329508.8104   19329500.3454
      3354.0074       2613.5124
 -32330193.07249 -24529714.17847  17645365.9634   17645370.5804   17645365.2994
      7432.7034       5791.7174
 -13508084.15049 -10503762.07446  18658802.5224   18658804.9694   18658802.1984
      2609.4614       2033.3464
 05  4 27 11 57 14.9860000  0  8G 1G 5G14G24G 7G 9G20G11
 -31568393.43349 -22768005.80846  19071675.4684   19071680.3574   19071674.2864
      7083.5704       5519.6654
  -5948593.05149  -4582967.07846  19640520.0504   19640524.6154   19640519.5594
      8551.5994       6663.5844
 -23205124.45549 -18062555.72846  19298831.0054   19298838.8054   19298832.6294
      4430.3844       3452.2474
 -17300424.64749 -13426582.07547  17049289.9304   17049295.9864   17049289.7244
      6989.2624       5446.1784
 -27289906.12149 -20717675.64247  17029376.0004   17029382.3624   17029375.8024
      5755.2754       4484.6304
   -944629.82049   -718481.92845  19319935.2654   19319942.0274   19319931.7114
      3345.2854       2606.7154
 -32441616.14449 -24616537.36947  17624162.9824   17624167.1114   17624162.5704
      7423.5144       5784.5564
 -13547192.15249 -10534235.87946  18651362.1004   18651363.2934   18651361.4904
      2604.7544       2029.6784
 05  4 27 11 57 29.9860000  0  8G 1G 5G14G24G 7G 9G20G11
 -31674580.70749 -22850749.16446  19051469.5124   19051474.1944   19051467.7164
      7074.3924       5512.5134
  -6076821.81549  -4682885.58346  19616118.1644   19616122.0744   19616116.6754
      8545.2534       6658.6394
 -23271508.69549 -18114283.72146  19286199.4574   19286206.8454   19286200.3154
      4420.5854       3444.6124
 -17405204.78149 -13508228.95147  17029350.5404   17029357.3374   17029350.3884
      6981.1134       5439.8284
 -27376175.81049 -20784898.81947  17012959.2324   17012965.2194   17012959.2814
      5746.9624       4478.1524
   -994746.53449   -757533.90045  19310400.3034   19310407.9604   19310401.0154
      3336.5874       2599.9384
 -32552901.98949 -24703253.62747  17602985.9864   17602990.4274   17602985.2214
      7414.2624       5777.3474
 -13586230.65049 -10564655.52846  18643933.3064   18643936.1504   18643932.8004
      2600.0514       2026.0144
 05  4 27 11 57 44.9860000  0  8G 1G 5G14G24G 7G 9G20G11
 -31780631.70449 -22933386.27546  19031289.1604   19031293.4944   19031287.3264
      7065.6654       5505.7134
  -6204956.19549  -4782730.54645  19591734.0764   19591738.1534   19591733.4854
      8539.2994       6653.9994
 -23337747.66449 -18165898.49746  19273595.1414   19273601.6744   19273595.0364
      4411.2584       3437.3444
 -17509863.46149 -13589781.19647  17009434.6964   17009441.3964   17009434.7514
      6973.3384       5433.7704
 -27462322.09149 -20852025.75247  16996565.9484   16996572.1984   16996565.8284
      5739.0574       4471.9924
  -1044733.37449   -796484.71145  19300889.6524   19300897.5964   19300884.4174
      3328.2744       2593.4604
 -32664049.96049 -24789862.45347  17581834.8404   17581839.4554   17581834.4444
      7405.4214       5770.4584
 -13625199.42649 -10595020.82446  18636516.8944   18636520.7874   18636516.0864
      2595.7374       2022.6524
 05  4 27 11 57 59.9860000  0  8G 1G 5G14G24G 7G 9G20G11
 -31886544.54149 -23015915.75546  19011134.9804   19011139.1374   19011132.5194
      7056.3484       5498.4534
  -6332994.11349  -4882500.34445  19567368.7624   19567372.5414   19567368.0344
      8532.7344       6648.8844
 -23403839.84149 -18217398.90646  19261016.8354   19261025.1404   19261018.0804
      4401.3914       3429.6554
 -17614398.69549 -13671237.27447  16989542.4014   16989549.1074   16989542.6564
      6965.0204       5427.2884
 -27548343.54749 -20919055.58547  16980197.5654   16980203.1584   16980196.7394
      5730.6534       4465.4444
  -1094588.64449   -835333.18346  19291399.8994   19291408.4914   19291406.4564
      3319.4504       2586.5844
 -32775058.05449 -24876362.26947  17560710.2474   17560715.4854   17560709.6894
      7395.9874       5763.1074
 -13664096.99849 -10625330.64446  18629112.8804   18629118.2004   18629112.1084
      2590.9234       2018.9014
 05  4 27 11 58 14.9860000  0  8G 1G 5G14G24G 7G 9G20G11
 -31992321.40949 -23098339.28046  18991006.7654   18991010.0534   18991003.8684
      7047.2784       5491.3854
  -6460937.72449  -4982196.68245  19543019.9924   19543027.4544   19543021.7284
      8526.4764       6644.0074
 -23469787.72349 -18268786.86646  19248466.1914   19248475.3464   19248468.5004
      4391.7764       3422.1634
 -17718812.83849 -13752598.99847  16969673.2064   16969679.4844   16969673.0154
      6956.9364       5420.9894
 -27634242.03949 -20985989.52347  16963851.5104   16963857.3364   16963851.0924
      5722.4804       4459.0754
  -1144315.68849   -874081.31345  19281943.4104   19281944.3824   19281940.4854
      3310.8924       2579.9164
 -32885928.43449 -24962754.77547  17539611.8494   17539617.7634   17539611.3274
      7386.7964       5755.9454
 -13702926.02649 -10655587.02346  18621720.8954   18621730.4634   18621722.2894
      2586.3344       2015.3254
 05  4 27 11 58 29.9860000  0  8G 1G 5G14G24G 7G 9G20G11
 -32097960.33549 -23180655.33346  18970903.4294   18970908.3994   18970901.1744
      7038.1304       5484.2574
  -6588784.74749  -5081817.76745  19518691.3434   19518699.1194   19518692.5924
      8520.0204       6638.9774
 -23535589.85649 -18320061.25846  19235945.5044   19235953.5584   19235946.4414
      4382.1134       3414.6344
 -17823103.89449 -13833864.80647  16949827.3444   16949833.9254   16949827.2544
      6948.7614       5414.6194
 -27720015.90349 -21052826.30647  16947529.0874   16947535.1544   16947528.4264
      5714.1934       4452.6184
  -1193912.38849   -912728.30046  19272499.7324   19272508.5344   19272506.3594
      3302.2934       2573.2154
 -32996659.06349 -25049038.38747  17518539.9234   17518546.5154   17518539.7874
      7377.5184       5748.7154
 -13741684.96649 -10685788.79246  18614343.7134   18614354.5314   18614345.7224
      2581.7264       2011.7354
 05  4 27 11 58 44.9860000  0  8G 1G 5G14G24G 7G 9G20G11
 -32203462.06949 -23262864.47046  18950826.9074   18950832.1484   18950826.6984
      7029.1544       5477.2634
  -6716535.79549  -5181364.02946  19494382.9254   19494389.3954   19494383.6374
      8513.7974       6634.1274
 -23601247.18949 -18371222.76646  19223453.0604   19223459.9794   19223452.9744
      4372.6414       3407.2534
 -17927272.70049 -13915035.30047  16930004.6044   16930011.1764   16930004.6854
      6940.8044       5408.4194
 -27805666.20749 -21119566.86247  16931230.6574   16931236.3584   16931229.7404
      5706.1354       4446.3394
  -1243380.82049   -951274.98446  19263091.6974   19263092.5214   19263090.6234
      3293.9224       2566.6924
 -33107250.78749 -25135213.76647  17497494.8364   17497501.5234   17497494.7524
      7368.4114       5741.6194
 -13780375.06349 -10715936.93246  18606982.5214   18606991.1464   18606984.1664
      2577.3334       2008.3114
 05  4 27 11 58 59.9860000  0  8G 1G 5G14G24G 7G 9G20G11
 -32308827.20749 -23344967.17146  18930778.0064   18930782.0234   18930776.4654
      7019.5814       5469.8034
  -6844191.39949  -5280835.89646  19470093.3304   19470098.4954   19470093.4214
      8506.9784       6628.8144
 -23666760.78149 -18422272.31246  19210986.3704   19210993.4904   19210985.9504
      4362.5334       3399.3764
 -18031319.95049 -13996111.03347  16910205.1154   16910211.6964   16910205.2014
      6932.2344       5401.7414
 -27891193.36149 -21186211.33547  16914955.2074   16914960.8534   16914954.8944
      5697.4674       4439.5854
  -1292721.47949   -989722.30745  19253695.8074   19253704.3204   19253697.2394
      3284.9774       2559.7224
 -33217704.03849 -25221281.23847  17476476.8354   17476483.0944   17476476.5614
      7358.7484       5734.0894
 -13818997.39649 -10746032.27746  18599635.3844   18599641.6304   18599635.9854
      2572.3694       2004.4434
 05  4 27 11 59 14.9860000  0  8G 1G 5G14G24G 7G 9G20G11
 -32414052.99049 -23426961.28546  18910756.0824   18910758.4604   18910753.3854
      7010.5574       5462.7724
  -6971748.56149  -5380231.04846  19445821.2894   19445823.7164   19445819.9744
      8500.6704       6623.8994
 -23732128.39049 -18473208.15946  19198546.2834   19198553.8764   19198546.5994
      4353.1614       3392.0744
 -18135243.01349 -14077089.99247  16890429.2144   16890435.6964   16890429.1114
      6924.1944       5395.4764
 -27976595.02649 -21252758.01947  16898704.1294   16898709.5674   16898703.6414
      5689.3724       4433.2774
  -1341932.67449  -1028068.66046  19244336.5454   19244340.7204   19244336.2004
      3276.5594       2553.1634
 -33328016.07449 -25307238.67147  17455485.6754   17455491.4084   17455485.3294
      7349.5694       5726.9374
 -13857549.51149 -10776072.92246  18592302.1324   18592303.7544   18592301.4904
      2567.9414       2000.9934
 05  4 27 11 59 29.9860000  0  8G 1G 5G14G24G 7G 9G20G11
 -32519142.30849 -23508849.06446  18890758.1544   18890760.7204   18890756.3104
      7001.3504       5455.5974
  -7099210.10849  -5479551.69046  19421565.9624   19421569.0604   19421564.4514
      8494.1604       6618.8264
 -23797353.04149 -18524032.58846  19186135.0884   19186142.2364   19186135.2914
      4343.4834       3384.5324
 -18239045.02749 -14157974.68647  16870676.5604   16870682.6394   16870676.3764
      6916.0464       5389.1274
 -28061874.33949 -21319209.42147  16882476.3294   16882480.9344   16882475.9064
      5681.1094       4426.8384
  -1391017.44249  -1066316.57345  19234993.6214   19234999.0724   19234991.0044
      3268.0054       2546.4974
 -33438189.96549 -25393088.46447  17434520.6964   17434525.7504   17434520.5614
      7340.2424       5719.6694
 -13896034.84449 -10806061.54646  18584979.6054   18584979.2184   18584978.8784
      2563.3814       1997.4404
 05  4 27 11 59 44.9860000  0  8G 1G 5G14G24G 7G 9G20G11
 -32624092.42149 -23590628.36046  18870785.7324   18870788.6054   18870784.3504
      6992.1654       5448.4404
  -7226573.13849  -5578795.59046  19397327.8004   19397333.9614   19397326.9774
      8487.7134       6613.8024
 -23862432.39549 -18574743.78546  19173752.3154   19173757.8974   19173751.5804
      4333.9034       3377.0674
 -18342723.21149 -14238762.86647  16850947.3924   16850953.4564   16850947.3084
      6907.8674       5382.7544
 -28147028.56249 -21385563.31147  16866271.8734   16866276.6804   16866271.4664
      5672.8944       4420.4374
  -1439973.69949  -1104464.32545  19225675.8314   19225683.5744   19225677.1504
      3259.6254       2539.9684
 -33548222.76649 -25478828.31747  17413582.5234   17413587.2404   17413581.9274
      7330.9354       5712.4174
 -13934451.14849 -10835996.36446  18577669.4384   18577667.8774   18577667.8774
      2558.8934       1993.9434
 05  4 27 11 59 59.9860000  0  8G 1G 5G14G24G 7G 9G20G11
 -32728903.84649 -23672299.59046  18850841.4254   18850844.0804   18850840.5324
      6982.6684       5441.0404
  -7353838.05649  -5677963.05746  19373107.7534   19373114.4554   19373106.3724
      8480.9364       6608.5224
 -23927367.31749 -18625342.43446  19161396.1824   19161401.7184   19161395.4814
      4324.0104       3369.3584
 -18446278.18449 -14319455.03147  16831241.3584   16831247.6654   16831241.1994
      6899.4124       5376.1654
 -28232058.44149 -21451820.29747  16850090.9284   16850096.4894   16850090.5454
      5664.3284       4413.7624
  -1488802.44949  -1142512.68946  19216385.3984   19216391.8104   19216385.7964
      3250.8534       2533.1324
 -33658114.98849 -25564458.61647  17392670.8354   17392675.7134   17392670.3984
      7321.3184       5704.9234
 -13972799.24849 -10865878.01946  18570371.3534   18570371.9274   18570370.7864
      2554.1294       1990.2304
 05  4 27 12  0 14.9860000  0  8G 1G 5G14G24G 7G 9G20G11
 -32833576.75849 -23753862.91346  18830923.7884   18830925.4124   18830923.0914
      6973.7804       5434.1144
  -7481004.91849  -5777054.10546  19348906.8394   19348916.1014   19348907.3374
      8474.6914       6603.6554
 -23992158.47649 -18675829.04046  19149066.4874   19149071.6944   19149065.7734
      4314.8314       3362.2064
 -18549710.20149 -14400051.40447  16811558.8274   16811565.0424   16811558.7994
      6891.5414       5370.0324
 -28316964.20849 -21517980.55747  16833933.9484   16833939.3424   16833933.7734
      5656.3704       4407.5614
  -1537504.39149  -1180462.28445  19207114.6474   19207125.2474   19207113.7834
      3242.7464       2526.8154
 -33767866.85449 -25649979.54447  17371786.0914   17371790.6414   17371785.4044
      7312.2764       5697.8774
 -14011079.92449 -10895707.15846  18563086.5984   18563089.0564   18563085.6874
      2549.9494       1986.9734
 05  4 27 12  0 29.9860000  0  8G 1G 5G14G24G 7G 9G20G11
 -32938110.61649 -23835317.87446  18811032.7904   18811032.2994   18811031.3534
      6964.1444       5426.6064
  -7608073.14749  -5876068.33546  19324727.1634   19324735.0844   19324728.4034
      8467.8014       6598.2864
 -24056805.68449 -18726203.48746  19136763.2324   19136769.8614   19136764.3374
      4304.8104       3354.3974
 -18653018.88549 -14480551.67647  16791899.8254   16791905.9704   16791899.7944
      6882.9994       5363.3764
 -28401745.64449 -21584043.95247  16817800.1734   16817805.7294   16817800.1204
      5647.7684       4400.8584
  -1586079.74249  -1218313.29846  19197873.8174   19197881.3874   19197875.4174
      3234.0134       2520.0104
 -33877477.85049 -25735390.70147  17350927.9734   17350932.2764   17350927.0794
      7302.5624       5690.3084
 -14049293.05949 -10925483.65146  18555814.2674   18555820.1434   18555812.6884
      2545.1624       1983.2434
 05  4 27 12  0 44.9850000  0  8G 1G 5G14G24G 7G 9G20G11
 -33042496.93349 -23916657.84946  18791169.1604   18791168.9294   18791168.2044
      6954.8264       5419.3454
  -7735032.50649  -5974997.71346  19300569.5694   19300576.1054   19300569.1584
      8461.1404       6593.0964
 -24121303.51149 -18776461.52946  19124489.9054   19124497.2044   19124490.6674
      4295.3484       3347.0244
 -18756195.77549 -14560949.25247  16772266.0184   16772271.8224   16772265.9624
      6874.7154       5356.9214
 -28486395.72549 -21650005.03847  16801691.8264   16801697.6424   16801691.6974
      5639.4484       4394.3754
  -1634524.27049  -1256062.27846  19188655.8464   19188662.1444   19188654.5684
      3225.5894       2513.4464
 -33986939.07249 -25820685.17547  17330098.2664   17330102.3864   17330097.4204
      7293.1144       5682.9464
 -14087435.00449 -10955204.66846  18548554.4674   18548562.8244   18548552.5194
      2540.6454       1979.7234
 05  4 27 12  0 59.9850000  0  8G 1G 5G14G24G 7G 9G20G11
 -33146751.94649 -23997895.51146  18771330.1664   18771329.5914   18771328.2604
      6945.8384       5412.3414
  -7861902.05449  -6073857.08246  19276428.0334   19276431.8214   19276428.1694
      8454.8124       6588.1654
 -24185663.25749 -18826612.02446  19112242.9674   19112249.0134   19112243.3264
      4286.0024       3339.7424
 -18859257.17649 -14641256.83947  16752653.8874   16752659.8944   16752653.7564
      6866.7894       5350.7454
 -28570928.12849 -21715874.42447  16785605.5304   16785611.3674   16785605.2774
      5631.4474       4388.1414
  -1682847.02849  -1293716.41046  19179459.4984   19179468.1794   19179459.0974
      3217.4524       2507.1054
 -34096267.48349 -25905876.14347  17309293.2024   17309297.4824   17309292.4174
      7284.0104       5675.8524
 -14125513.57249 -10984876.27946  18541305.1704   18541316.7214   18541304.6204
      2536.4804       1976.4784
 05  4 27 12  1 14.9850000  0  8G 1G 5G14G24G 7G 9G20G11
 -33250866.68349 -24079023.87946  18751517.3484   18751516.4404   18751516.2564
      6936.3384       5404.9394
  -7988671.27349  -6172638.28946  19252305.0734   19252307.6634   19252304.0264
      8447.9694       6582.8334
 -24249878.86349 -18876650.18746  19100022.3404   19100029.3854   19100022.4524
      4276.2954       3332.1784
 -18962194.26549 -14721467.55147  16733065.4884   16733072.0124   16733065.4184
      6858.3584       5344.1754
 -28655335.44849 -21781646.33647  16769543.2274   16769549.2284   16769542.7734
      5622.9744       4381.5384
  -1731043.44549  -1331272.09746  19170289.4464   19170296.7604   19170289.6464
      3208.9594       2500.4884
 -34205453.64649 -25990956.26447  17288515.0984   17288520.4144   17288514.4014
      7274.3704       5668.3404
 -14163524.84849 -11014495.46446  18534071.0744   18534083.4044   18534072.2074
      2531.8804       1972.8934
 05  4 27 12  1 29.9850000  0  8G 1G 5G14G24G 7G 9G20G11
 -33354842.78849 -24160044.22846  18731731.0184   18731731.1214   18731730.1924
      6927.2154       5397.8304
  -8115341.71149  -6271342.54945  19228199.9614   19228201.8594   19228198.3134
      8441.4944       6577.7884
 -24313952.40249 -18926577.65646  19087827.8834   19087836.7384   19087829.5974
      4266.9354       3324.8844
 -19065008.70749 -14801582.70047  16713500.7254   16713506.9314   16713500.5664
      6850.3184       5337.9104
 -28739619.42449 -21847322.16847  16753504.4794   16753510.4884   16753504.2834
      5614.9114       4375.2554
  -1779115.69449  -1368730.98546  19161141.9574   19161147.0894   19161140.2434
      3200.8134       2494.1404
 -34314499.36749 -26075926.95147  17267763.7534   17267769.5394   17267763.9814
      7265.1534       5661.1584
 -14201470.71349 -11044063.70546  18526853.2974   18526860.6744   18526854.2394
      2527.6474       1969.5954
 05  4 27 12  1 44.9850000  0  8G 1G 5G14G24G 7G 9G20G11
 -33458678.13949 -24240954.89046  18711971.6714   18711971.2544   18711970.5624
      6917.5694       5390.3144
  -8241910.93549  -6369967.86646  19204114.4794   19204117.1034   19204114.4084
      8434.4644       6572.3104
 -24377882.14649 -18976393.01546  19075661.8924   19075671.6794   19075663.6244
      4257.1664       3317.2724
 -19167698.43349 -14881600.65147  16693959.3424   16693965.8324   16693959.1684
      6841.7144       5331.2064
 -28823778.14349 -21912900.39547  16737489.6504   16737495.5804   16737489.4114
      5606.2414       4368.4994
  -1827062.19149  -1406091.92646  19152017.9514   19152025.3824   19152018.7174
      3192.1344       2487.3774
 -34423402.30149 -26160786.37647  17247040.3084   17247045.7944   17247040.5744
      7255.3444       5653.5154
 -14239349.42049 -11073579.62246  18519648.7864   18519651.7854   18519647.3294
      2522.9064       1965.9014
 05  4 27 12  1 59.9850000  0  8G 1G 5G14G24G 7G 9G20G11
 -33562372.34949 -24321755.57246  18692239.9844   18692239.4144   18692239.5544
      6908.2624       5383.0614
  -8368378.46249  -6468513.96645  19180048.2104   19180052.5304   19180047.1064
      8427.7964       6567.1144
 -24441667.93249 -19026096.12546  19063523.0844   19063532.9064   19063525.5644
      4247.6694       3309.8724
 -19270263.04649 -14961521.13147  16674442.1984   16674448.2464   16674442.0914
      6833.4904       5324.7974
 -28907811.33749 -21978380.83747  16721499.2314   16721504.8094   16721498.6494
      5598.0414       4362.1104
  -1874883.06249  -1443354.96946  19142918.7904   19142923.3094   19142918.1214
      3183.9394       2480.9914
 -34532162.12949 -26245534.30247  17226344.3204   17226349.4924   17226344.4184
      7245.9184       5646.1704
 -14277161.01049 -11103043.24446  18512455.1904   18512453.7984   18512453.7954
      2518.6104       1962.5534
 05  4 27 12  2 14.9850000  0  8G 1G 5G14G24G 7G 9G20G11
 -33665926.17249 -24402446.87446  18672535.0034   18672533.7504   18672533.6634
      6898.8764       5375.7484
  -8494744.91849  -6566981.35246  19155999.6104   19156005.4384   19155999.4744
      8421.0114       6561.8274
 -24505311.35149 -19075688.46346  19051411.6884   19051422.6694   19051415.4344
      4238.1024       3302.4174
 -19372703.36749 -15041344.76947  16654948.2624   16654954.7354   16654948.2814
      6825.1884       5318.3284
 -28991719.84749 -22043764.12147  16705532.0884   16705537.7864   16705531.4564
      5589.6864       4355.5994
  -1922579.51549  -1480521.05246  19133841.3634   19133844.9464   19133840.8824
      3175.6314       2474.5184
 -34640779.50249 -26330171.22347  17205675.5454   17205679.8684   17205675.5484
      7236.3774       5638.7354
 -14314906.76649 -11132455.55846  18505272.0554   18505269.7634   18505270.1684
      2514.1484       1959.0764
 05  4 27 12  2 29.9850000  0  8G 1G 5G14G24G 7G 9G20G11
 -33769339.59549 -24483028.76746  18652855.7064   18652853.9954   18652854.1664
      6889.2294       5368.2304
  -8621010.19649  -6665369.88846  19131970.8544   19131981.6584   19131970.7794
      8413.9964       6556.3614
 -24568812.42949 -19125169.86146  19039328.1014   19039339.0874   19039330.7494
      4228.3894       3294.8494
 -19475019.59549 -15121071.70647  16635477.9734   16635484.3704   16635477.8294
      6816.6574       5311.6814
 -29075503.78249 -22109050.31947  16689588.1614   16689594.1964   16689587.7164
      5581.1234       4348.9274
  -1970152.16549  -1517590.61046  19124789.0474   19124793.3874   19124788.5314
      3167.1014       2467.8714
 -34749254.42349 -26414697.14647  17185033.7894   17185038.2204   17185033.3434
      7226.6204       5631.1324
 -14352587.26049 -11161817.04046  18498100.2244   18498100.6284   18498100.4914
      2509.5504       1955.4944
 05  4 27 12  2 44.9850000  0  8G 1G 5G14G24G 7G 9G20G11
 -33872610.45749 -24563499.57946  18633203.3974   18633202.2924   18633202.6304
      6880.2574       5361.2394
  -8747172.02549  -6763677.80646  19107963.0314   19107973.2914   19107963.4714
      8407.6064       6551.3814
 -24632169.40349 -19174538.99246  19027271.2104   19027282.9494   19027274.4314
      4219.2164       3287.7014
 -19577209.58749 -15200700.28447  16616031.7424   16616038.2654   16616031.7814
      6808.7374       5305.5094
 -29159161.27949 -22174238.02147  16673668.5194   16673674.5904   16673668.1284
      5573.1814       4342.7384
  -2017599.42149  -1554562.54346  19115759.9124   19115764.7334   19115759.1994
      3159.2374       2461.7434
 -34857584.80949 -26499110.43947  17164419.2404   17164423.7314   17164418.6864
      7217.4684       5624.0014
 -14390200.79449 -11191126.35345  18490941.4084   18490943.1244   18490941.4724
      2505.5884       1952.4064
 05  4 27 12  2 59.9850000  0  8G 1G 5G14G24G 7G 9G20G11
 -33975739.83249 -24643860.12346  18613577.2234   18613576.9344   18613575.1974
      6870.6064       5353.7194
  -8873231.31149  -6861905.84946  19083976.6174   19083985.0844   19083975.5494
      8400.6094       6545.9294
 -24695383.56949 -19223796.77146  19015242.9794   19015254.1144   19015245.2624
      4209.5714       3280.1854
 -19679274.42649 -15280231.33047  16596609.4524   16596616.1014   16596609.6274
      6800.2164       5298.8704
 -29242693.42049 -22239328.04547  16657773.1334   16657778.8934   16657772.6174
      5564.6584       4336.0974
  -2064922.80249  -1591437.97145  19106753.8584   19106758.0584   19106754.2244
      3150.8314       2455.1934
 -34965771.70649 -26583411.92747  17143832.0944   17143836.3894   17143831.4784
      7207.7374       5616.4184
 -14427748.63349 -11220384.43346  18483794.3804   18483799.9234   18483794.9344
      2501.0734       1948.8884
 05  4 27 12  3 14.9850000  0  8G 1G 5G14G24G 7G 9G20G11
 -34078726.47049 -24724109.44446  18593978.6564   18593979.5164   18593978.3184
      6861.0204       5346.2494
  -8999186.54649  -6960052.78646  19060009.9054   19060015.4414   19060008.5024
      8393.5714       6540.4454
 -24758454.08349 -19272942.56946  19003242.5334   19003252.4174   19003243.5014
      4199.9404       3272.6814
 -19781213.04849 -15359664.03247  16577211.1844   16577217.7814   16577211.0814
      6791.6764       5292.2154
 -29326099.19949 -22304319.60247  16641901.6934   16641907.5104   16641901.1934
      5556.1194       4329.4434
  -2112121.62449  -1628216.24345  19097772.7364   19097776.7034   19097773.2374
      3142.4254       2448.6434
 -35073813.79849 -26667600.57547  17123272.4664   17123276.8314   17123271.9254
      7197.9534       5608.7954
 -14465230.00849 -11249590.71046  18476659.9364   18476669.6884   18476660.7534
      2496.5234       1945.3434
 05  4 27 12  3 29.9850000  0  8G 1G 5G14G24G 7G 9G20G11
 -34181572.70649 -24804249.40046  18574407.5904   18574407.8514   18574406.9944
      6851.5414       5338.8634
  -9125039.99349  -7058120.38746  19036060.9684   19036066.3164   19036059.3304
      8386.6524       6535.0544
 -24821383.87149 -19321978.80646  18991269.0464   18991277.9734   18991270.3654
      4190.4124       3265.2564
 -19883027.86849 -15439000.25747  16557836.6044   16557842.8794   16557836.7894
      6783.3234       5285.7064
 -29409381.11249 -22369214.63847  16626053.5694   16626059.8044   16626053.3954
      5547.7784       4322.9444
  -2159198.63949  -1664899.65646  19088813.7794   19088819.2654   19088812.7824
      3134.2614       2442.2814
 -35181713.36349 -26751678.17647  17102739.6474   17102744.5874   17102739.0294
      7188.3604       5601.3194
 -14502647.67349 -11278747.33246  18469536.9764   18469548.9454   18469539.1524
      2492.1784       1941.9574
 05  4 27 12  3 44.9850000  0  8G 1G 5G14G24G 7G 9G20G11
 -34284276.15849 -24884278.08146  18554864.1064   18554864.9914   18554864.3904
      6842.1704       5331.5614
  -9250789.12149  -7156106.70445  19012130.6934   19012134.8614   19012130.2864
      8379.8214       6529.7314
 -24884170.90849 -19370903.78346  18979323.0334   18979329.6274   18979322.6954
      4181.1454       3258.0354
 -19984716.63149 -15518238.26747  16538486.1964   16538492.2954   16538486.1184
      6775.0494       5279.2594
 -29492536.95149 -22434011.42347  16610229.4934   16610235.5184   16610229.2694
      5539.5074       4316.4994
  -2206152.09449  -1701486.80246  19079879.1484   19079884.0734   19079878.5994
      3126.1374       2435.9514
 -35289468.12249 -26835642.92847  17082233.9184   17082239.4594   17082233.4604
      7178.8524       5593.9114
 -14539999.75349 -11307852.81945  18462428.9734   18462443.1154   18462431.5754
      2487.9804       1938.6864
 05  4 27 12  3 59.9850000  0  8G 1G 5G14G24G 7G 9G20G11
 -34386837.33249 -24964195.87946  18535347.8904   18535347.9664   18535347.4084
      6832.7824       5324.2464
  -9376434.46949  -7254012.16445  18988220.4354   18988223.8794   18988218.7024
      8372.9604       6524.3844
 -24946816.12249 -19419718.26446  18967402.7194   18967408.7934   18967401.6394
      4171.7404       3250.7064
 -20086280.00849 -15597378.56647  16519159.2234   16519165.4954   16519159.1784
      6766.8044       5272.8344
 -29575567.38449 -22498710.45447  16594428.9664   16594435.1094   16594428.7544
      5531.2284       4310.0484
  -2252983.19249  -1737978.62345  19070967.3664   19070972.2334   19070967.8274
      3118.1144       2429.6994
 -35397078.65349 -26919495.29647  17061755.4554   17061761.6204   17061755.3714
      7169.3124       5586.4774
 -14577287.38049 -11336908.15046  18455336.2064   18455345.7964   18455337.9804
      2483.7984       1935.4274
 05  4 27 12  4 14.9850000  0  8G 1G 5G14G24G 7G 9G20G11
 -34489256.79749 -25044003.25246  18515858.4424   18515857.9464   18515857.4834
      6823.0924       5316.6954
  -9501976.19449  -7351836.85145  18964329.5264   18964335.1724   18964328.3384
      8365.8154       6518.8174
 -25009320.27449 -19468422.80946  18955508.3574   18955513.3574   18955507.4754
      4162.0924       3243.1894
 -20187718.65149 -15676421.68147  16499855.9834   16499862.4574   16499855.9334
      6758.2524       5266.1704
 -29658472.99849 -22563312.20747  16578652.7674   16578658.4144   16578652.4504
      5522.7094       4303.4104
  -2299692.86149  -1774375.80445  19062079.8114   19062084.0634   19062080.6934
      3109.8044       2423.2244
 -35504545.33949 -27003235.56547  17041304.9814   17041311.7834   17041305.2024
      7159.4844       5578.8194
 -14614511.30549 -11365913.84146  18448256.7164   18448262.6504   18448256.1964
      2479.3054       1931.9264
 05  4 27 12  4 29.9850000  0  8G 1G 5G14G24G 7G 9G20G11
 -34591534.46849 -25123700.15046  18496395.6694   18496395.9444   18496395.1614
      6813.6084       5309.3054
  -9627414.19049  -7449580.74245  18940457.9564   18940466.0474   18940457.8744
      8358.9004       6513.4294
 -25071683.70749 -19517017.67346  18943641.2674   18943645.6804   18943640.7574
      4152.7074       3235.8764
 -20289032.56449 -15755367.60147  16480577.0814   16480583.2224   16480577.1704
      6749.9204       5259.6784
 -29741253.96749 -22627816.78347  16562900.1134   16562905.8664   16562899.9884
      5514.3614       4296.9054
  -2346281.65049  -1810678.80145  19053215.1854   19053218.7144   19053215.2804
      3101.7554       2416.9524
 -35611868.05549 -27086863.64147  17020882.1974   17020888.5214   17020882.1024
      7149.8754       5571.3314
 -14651671.88049 -11394870.15746  18441187.4734   18441189.9144   18441185.2634
      2475.1074       1928.6554
 05  4 27 12  4 44.9850000  0  8G 1G 5G14G24G 7G 9G20G11
 -34693670.10749 -25203286.33346  18476959.6744   18476960.1294   18476959.4314
      6804.2184       5301.9884
  -9752748.11649  -7547243.51745  18916607.6914   18916617.2284   18916608.7874
      8352.0424       6508.0854
 -25133906.66049 -19565503.07346  18931801.2064   18931804.1894   18931800.2974
      4143.4394       3228.6544
 -20390221.49849 -15834216.13547  16461321.7654   16461327.4144   16461321.6324
      6741.6724       5253.2514
 -29823910.28949 -22692224.26147  16547171.2834   16547177.0264   16547171.0324
      5506.1384       4290.4974
  -2392749.85349  -1846887.82545  19044372.7234   19044373.5594   19044373.4064
      3093.8124       2410.7634
 -35719046.69749 -27170379.45647  17000487.2084   17000493.1114   17000486.9094
      7140.3444       5563.9044
 -14688769.42149 -11423777.36846  18434128.6344   18434128.2884   18434127.1054
      2470.9884       1925.4454
 05  4 27 12  4 59.9850000  0  8G 1G 5G14G24G 7G 9G20G11
 -34795662.28049 -25282760.72346  18457551.4184   18457552.8344   18457551.1354
      6794.9684       5294.7804
  -9877976.43449  -7644824.02545  18892777.4804   18892786.0914   18892778.9744
      8345.3214       6502.8484
 -25195988.18449 -19613878.31746  18919988.3144   18919990.3154   18919987.0534
      4134.3814       3221.5964
 -20491284.05849 -15912966.19747  16442090.0814   16442095.7524   16442089.9124
      6733.5824       5246.9474
 -29906440.75349 -22756533.67047  16531466.2984   16531471.8304   16531465.8154
      5498.1014       4284.2344
  -2439096.50649  -1883002.09945  19035553.8334   19035553.0494   19035555.2824
      3086.0434       2404.7094
 -35826079.92949 -27253781.97147  16980120.2434   16980125.2434   16980119.7384
      7130.9904       5556.6164
 -14725802.97449 -11452634.73945  18427080.6674   18427079.6584   18427080.3694
      2467.0764       1922.3974
 05  4 27 12  5 14.9840000  0  8G 1G 5G14G24G 7G 9G20G11
 -34897505.74249 -25362119.26446  18438171.8954   18438172.1114   18438170.8194
      6785.0924       5287.0854
 -10003092.02649  -7742316.67346  18868970.8914   18868978.2174   18868969.9034
      8337.8854       6497.0534
 -25257925.89049 -19662141.47646  18908202.0234   18908203.4774   18908200.1274
      4124.6064       3213.9794
 -20592215.18249 -15991613.82747  16422883.2094   16422889.4044   16422883.0314
      6724.8354       5240.1314
 -29988841.36349 -22820741.90647  16515786.0964   16515791.5644   16515785.5514
      5489.3804       4277.4394
  -2485320.69549  -1919020.95044  19026757.9474   19026751.9204   19026759.1284
      3077.6454       2398.1654
 -35932962.04049 -27337066.71947  16959781.5964   16959786.2944   16959780.7624
      7120.9454       5548.7884
 -14762771.89949 -11481441.71845  18420045.2794   18420044.6074   18420043.8504
      2462.4614       1918.8014
 05  4 27 12  5 29.9840000  0  8G 1G 5G14G24G 7G 9G20G11
 -34999211.74549 -25441370.68046  18418818.6674   18418818.9564   18418818.5864
      6775.4724       5279.5894
 -10128109.15249  -7839732.60945  18845181.7694   18845188.1014   18845180.8964
      8330.8034       6491.5354
 -25319726.10549 -19710297.49846  18896440.8004   18896442.7434   18896439.1974
      4115.1924       3206.6434
 -20693026.13549 -16070167.82147  16403699.4924   16403705.7924   16403699.3194
      6716.3644       5233.5304
 -30071121.06749 -22884855.92647  16500128.3324   16500134.6124   16500127.9024
      5480.9404       4270.8624
  -2531426.66749  -1954947.61644  19017982.8744   19017977.3764
      3069.6234       2391.9144
 -36039704.94449 -27420242.98547  16939469.1924   16939473.5514   16939468.5594
      7111.1914       5541.1884
 -14799679.17449 -11510200.63945  18413020.2554   18413021.7504   18413019.8474
      2458.2464       1915.5164
 05  4 27 12  5 44.9840000  0  8G 1G 5G14G24G 7G 9G20G11
 -35100773.04249 -25520509.33246  18399492.9864   18399492.2634   18399491.5714
      6765.9374       5272.1594
 -10253018.83049  -7937064.81045  18821411.6964   18821416.5144   18821409.6544
      8323.7834       6486.0654
 -25381384.46349 -19758342.92446  18884706.0374   18884709.2484   18884705.8434
      4105.9364       3199.4314
 -20793709.63349 -16148622.50147  16384540.1904   16384546.4294   16384540.0524
      6708.0154       5227.0254
 -30153274.00049 -22948871.19347  16484495.1754   16484501.3224   16484494.8714
      5472.6404       4264.3954
                                  19009229.272
      3061.588        2385.653
 -36146300.79149 -27503304.67147  16919184.8624   16919188.8824   16919183.8744
      7101.5254       5533.6564
 -14836522.32549 -11538909.58745  18406007.4554   18406011.3314   18406007.0934
      2454.0814       1912.2714
 05  4 27 12  5 59.9840000  0  8G 1G 5G14G24G 7G 9G20G11
 -35202190.48449 -25599535.89746  18380193.8974   18380193.3164   18380192.7474
      6756.1714       5264.5494
 -10377821.76749  -8034313.85345  18797661.0504   18797665.7714   18797659.9764
      8316.4344       6480.3384
 -25442902.42549 -19806278.97546  18872998.6554   18873002.8204   18872999.0044
      4096.3284       3191.9444
 -20894266.67749 -16226978.66047  16365404.7634   16365410.8544   16365404.6354
      6699.3944       5220.3074
 -30235301.24149 -23012788.52347  16468885.5504   16468891.8814   16468885.4964
      5464.0484       4257.7004
    -30386.69043                  19000500.9784
      3053.4394       2379.3034
 -36252750.56949 -27586252.55247  16898928.2044   16898931.7584   16898927.5164
      7091.5724       5525.9004
 -14873302.70149 -11567569.59545  18399005.9944   18399013.1674   18399006.7684
      2449.7164       1908.8704
 05  4 27 12  6 14.9840000  0  8G 1G 5G14G24G 7G 9G20G11
 -35303464.17649 -25678450.44746  18360921.2624   18360922.0334   18360921.0834
      6746.5424       5257.0464
 -10502517.92449  -8131479.68045  18773931.1884   18773938.8994   18773930.8674
      8309.3084       6474.7854
 -25504280.64449 -19854106.23046  18861316.8344   18861322.8444   18861317.8374
      4087.0464       3184.7114
 -20994697.53249 -16305236.47447  16346293.3964   16346299.4314   16346293.1124
      6690.9574       5213.7334
 -30317202.92849 -23076608.02247  16453300.6394   16453306.6214   16453300.4564
      5455.6614       4251.1644
    -66036.01943                  18991799.1694
      3045.5714       2373.1724
 -36359054.48249 -27669086.76647  16878699.4384   16878702.7164   16878698.3594
      7081.8234       5518.3044
 -14910020.90149 -11596181.14145  18392017.2194   18392028.8524   18392017.7654
      2445.5954       1905.6584
 05  4 27 12  6 29.9840000  0  8G 1G 5G14G24G 7G 9G20G11
 -35404592.54649 -25757251.77146  18341677.4094   18341678.3394   18341676.6694
      6737.3904       5249.9144
 -10627105.56349  -8228560.92745  18750222.5314   18750229.8454   18750221.5444
      8302.5874       6469.5484
 -25565517.59749 -19901823.33746  18849661.3734   18849670.5404   18849663.8554
      4078.0454       3177.6974
 -21095000.62449 -16383394.70647  16327205.9844   16327212.3474   16327205.8884
      6682.9494       5207.4934
 -30398977.62949 -23140328.55547  16437739.3964   16437745.4784   16437739.2134
      5447.6884       4244.9524
   -101609.07844                  18983118.3164
      3037.7624       2367.0874
 -36465210.88649 -27751806.04247  16858498.3704   16858502.5594   16858497.1804
      7072.5044       5511.0424
 -14946675.60349 -11624743.22945  18385043.2284   18385055.1984   18385045.0814
      2441.8644       1902.7514
 05  4 27 12  6 44.9840000  0  8G 1G 5G14G24G 7G 9G20G11
 -35505578.33349 -25835942.00646  18322460.7054   18322462.3784   18322459.1944
      6727.4614       5242.1774
 -10751587.35049  -8325559.73645  18726533.6484   18726540.7734   18726533.3094
      8295.0924       6463.7084
 -25626616.10149 -19949432.40546  18838033.0814   18838044.7154   18838036.6424
      4068.5024       3170.2614
 -21195178.74149 -16461455.55947  16308142.3664   16308149.4174   16308142.6344
      6674.2254       5200.6954
 -30480628.22249 -23203952.37547  16422201.9514   16422208.1954   16422201.5364
      5439.0504       4238.2214
   -137090.91244                  18974458.6314
      3029.7314       2360.8294
 -36571222.52349 -27834412.49547  16838324.1714   16838329.2934   16838323.1434
      7062.4834       5503.2344
 -14983270.06249 -11653258.38745  18378082.3954   18378093.9564   18378082.4174
      2437.4814       1899.3364
 05  4 27 12  6 59.9840000  0  8G 1G 5G14G24G 7G 9G20G11
 -35606418.49049 -25914518.77346  18303271.7914   18303274.3814   18303269.1844
      6717.7364       5234.5994
 -10875959.91649  -8422473.40145  18702867.4994   18702873.8794   18702866.9304
      8287.7914       6458.0194
 -25687574.05049 -19996932.09946  18826433.3714   18826444.6164   18826436.7934
      4059.0874       3162.9254
 -21295228.97549 -16539416.77347  16289103.7214   16289110.4894   16289103.7844
      6665.6784       5194.0354
 -30562151.94349 -23267477.34547  16406688.2784   16406694.3584   16406688.1034
      5430.5994       4231.6364
   -172479.56954                  18965822.2524
      3022.1144       2354.8944
 -36677086.33049 -27916903.75247  16818178.8404   16818184.1914   16818178.1294
      7052.6064       5495.5374
 -15019801.61949 -11681724.55145  18371132.4514   18371140.6144   18371132.4044
      2433.2954       1896.0744
 05  4 27 12  7 14.9840000  0  8G 1G 5G14G24G 7G 9G20G11
 -35707114.16049 -25992982.93346  18284109.4074   18284113.0134   18284106.6644
      6708.3794       5227.3084
 -11000224.35949  -8519302.84446  18679223.5264   18679228.7034   18679223.1094
      8280.8454       6452.6064
 -25748392.98349 -20044323.52646  18814861.6484   18814871.0654   18814863.7854
      4050.0944       3155.9174
 -21395152.63149 -16617279.33947  16270089.0324   16270095.8534   16270088.7384
      6657.5174       5187.6764
 -30643550.00049 -23330904.39847  16391198.9904   16391204.9094   16391198.9384
      5422.4614       4225.2944
   -207776.54154                  18957209.3964
      3014.5134       2348.9714
 -36782803.54449 -27999280.80147  16798061.7164   16798067.5364   16798061.0834
      7043.0734       5488.1094
 -15056271.84949 -11710142.93945  18364193.5874   18364199.1284   18364193.3324
      2429.4894       1893.1084
 05  4 27 12  7 29.9840000  0  8G 1G 5G14G24G 7G 9G20G11
 -35807665.76549 -26071334.82646  18264973.1544   18264978.4904   18264971.1714
      6698.6454       5219.7234
 -11124380.93049  -8616048.20646  18655597.9444   18655603.5204   18655597.5394
      8273.4564       6446.8494
 -25809073.42049 -20091606.98746  18803316.8904   18803323.4164   18803317.0314
      4040.7624       3148.6464
 -21494950.08449 -16695043.55647  16251098.2644   16251104.9184   16251098.1334
      6648.9414       5180.9934
 -30724822.99849 -23394233.99547  16375733.3124   16375738.9894   16375732.5424
      5414.0004       4218.7014
    -24069.96253                  18948613.4814
      3006.2274       2342.5154
 -36888374.23949 -28081543.67447  16777972.3344   16777978.1524   16777971.9074
      7033.1614       5480.3854
 -15092681.47849 -11738514.08545  18357265.2964   18357271.0354   18357264.3984
      2425.2724       1889.8224
 05  4 27 12  7 44.9840000  0  7G 1G 5G14G24G 7G20G11
 -35908069.34849 -26149571.37946  18245865.4344   18245872.0544   18245864.2794
      6688.6114       5211.9054
 -11248425.48649  -8712706.27746  18631992.6964   18631999.0234   18631991.4394
      8265.8514       6440.9234
 -25869611.79049 -20138779.75146  18791799.5034   18791804.0804   18791798.3044
      4031.0994       3141.1164
 -21594617.53749 -16772706.50347  16232132.3284   16232138.2724   16232132.3604
      6640.1224       5174.1214
 -30805967.14349 -23457463.19847  16360291.3714   16360297.9274   16360291.2494
      5405.2254       4211.8644
 -36993794.59349 -28163689.39247  16757911.3194   16757917.3444   16757910.6444
      7022.9954       5472.4644
 -15129027.08549 -11766835.38145  18350348.2754   18350349.9914   18350347.6584
      2420.8164       1886.3504
 05  4 27 12  7 59.9840000  0  7G 1G 5G14G24G 7G20G11
 -36008326.71949 -26227694.00246  18226785.7024   18226794.4974   18226784.8514
      6679.0444       5204.4504
 -11372359.61749  -8809278.29045  18608406.9844   18608414.9514   18608405.4224
      8258.6934       6435.3454
 -25930010.51449 -20185843.70446  18780306.5154   18780310.6204   18780304.9224
      4022.0204       3134.0414
 -21694156.87149 -16850269.62647  16213190.9974   16213196.6414   16213190.8234
      6631.7534       5167.6004
 -30886984.39049 -23520593.51847  16344874.2634   16344880.7474   16344874.2934
      5396.9564       4205.4204
 -37099066.49749 -28245719.43947  16737878.4714   16737884.5954   16737878.2924
      7013.2604       5464.8784
 -15165310.92249 -11795108.54945  18343443.2704   18343444.2874   18343444.6424
      2416.9494       1883.3374
 05  4 27 12  8 14.9840000  0  7G 1G 5G14G24G 7G20G11
 -36108438.63249 -26305703.27146  18207733.7434   18207743.2554   18207732.9094
      6669.2044       5196.7824
 -11496183.91649  -8905764.73845  18584839.4774   18584852.3234   18584840.7354
      8251.1884       6429.4974
 -25990270.42249 -20232799.48146  18768838.0184   18768843.5824   18768837.0834
      4012.6104       3126.7094
 -21793568.91349 -16927733.55047  16194273.3214   16194279.3194   16194273.0024
      6623.1414       5160.8894
 -30967875.59449 -23583625.61147  16329481.6704   16329487.5634   16329481.1484
      5388.4364       4198.7814
 -37204190.78349 -28327634.46447  16717874.1024   16717879.6684   16717873.8974
      7003.2664       5457.0904
 -15201534.12949 -11823334.48445  18336549.5344   18336550.0444   18336548.9954
      2412.7524       1880.0664
 05  4 27 12  8 29.9840000  0  7G 1G 5G14G24G 7G20G11
 -36208403.95349 -26383598.28946  18188709.7714   18188720.3764   18188709.3884
      6659.4484       5189.1804
 -11619897.14649  -9002164.67545  18561297.1284   18561309.2634   18561300.1654
      8243.7844       6423.7284
 -26050390.93149 -20279646.65046  18757397.6524   18757404.6624   18757398.0924
      4003.3384       3119.4844
 -21892852.50649 -17005097.38947  16175380.2444   16175386.3804   16175380.0254
      6614.5844       5154.2214
 -31048639.78749 -23646558.74747  16314112.8754   16314118.6344   16314112.4564
      5379.9854       4192.1964
 -37309166.17349 -28409433.47747  16697898.2594   16697903.5744   16697898.1114
      6993.3744       5449.3824
 -15237695.87049 -11851512.49645  18329666.4834   18329668.7994   18329666.1914
      2408.7034       1876.9114
 05  4 27 12  8 44.9840000  0  7G 1G 5G14G24G 7G20G11
 -36308223.45049 -26461379.69946  18169712.9464   18169724.3214   18169713.7674
      6649.7144       5181.5954
 -11743500.07549  -9098478.62745  18537781.8624   18537788.8484   18537782.1534
      8236.4584       6418.0194
 -26110373.12549 -20326386.04946  18745985.4474   18745989.9364   18745984.7454
      3994.1164       3112.2984
 -21992008.56349 -17082361.85447  16156511.3744   16156517.1754   16156511.4694
      6606.0584       5147.5784
 -31129278.00949 -23709393.73447  16298767.9654   16298773.7714   16298767.5844
      5371.5644       4185.6344
 -37413993.38149 -28491117.01647  16677950.4404   16677955.4854   16677950.0154
      6983.4604       5441.6574
 -15273797.54349 -11879643.69145  18322794.8984   18322799.4904   18322796.5074
      2404.7004       1873.7924
 05  4 27 12  8 59.9840000  0  7G 1G 5G14G24G 7G20G11
 -36407894.40949 -26539045.37846  18150745.6454   18150757.1124   18150747.3064
      6639.7184       5173.8064
 -11866989.71049  -9194704.26846  18514286.3814   18514287.2364   18514283.9114
      8228.8324       6412.0774
 -26170214.72649 -20373015.90046  18734598.6464   18734602.9254   18734597.7564
      3984.6754       3104.9424
 -22091034.42749 -17159524.87847  16137667.3054   16137673.2384   16137667.3054
      6597.3164       5140.7664
 -31209787.52249 -23772128.41247  16283447.8614   16283453.5594   16283446.8474
      5362.8994       4178.8824
 -37518669.74849 -28572683.00847  16658031.1324   16658035.6724   16658030.7954
      6973.3434       5433.7744
 -15309836.65349 -11907726.11945  18315935.2234   18315943.1454   18315934.4714
      2400.4934       1870.5144
 05  4 27 12  9 14.9840000  0  7G 1G 5G14G24G 7G20G11
 -36507419.75949 -26616597.60046  18131806.9774   18131817.7944   18131808.3914
      6630.0864       5166.3014
 -11990368.83049  -9290843.79446  18490807.9614   18490808.0414   18490806.6364
      8221.5094       6406.3714
 -26229919.06149 -20419538.78646  18723236.1484   18723241.4934   18723235.1394
      3975.6544       3097.9124
 -22189932.98249 -17236588.69347  16118847.5384   16118853.5504   16118847.3574
      6588.9374       5134.2374
 -31290171.34049 -23834765.16247  16268151.1484   16268157.0164   16268150.7184
      5354.6164       4172.4284
 -37623198.17649 -28654133.72247  16638139.7864   16638144.5884   16638139.8094
      6963.5574       5426.1484
 -15345816.54949 -11935762.44745  18309088.8484   18309100.8374   18309089.4574
      2396.6004       1867.4804
 05  4 27 12  9 29.9840000  0  7G 1G 5G14G24G 7G20G11
 -36606798.54349 -26694035.62246  18112896.6634   18112906.5304   18112897.7054
      6620.3404       5158.7064
 -12113636.37249  -9386896.41446  18467349.1654   18467353.3514   18467347.8234
      8214.1074       6400.6034
 -26289485.32549 -20465954.05046  18711898.9604   18711906.6094   18711898.4074
      3966.4474       3090.7384
 -22288703.52649 -17313552.75047  16100052.2394   16100058.0294   16100052.1024
      6580.4224       5127.6024
 -31370428.87949 -23897303.52847  16252878.8144   16252884.4824   16252878.3804
      5346.2644       4165.9204
 -37727577.61549 -28735468.34247  16618277.3724   16618282.1064   16618276.9484
      6953.6514       5418.4294
 -15381736.67649 -11963752.18745  18302256.5744   18302266.5744   18302256.2444
      2392.6894       1864.4334
 05  4 27 12  9 44.9840000  0  7G 1G 5G14G24G 7G20G11
 -36706027.93549 -26771357.20846  18094014.3534   18094023.8814   18094014.6814
      6610.5394       5151.0694
 -12236789.28449  -9482859.71545  18443911.2134   18443918.6904   18443910.5434
      8206.5484       6394.7134
 -26348911.41549 -20512260.10046  18700588.9594   18700598.6214   18700589.9994
      3957.3404       3083.6424
 -22387343.28549 -17390414.89247  16081281.7364   16081287.3724   16081281.5294
      6571.8414       5120.9154
 -31450557.47149 -23959741.40647  16237630.9744   16237636.2804   16237630.7114
      5337.7834       4159.3114
 -37831805.32549 -28816684.73347  16598444.0484   16598448.6124   16598443.2544
      6943.6684       5410.6504
 -15417594.68249 -11991693.52045  18295435.9184   18295443.4494   18295434.4004
      2388.6864       1861.3144
 05  4 27 12  9 59.9840000  0  7G 1G 5G14G24G 7G20G11
 -36805109.60949 -26848563.68746  18075159.6894   18075169.4324   18075160.1904
      6600.5504       5143.2864
 -12359828.88949  -9578734.75345  18420496.1004   18420503.8614   18420496.6444
      8198.9014       6388.7544
 -26408199.13949 -20558458.30046  18689305.7924   18689316.6144   18689307.8174
      3947.9614       3076.3334
 -22485854.00549 -17467176.50047  16062535.4724   16062541.3574   16062535.3964
      6563.1404       5114.1354
 -31530558.73449 -24022080.07247  16222406.9834   16222412.5874   16222406.5614
      5329.1734       4152.6024
 -37935882.98149 -28897784.20347  16578639.1584   16578643.3664   16578638.3124
      6933.5474       5402.7644
                 -12019588.01045  18288626.0614   18288631.2674
      2384.5764       1858.1114
 05  4 27 12 10 14.9830000  0  7G 1G 5G14G24G 7G20G11
 -36904037.18849 -26925650.10746  18056334.1604   18056344.0014   18056335.0654
      6590.5974       5135.5304
 -12482747.16049  -9674515.21246  18397106.3804   18397115.2034   18397106.1354
      8191.2404       6382.7844
 -26467345.12749 -20604546.05946  18678050.7314   18678061.6044   18678052.2284
      3938.6254       3069.0584
 -22584229.29149 -17543832.55147  16043815.1224   16043821.0424   16043815.3134
      6554.4024       5107.3264
 -31610427.70649 -24084315.64947  16207208.1864   16207213.9544   16207207.9584
      5320.5834       4145.9094
 -38039803.76849 -28978761.42447  16558864.0114   16558868.0454   16558862.6244
      6923.4354       5394.8844
                 -12047434.24045  18281826.8924   18281832.3364
      2380.4894       1854.9264
 05  4 27 12 10 29.9830000  0  7G 1G 5G14G24G 7G20G11
 -37002822.99849 -27002626.06346  18037536.2674   18037546.3064   18037536.4644
      6580.7304       5127.8424
 -12605559.33349  -9770213.02546  18373737.4484   18373744.6524   18373738.0794
      8183.5844       6376.8194
 -26526356.78949 -20650529.17546  18666820.8274   18666832.0884   18666822.2194
      3929.4334       3061.8964
 -22682481.36549 -17620392.59447  16025118.6464   16025124.4454   16025118.5144
      6545.7534       5100.5874
 -31690174.29149 -24146455.84847  16192032.8184   16192038.4054   16192032.5784
      5312.0774       4139.2814
 -38143580.49549 -29059626.40347  16539115.5524   16539119.4604   16539114.9214
      6913.3574       5387.0314
 -15524806.87249 -12075235.56045  18275037.5354   18275042.5924   18275035.6854
      2376.4914       1851.8114
 05  4 27 12 10 44.9830000  0  7G 1G 5G14G24G 7G20G11
 -37101461.65149 -27079487.33646  18018766.3844   18018776.5374   18018766.7264
      6570.8364       5120.1324
 -12728258.33849  -9865822.61646  18350391.0604   18350396.3704   18350390.7254
      8175.9694       6370.8854
 -26585231.93249 -20696405.93446  18655617.0844   18655627.6104   18655619.1204
      3920.2814       3054.7644
 -22780605.01849 -17696852.57147  16006446.4134   16006452.1064   16006446.1614
      6537.1354       5093.8714
 -31769794.65449 -24208497.68447  16176881.3354   16176887.3844   16176880.9094
      5303.5864       4132.6644
 -38247207.69249 -29140374.85747  16519395.4634   16519399.8714   16519394.4754
      6903.3264       5379.2154
 -15560426.80149 -12102991.37345  18268258.3724   18268263.7114   18268257.3424
      2372.5164       1848.7144
 05  4 27 12 10 59.9830000  0  7G 1G 5G14G24G 7G20G11
 -37199952.37049 -27156233.34146  18000023.4624   18000034.5284   18000024.1174
      6561.2554       5112.6664
 -12850843.23049  -9961343.26746  18327064.7834   18327067.2084   18327064.2354
      8168.6574       6365.1874
 -26643969.92249 -20742175.81046  18644439.8284   18644450.7174   18644441.7324
      3911.4254       3047.8644
 -22878599.57849 -17773211.96347  15987798.6704   15987804.3124   15987798.3494
      6528.8224       5087.3944
 -31849287.96749 -24270440.52547  16161754.1034   16161760.1854   16161753.9754
      5295.3834       4126.2724
 -38350684.44049 -29221006.10847  16499704.1934   16499708.4394   16499703.7264
      6893.5754       5371.6174
 -15595987.93149 -12130701.37345  18261489.0284   18261496.5784   18261488.9964
      2368.9494       1845.9344
 05  4 27 12 11 14.9830000  0  7G 1G 5G14G24G 7G20G11
 -37298295.62949 -27232864.45946  17981309.2344   17981321.1324   17981309.4624
      6551.4184       5105.0014
 -12973314.43949 -10056775.35246  18303759.0534   18303761.4964   18303758.0814
      8161.0654       6359.2714
 -26702571.69249 -20787839.52446  18633289.2874   18633299.4804   18633290.1694
      3902.3984       3040.8304
 -22976465.65249 -17849471.24847  15969175.2974   15969181.0584   15969175.2994
      6520.2134       5080.6854
 -31928655.10649 -24332285.05747  16146651.1834   16146656.9834   16146651.3364
      5286.9834       4119.7274
 -38454011.22349 -29301520.48747  16480041.3734   16480045.4454   16480041.2954
      6883.5374       5363.7954
 -15631491.20949 -12158366.28745  18254730.0324   18254735.0424   18254729.1164
      2365.0284       1842.8794
 05  4 27 12 11 29.9830000  0  7G 1G 5G14G24G 7G20G11
 -37396489.83849 -27309379.42946  17962623.3314   17962636.9614   17962624.0594
      6541.3794       5097.1784
 -13095670.16649 -10152117.43446  18280474.9854   18280477.0194   18280474.5254
      8153.2854       6353.2094
 -26761036.07249 -20833396.21946  18622164.8344   18622174.6444   18622165.8024
      3893.0934       3033.5794
 -23074201.72949 -17925629.22347  15950576.4314   15950582.6564   15950576.3164
      6511.4744       5073.8764
 -32007894.48449 -24394030.02647  16131572.8064   16131578.1914   16131572.5704
      5278.4094       4113.0464
 -38557186.45049 -29381916.75847  16460407.4704   16460412.5884   16460407.4284
      6873.3774       5355.8784
 -15666935.44649 -12185985.17745  18247982.2074   18247991.3634   18247984.2864
      2361.1384       1839.8484
 05  4 27 12 11 44.9830000  0  7G 1G 5G14G24G 7G20G11
 -37494536.40949 -27385779.34646  17943965.5114   17943979.5804   17943966.1634
      6531.7044       5089.6394
 -13217911.59449 -10247370.47746  18257212.2164   18257215.6124   18257212.0414
      8145.8064       6347.3814
 -26819364.82249 -20878847.21946  18611067.7804   18611074.0254   18611067.7784
      3884.2484       3026.6874
 -23171809.29449 -18001687.06647  15932002.0514   15932008.8774   15932002.2364
      6503.0634       5067.3224
 -32087007.64349 -24455676.66047  16116518.3844   16116523.6004   16116518.0124
      5270.1634       4106.6214
 -38660211.55249 -29462196.07347  16440802.5384   16440807.8514   16440802.4014
      6863.5294       5348.2044
 -15702322.40149 -12213559.48345  18241247.4474   18241253.9924   18241246.4024
      2357.4124       1836.9444
 05  4 27 12 11 59.9830000  0  7G 1G 5G14G24G 7G20G11
 -37592432.66949 -27462062.14546  17925335.1264   17925349.8864   17925337.1754
      6521.4614       5081.6584
 -13340035.86349 -10342532.22246  18233971.7524   18233978.0134   18233970.5254
      8137.7694       6341.1194
 -26877555.57749 -20924190.67846  18599996.4944   18600000.6254   18599995.3924
      3874.8424       3019.3574
 -23269285.77649 -18077642.77147  15913453.1974   15913459.9484   15913453.3054
      6494.1024       5060.3394
 -32165992.17949 -24517223.05747  16101488.5744   16101493.3384   16101487.9304
      5261.3604       4099.7614
 -38763083.83849 -29542356.29647  16421226.8134   16421232.3304   16421226.6174
      6853.1174       5340.0914
 -15737649.79449 -12241087.35645  18234524.2294   18234530.2704   18234526.0314
      2353.2244       1833.6814
 05  4 27 12 12 14.9830000  0  7G 1G 5G14G24G 7G20G11
 -37690180.31849 -27538229.13046  17906734.3014   17906749.7894   17906736.5274
      6511.3934       5073.8134
 -13462044.65849 -10437604.02446  18210754.3004   18210759.1814   18210754.6664
      8129.8994       6334.9864
 -26935610.59649 -20969428.36746  18588950.4874   18588952.6614   18588949.1884
      3865.6254       3012.1754
 -23366632.91349 -18153497.68547  15894928.7934   15894935.4514   15894928.7294
      6485.3134       5053.4914
 -32244849.74249 -24578670.50747  16086482.3194   16086487.5344   16086481.8894
      5252.6964       4093.0104
 -38865805.02549 -29622398.77547  16401679.7374   16401684.8484   16401679.3564
      6842.8494       5332.0904
 -15772919.71649 -12268570.43945  18227812.5014   18227819.4774   18227813.4414
      2349.2194       1830.5604
 05  4 27 12 12 29.9830000  0  7G 1G 5G14G24G 7G20G11
 -37787778.10349 -27614279.33046  17888163.1774   17888177.5394   17888163.5784
      6501.6944       5066.2554
 -13583936.46249 -10532584.66346  18187560.4554   18187565.4924   18187559.6654
      8122.3564       6329.1094
 -26993528.94249 -21014559.56046  18577929.7244   18577931.5894   18577928.4294
      3856.7904       3005.2914
 -23463849.52249 -18229250.88047  15876428.9764   15876435.3404   15876429.0234
      6476.8954       5046.9314
 -32323579.42549 -24640018.30747  16071500.1314   16071505.9054   16071499.8904
      5244.4944       4086.6194
 -38968373.85749 -29702322.52647  16382161.7304   16382167.1054   16382160.7894
      6832.9944       5324.4114
 -15808131.17149 -12296007.96145  18221114.2254   18221120.4334   18221115.1114
      2345.6464       1827.7764
 05  4 27 12 12 44.9830000  0  7G 1G 5G14G24G 7G20G11
 -37885226.70749 -27690213.28846  17869619.7294   17869634.2254   17869619.5574
      6491.5264       5058.3324
 -13705711.63849 -10627474.41346  18164388.5224   18164392.8144   18164387.1084
      8114.3974       6322.9074
 -27051311.46449 -21059584.93846  18566934.3004   18566935.3034   18566932.6324
      3847.6084       2998.1364
 -23560936.21149 -18304902.85947  15857954.0954   15857960.4594   15857954.1724
      6468.0804       5040.0624
 -32402181.89649 -24701266.98947  16056542.4564   16056548.5864   16056542.3794
      5235.8594       4079.8904
 -39070790.91549 -29782128.00647  16362672.4644   16362677.5664   16362671.6414
      6822.7104       5316.3974
 -15843285.29449 -12323400.81245  18214428.0674   18214431.2964   18214427.0674
      2341.6404       1824.6554
 05  4 27 12 12 59.9830000  0  7G 1G 5G14G24G 7G20G11
 -37982526.28349 -27766031.14046  17851103.8584   17851118.5624   17851103.9344
      6481.6824       5050.6614
 -13827370.19049 -10722273.26146  18141237.9094   18141242.3644   18141236.9094
      8106.7094       6316.9164
 -27108958.75149 -21104504.91846  18555963.4774   18555965.4384   18555961.5344
      3838.6714       2991.1724
 -23657893.16249 -18380453.74147  15839503.6604   15839510.3714   15839503.8154
      6459.5094       5033.3844
 -32480657.46949 -24762416.79047  16041609.3654   16041615.1214   16041608.9354
      5227.4604       4073.3454
 -39173056.15149 -29861815.16547  16343211.9954   16343217.0984   16343211.4674
      6812.6424       5308.5524
 -15878382.63849 -12350749.45645  18207752.3434   18207757.6984   18207752.3894
      2337.9574       1821.7854
 05  4 27 12 13 14.9830000  0  7G 1G 5G14G24G 7G20G11
 -38079674.92249 -27841731.37846  17832617.3064   17832631.4074   17832616.8814
      6471.4144       5042.6604
 -13948910.10149 -10816979.66246  18118109.6884   18118113.5434   18118108.6814
      8098.5654       6310.5704
 -27166469.36049 -21149318.42346  18545019.2584   18545021.0074   18545018.6034
      3829.4184       2983.9624
 -23754718.65149 -18455902.17747  15821078.3094   15821084.7324   15821078.5014
      6450.5094       5026.3714
 -32559004.38849 -24823466.34447  16026700.3654   16026706.1144   16026700.2584
      5218.6694       4066.4954
 -39275167.79049 -29941382.66947  16323780.9794   16323785.5094   16323780.3124
      6802.1724       5300.3944
                 -12378052.68945  18201087.0334
      2333.8744       1818.6034
 05  4 27 12 13 29.9830000  0  7G 1G 5G14G24G 7G20G11
 -38176672.57149 -27917313.97446  17814160.6754   17814173.0934   17814160.1054
      6461.5064       5034.9404
 -14070331.15849 -10911593.47346  18095003.0394   18095008.1884   18095002.1814
      8090.7624       6304.4904
 -27223843.54349 -21194025.57446  18534101.5074   18534102.7764   18534100.5294
      3820.4254       2976.9544
 -23851412.69749 -18531248.19647  15802678.1404   15802684.3634   15802678.2404
      6441.9214       5019.6794
 -32637222.69449 -24884415.68247  16011815.9244   16011821.8964   16011815.5434
      5210.2284       4059.9184
 -39377125.92249 -30020830.55347  16304378.7334   16304383.5704   16304378.4644
      6792.1304       5292.5694
                 -12405310.64845  18194430.9514   18194436.8394
      2330.1714       1815.7184
 05  4 27 12 13 44.9830000  0  7G 1G 5G14G24G 7G20G11
 -38273520.38349 -27992779.79946  17795733.4864   17795742.9014   17795730.7064
      6451.4324       5027.0904
 -14191634.39049 -11006115.48646  18071918.8294   18071925.0704   18071918.8314
      8082.8214       6298.3024
 -27281082.97149 -21238627.72446  18523208.5734   18523211.2554   18523207.2104
      3811.3614       2969.8924
 -23947976.51849 -18606492.73647  15784302.9264   15784308.8074   15784302.9364
      6433.1454       5012.8404
 -32715313.81549 -24945265.91347  15996955.3074   15996961.6104   15996955.1634
      5201.7184       4053.2874
 -39478931.69149 -30100159.71847  16285005.6504   16285010.5754   16285005.3144
      6781.8764       5284.5794
                 -12432524.69445  18187784.5304   18187791.5054
      2326.3344       1812.7284
 05  4 27 12 13 59.9830000  0  7G 1G 5G14G24G 7G20G11
 -38370218.06949 -28068128.65946  17777335.1694   17777340.9754   17777330.8854
      6441.6354       5019.4564
 -14312819.20449 -11100545.22546  18048856.7054   18048864.4604   18048856.5424
      8075.1614       6292.3334
 -27338187.64049 -21283124.88546  18512340.5834   18512344.3114   18512339.9444
      3802.6244       2963.0844
 -24044409.79249 -18681635.55647  15765952.5564   15765958.1504   15765952.1744
      6424.6794       5006.2434
 -32793277.46249 -25006016.82047  15982119.6334   15982125.4544   15982119.2574
      5193.4314       4046.8294
 -39580584.75049 -30179369.88147  16265661.8384   16265666.2364   16265661.3014
      6771.9244       5276.8244
 -16018195.87749 -12459694.93245  18181148.5104   18181157.1814   18181147.2264
      2322.8464       1810.0104
 05  4 27 12 14 14.9830000  0  7G 1G 5G14G24G 7G20G11
 -38466764.87049 -28143359.93046  17758964.8314   17758968.1284   17758960.1154
      6431.7454       5011.7494
 -14433884.68249 -11194881.97046  18025818.8004   18025824.1934   18025818.6574
      8067.3594       6286.2544
 -27395157.07549 -21327516.66646  18501497.9584   18501503.6864   18501498.3924
      3793.7644       2956.1804
 -24140711.93449 -18756676.18347  15747626.8274   15747632.4944   15747626.6344
      6416.1024       4999.5604
 -32871113.10549 -25066667.98447  15967308.3044   15967313.6634   15967307.5584
      5185.0574       4040.3044
 -39682084.27949 -30258460.42547  16246347.0074   16246351.1804   16246346.5544
      6761.8244       5268.9544
 -16053007.56949 -12486820.97645  18174523.4234   18174529.7554   18174524.6684
      2319.2324       1807.1944
 05  4 27 12 14 29.9830000  0  7G 1G 5G14G24G 7G20G11
 -38563161.89649 -28218474.49646  17740621.7934   17740623.5634   17740617.4044
      6421.4584       5003.7344
 -14554831.72149 -11289126.39646  18002804.3644   18002808.9014   18002802.4134
      8059.1694       6279.8724
 -27451992.72149 -21371804.18346  18490682.3594   18490688.4374   18490682.7434
      3784.5834       2949.0264
 -24236884.13949 -18831615.56447  15729325.5664   15729331.3804   15729325.6244
      6407.1354       4992.5734
 -32948821.93849 -25127220.33347  15952520.4844   15952526.0114   15952520.0364
      5176.3314       4033.5054
 -39783431.34949 -30337432.18247  16227061.2024   16227065.8974   16227060.4794
      6751.3864       5260.8204
 -16087763.96349 -12513903.88145  18167907.5094   18167915.1804   18167906.2044
      2315.2434       1804.0854
 05  4 27 12 14 44.9820000  0  7G 1G 5G14G24G 7G20G11
 -38659400.66149 -28293465.74446  17722308.2624   17722309.4974   17722304.4054
      6411.4284       4995.9184
 -14675649.98149 -11383270.49446  17979815.2954   17979819.0224   17979815.5794
      8051.1904       6273.6544
 -27508689.27549 -21415983.36946  18479893.5214   18479899.8464   18479893.7264
      3775.6414       2942.0584
 -24332917.88649 -18906447.05747  15711051.1164   15711056.7814   15711051.0424
      6398.3994       4985.7654
 -33026396.76749 -25187668.25247  15937758.1144   15937764.1174   15937758.1274
      5167.8114       4026.8664
 -39884617.04149 -30416278.18347  16207806.2314   16207810.9874   16207805.3154
      6741.1324       5252.8304
 -16122461.12049 -12540940.60945  18161303.0754   18161316.5724   18161300.0264
      2311.5514       1801.2094
 05  4 27 12 14 59.9820000  0  7G 1G 5G14G24G 7G20G11
 -38755492.95949 -28368342.87746  17704021.8034   17704022.5464   17704019.7314
      6401.0244       4987.8114
 -14796354.43749 -11477325.88246  17956846.8194   17956850.2044   17956846.1194
      8042.8514       6267.1574
 -27565253.42549 -21460059.28846  18469130.2734   18469136.0664   18469130.9364
      3766.4044       2934.8604
 -24428825.03749 -18981179.91047  15692800.7514   15692806.4574   15692800.6194
      6389.3324       4978.7004
 -33103847.26349 -25248019.30847  15923019.8094   15923025.6724   15923019.6664
      5158.9684       4019.9754
 -39985653.82949 -30495008.14347  16188579.3734   16188584.2534   16188578.9614
      6730.5634       5244.5954
 -16157102.81049 -12567934.27245  18154706.9384   18154711.6984   18154706.1134
      2307.5094       1798.0594
 05  4 27 12 15 14.9820000  0  7G 1G 5G14G24G 7G20G11
 -38851434.05049 -28443102.16246  17685764.9294   17685765.1924   17685763.3394
      6390.9204       4979.9384
 -14916938.63849 -11571287.58546  17933899.6864   17933906.4694   17933898.7564
      8034.8074       6260.8894
 -27621683.59649 -21504030.85446  18458392.3994   18458398.2114   18458391.7364
      3757.4274       2927.8654
 -24524600.96349 -19055810.50847  15674574.7374   15674580.9804   15674574.6964
      6380.5724       4971.8744
 -33181169.79149 -25308270.64447  15908306.1744   15908311.7314   15908305.8874
      5150.4154       4013.3104
 -40086536.70349 -30573618.19047  16169382.1534   16169387.0734   16169381.8804
      6720.2874       5236.5874
 -16191688.90949 -12594884.47645  18148122.5514                   18148123.4174
      2303.7404       1795.1224
 05  4 27 12 15 29.9820000  0  7G 1G 5G14G24G 7G20G11
 -38947223.26249 -28517743.10446  17667537.6994   17667537.6064   17667536.4734
      6381.1994       4972.3634
 -15037401.54049 -11665154.75146  17910975.9904   17910984.7254   17910974.2254
      8027.1244       6254.9024
 -27677979.49149 -21547897.76546  18447678.9894   18447684.1344   18447678.4664
      3748.8834       2921.2084
 -24620245.05149 -19130338.36647  15656373.8064   15656380.7914   15656373.9064
      6372.1714       4965.3284
 -33258363.90749 -25368421.91147  15893616.6954   15893622.1364   15893616.0484
      5142.2574       4006.9544
 -40187265.00449 -30652107.77547  16150214.8104   16150219.4284   16150214.4194
      6710.3694       5228.8594
 -16226219.11649 -12621791.13245  18141553.6014   18141557.6964   18141554.2684
      2300.4274       1792.5414
 05  4 27 12 15 44.9820000  0  7G 1G 5G14G24G 7G20G11
 -39042861.40149 -28592266.33846  17649338.5964   17649337.7794   17649336.0264
      6371.0674       4964.4684
 -15157743.81749 -11758927.95046  17888071.7344   17888082.8504   17888070.4404
      8019.0574       6248.6164
 -27734142.22949 -21591660.96246  18436990.5824   18436996.0054   18436991.5274
      3740.0164       2914.2984
 -24715758.08449 -19204764.10847  15638198.3554   15638205.4454   15638198.3974
      6363.3814       4958.4794
 -33335430.60949 -25428473.89347  15878950.9374   15878956.6524   15878950.6964
      5133.7034       4000.2884
 -40287839.52849 -30730477.53447  16131076.1344   16131080.7194   16131075.4834
      6700.0614       5220.8274
 -16260694.57449 -12648655.18545  18134997.2854   18134995.9734   18134992.7074
      2296.8134       1789.7244
 05  4 27 12 15 59.9820000  0  7G 1G 5G14G24G 7G20G11
 -39138349.40449 -28666672.57046  17631166.1944   17631167.3104   17631164.8334
      6360.5854       4956.3004
 -15277966.12549 -11852607.67546  17865190.5234   17865203.7664   17865192.2404
      8010.5834       6242.0134
 -27790173.10949 -21635321.44746  18426328.5234   18426334.4494   18426328.9754
      3730.6824       2907.0254
 -24811141.13349 -19279088.56347  15620047.8594   15620054.4974   15620047.6014
      6354.2724       4951.3814
 -33412370.96149 -25488427.42047  15864309.6144   15864315.3194   15864309.1194
      5124.8304       3993.3744
 -40388261.09649 -30808728.11747  16111966.5444   16111971.3144   16111966.2334
      6689.4054       5212.5234
 -16295116.58249 -12675477.60545  18128451.3794   18128446.4644   18128448.8324
      2292.7504       1786.5584
 05  4 27 12 16 14.9820000  0  7G 1G 5G14G24G 7G20G11
 -39233684.70849 -28740959.82246  17613023.2924   17613024.9484   17613023.5794
      6350.6584       4948.5654
 -15398065.84849 -11946191.86446  17842338.8134   17842348.3744   17842339.5934
      8002.6004       6235.7924
 -27846069.77449 -21678877.26346  18415692.1134   18415697.7644   18415692.6004
      3722.0654       2900.3104
 -24906391.69349 -19353309.77247  15601922.1424   15601929.0404   15601922.3504
      6345.6964       4944.6984
 -33489182.43349 -25548280.52047  15849692.8314   15849698.7084   15849692.7084
      5116.4864       3986.8724
 -40488527.22349 -30886857.59547  16092886.7814   16092891.3174   16092886.3254
      6679.2924       5204.6434
 -16329482.96649 -12702256.63345  18121914.0854   18121908.8144   18121910.6554
      2289.2834       1783.8574
 05  4 27 12 16 29.9820000  0  7G 1G 5G14G24G 7G20G11
 -39328869.29049 -28815129.61746  17594910.1954   17594913.2834   17594908.7254
      6340.5784       4940.7104
 -15518044.68549 -12039681.82246  17819511.5894   17819517.3214   17819510.8134
      7994.4764       6229.4624
 -27901834.73549 -21722330.47746  18405081.0124   18405084.5504   18405080.6534
      3713.2844       2893.4684
 -25001511.74749 -19427429.27747  15583821.8274   15583828.1034   15583821.6514
      6336.9264       4937.8644
 -33565867.17949 -25608034.86047  15835100.5464   15835106.0064   15835100.6854
      5107.9884       3980.2504
 -40588639.77849 -30964867.42247  16073836.1614   16073840.2454   16073835.2164
      6668.9904       5196.6164
 -16363795.98349 -12728994.07845  18115384.1424   18115382.3014   18115384.8084
      2285.7134       1781.0754
